Wetterdaten: Dienstag, 01.03.2016
Datum Zeit Temp. A. Feuchte A. Luftdruck Regen Wind Richtung Richtung Sonnenschein ET UV Solar Taupunkt Windchill Windben Empfang
01.03.2016 00:00 2,1 C 94 % 1012,6 hPa 0,0 l/m 17,4 km/h (3 Bft) SW 220 0 min 0,000 mm 0,0 UV-I 0 W/m 1,2 C -5,7 C 24,1 km/h (4 Bft) 100,00 %
01.03.2016 00:02 2,1 C 94 % 1012,6 hPa 0,0 l/m 14,2 km/h (3 Bft) SW 223 0 min 0,000 mm 0,0 UV-I 0 W/m 1,2 C -4,0 C 19,3 km/h (3 Bft) 97,14 %
01.03.2016 00:03 2,1 C 94 % 1012,7 hPa 0,0 l/m 14,9 km/h (3 Bft) W-SW 243 0 min 0,000 mm 0,0 UV-I 0 W/m 1,2 C -4,4 C 19,3 km/h (3 Bft) 100,00 %
01.03.2016 00:04 2,1 C 94 % 1012,6 hPa 0,0 l/m 14,8 km/h (3 Bft) SW 229 0 min 0,000 mm 0,0 UV-I 0 W/m 1,2 C -4,3 C 20,9 km/h (4 Bft) 100,00 %
01.03.2016 00:05 2,1 C 94 % 1012,7 hPa 0,0 l/m 15,0 km/h (3 Bft) SW 236 0 min 0,000 mm 0,0 UV-I 0 W/m 1,2 C -4,4 C 17,7 km/h (3 Bft) 100,00 %
01.03.2016 00:06 2,1 C 94 % 1012,7 hPa 0,0 l/m 13,2 km/h (3 Bft) SW 223 0 min 0,000 mm 0,0 UV-I 0 W/m 1,2 C -3,4 C 17,7 km/h (3 Bft) 86,67 %
01.03.2016 00:07 2,0 C 94 % 1012,7 hPa 0,0 l/m 16,3 km/h (3 Bft) SW 227 0 min 0,000 mm 0,0 UV-I 0 W/m 1,1 C -5,3 C 22,5 km/h (4 Bft) 100,00 %
01.03.2016 00:08 2,1 C 94 % 1012,7 hPa 0,0 l/m 14,0 km/h (3 Bft) W-SW 245 0 min 0,000 mm 0,0 UV-I 0 W/m 1,2 C -3,9 C 19,3 km/h (3 Bft) 100,00 %
01.03.2016 00:09 2,0 C 94 % 1012,7 hPa 0,0 l/m 16,4 km/h (3 Bft) W-SW 245 0 min 0,000 mm 0,0 UV-I 0 W/m 1,1 C -5,3 C 25,7 km/h (4 Bft) 95,83 %
01.03.2016 00:10 2,0 C 94 % 1012,7 hPa 0,0 l/m 17,8 km/h (3 Bft) W 260 0 min 0,000 mm 0,0 UV-I 0 W/m 1,1 C -6,0 C 27,4 km/h (4 Bft) 95,65 %
01.03.2016 00:11 2,1 C 94 % 1012,7 hPa 0,0 l/m 12,7 km/h (3 Bft) SW 225 0 min 0,000 mm 0,0 UV-I 0 W/m 1,2 C -3,0 C 20,9 km/h (4 Bft) 100,00 %
01.03.2016 00:12 2,0 C 94 % 1012,7 hPa 0,0 l/m 13,5 km/h (3 Bft) W-SW 239 0 min 0,000 mm 0,0 UV-I 0 W/m 1,1 C -3,7 C 19,3 km/h (3 Bft) 100,00 %
01.03.2016 00:13 2,0 C 94 % 1012,7 hPa 0,0 l/m 16,9 km/h (3 Bft) W-SW 242 0 min 0,000 mm 0,0 UV-I 0 W/m 1,1 C -5,6 C 19,3 km/h (3 Bft) 100,00 %
01.03.2016 00:14 2,0 C 94 % 1012,8 hPa 0,0 l/m 14,9 km/h (3 Bft) SW 236 0 min 0,000 mm 0,0 UV-I 0 W/m 1,1 C -4,5 C 19,3 km/h (3 Bft) 96,55 %
01.03.2016 00:15 2,0 C 94 % 1012,7 hPa 0,0 l/m 14,8 km/h (3 Bft) S-SW 213 0 min 0,000 mm 0,0 UV-I 0 W/m 1,1 C -4,4 C 19,3 km/h (3 Bft) 100,00 %
01.03.2016 00:16 2,0 C 94 % 1012,7 hPa 0,0 l/m 19,2 km/h (3 Bft) W-SW 253 0 min 0,000 mm 0,0 UV-I 0 W/m 1,1 C -6,7 C 25,7 km/h (4 Bft) 100,00 %
01.03.2016 00:17 2,0 C 94 % 1012,7 hPa 0,0 l/m 16,1 km/h (3 Bft) W-SW 238 0 min 0,000 mm 0,0 UV-I 0 W/m 1,1 C -5,2 C 25,7 km/h (4 Bft) 100,00 %
01.03.2016 00:18 2,0 C 94 % 1012,7 hPa 0,0 l/m 15,4 km/h (3 Bft) SW 219 0 min 0,000 mm 0,0 UV-I 0 W/m 1,1 C -4,8 C 19,3 km/h (3 Bft) 100,00 %
01.03.2016 00:19 2,0 C 94 % 1012,7 hPa 0,0 l/m 18,1 km/h (3 Bft) SW 233 0 min 0,000 mm 0,0 UV-I 0 W/m 1,1 C -6,2 C 27,4 km/h (4 Bft) 100,00 %
01.03.2016 00:20 2,0 C 94 % 1012,7 hPa 0,0 l/m 17,7 km/h (3 Bft) W-SW 241 0 min 0,000 mm 0,0 UV-I 0 W/m 1,1 C -6,0 C 22,5 km/h (4 Bft) 100,00 %
01.03.2016 00:21 2,0 C 94 % 1012,8 hPa 0,0 l/m 16,5 km/h (3 Bft) S-SW 208 0 min 0,000 mm 0,0 UV-I 0 W/m 1,1 C -5,4 C 20,9 km/h (4 Bft) 100,00 %
01.03.2016 00:22 2,0 C 94 % 1012,8 hPa 0,0 l/m 15,8 km/h (3 Bft) SW 219 0 min 0,000 mm 0,0 UV-I 0 W/m 1,1 C -5,0 C 22,5 km/h (4 Bft) 100,00 %
01.03.2016 00:23 2,0 C 94 % 1012,8 hPa 0,0 l/m 19,8 km/h (3 Bft) W-SW 242 0 min 0,000 mm 0,0 UV-I 0 W/m 1,1 C -7,0 C 30,6 km/h (5 Bft) 96,30 %
01.03.2016 00:24 2,0 C 94 % 1012,8 hPa 0,0 l/m 13,0 km/h (3 Bft) W-SW 247 0 min 0,000 mm 0,0 UV-I 0 W/m 1,1 C -3,4 C 19,3 km/h (3 Bft) 100,00 %
01.03.2016 00:25 1,9 C 94 % 1012,8 hPa 0,0 l/m 16,9 km/h (3 Bft) S-SW 200 0 min 0,000 mm 0,0 UV-I 0 W/m 1,0 C -5,7 C 22,5 km/h (4 Bft) 96,30 %
01.03.2016 00:26 1,9 C 94 % 1012,8 hPa 0,0 l/m 16,2 km/h (3 Bft) W-SW 238 0 min 0,000 mm 0,0 UV-I 0 W/m 1,0 C -5,3 C 24,1 km/h (4 Bft) 95,65 %
01.03.2016 00:27 1,9 C 94 % 1012,8 hPa 0,0 l/m 14,8 km/h (3 Bft) S-SW 204 0 min 0,000 mm 0,0 UV-I 0 W/m 1,0 C -4,6 C 20,9 km/h (4 Bft) 100,00 %
01.03.2016 00:28 1,9 C 94 % 1012,9 hPa 0,0 l/m 15,1 km/h (3 Bft) W-NW 287 0 min 0,000 mm 0,0 UV-I 0 W/m 1,0 C -4,7 C 19,3 km/h (3 Bft) 100,00 %
01.03.2016 00:29 1,9 C 94 % 1012,9 hPa 0,0 l/m 13,1 km/h (3 Bft) W 262 0 min 0,000 mm 0,0 UV-I 0 W/m 1,0 C -3,5 C 19,3 km/h (3 Bft) 100,00 %
01.03.2016 00:30 1,9 C 94 % 1012,9 hPa 0,0 l/m 14,2 km/h (3 Bft) SW 221 0 min 0,000 mm 0,0 UV-I 0 W/m 1,0 C -4,2 C 24,1 km/h (4 Bft) 100,00 %
01.03.2016 00:31 1,9 C 94 % 1012,9 hPa 0,0 l/m 18,5 km/h (3 Bft) SW 228 0 min 0,000 mm 0,0 UV-I 0 W/m 1,0 C -6,5 C 25,7 km/h (4 Bft) 96,15 %
01.03.2016 00:32 1,9 C 94 % 1012,9 hPa 0,0 l/m 16,4 km/h (3 Bft) W-SW 245 0 min 0,000 mm 0,0 UV-I 0 W/m 1,0 C -5,4 C 19,3 km/h (3 Bft) 100,00 %
01.03.2016 00:33 1,9 C 94 % 1012,9 hPa 0,0 l/m 20,1 km/h (4 Bft) W 259 0 min 0,000 mm 0,0 UV-I 0 W/m 1,0 C -7,2 C 25,7 km/h (4 Bft) 100,00 %
01.03.2016 00:34 1,9 C 94 % 1012,9 hPa 0,0 l/m 14,2 km/h (3 Bft) W 263 0 min 0,000 mm 0,0 UV-I 0 W/m 1,0 C -4,2 C 20,9 km/h (4 Bft) 96,67 %
01.03.2016 00:35 1,9 C 94 % 1012,9 hPa 0,0 l/m 15,3 km/h (3 Bft) W-SW 238 0 min 0,000 mm 0,0 UV-I 0 W/m 1,0 C -4,8 C 20,9 km/h (4 Bft) 95,65 %
01.03.2016 00:36 1,9 C 94 % 1013,0 hPa 0,0 l/m 20,3 km/h (4 Bft) W-SW 238 0 min 0,000 mm 0,0 UV-I 0 W/m 1,0 C -7,3 C 27,4 km/h (4 Bft) 100,00 %
01.03.2016 00:37 1,9 C 94 % 1013,0 hPa 0,2 l/m 18,5 km/h (3 Bft) SW 215 0 min 0,000 mm 0,0 UV-I 0 W/m 1,0 C -6,5 C 24,1 km/h (4 Bft) 100,00 %
01.03.2016 00:38 1,9 C 94 % 1013,0 hPa 0,0 l/m 18,4 km/h (3 Bft) W-SW 248 0 min 0,000 mm 0,0 UV-I 0 W/m 1,0 C -6,4 C 25,7 km/h (4 Bft) 100,00 %
01.03.2016 00:39 1,9 C 94 % 1013,0 hPa 0,0 l/m 14,3 km/h (3 Bft) W-SW 257 0 min 0,000 mm 0,0 UV-I 0 W/m 1,0 C -4,3 C 19,3 km/h (3 Bft) 100,00 %
01.03.2016 00:40 1,9 C 94 % 1013,0 hPa 0,0 l/m 16,2 km/h (3 Bft) W 268 0 min 0,000 mm 0,0 UV-I 0 W/m 1,0 C -5,3 C 24,1 km/h (4 Bft) 100,00 %
01.03.2016 00:41 1,9 C 94 % 1013,0 hPa 0,0 l/m 16,3 km/h (3 Bft) W-SW 240 0 min 0,000 mm 0,0 UV-I 0 W/m 1,0 C -5,4 C 19,3 km/h (3 Bft) 100,00 %
01.03.2016 00:42 1,9 C 94 % 1013,0 hPa 0,0 l/m 18,4 km/h (3 Bft) W-SW 241 0 min 0,000 mm 0,0 UV-I 0 W/m 1,0 C -6,4 C 22,5 km/h (4 Bft) 100,00 %
01.03.2016 00:43 1,9 C 94 % 1013,0 hPa 0,0 l/m 16,7 km/h (3 Bft) W-SW 239 0 min 0,000 mm 0,0 UV-I 0 W/m 1,0 C -5,6 C 24,1 km/h (4 Bft) 95,65 %
01.03.2016 00:44 1,9 C 94 % 1013,0 hPa 0,0 l/m 17,4 km/h (3 Bft) W-SW 250 0 min 0,000 mm 0,0 UV-I 0 W/m 1,0 C -6,0 C 24,1 km/h (4 Bft) 100,00 %
01.03.2016 00:45 1,9 C 94 % 1013,0 hPa 0,0 l/m 14,6 km/h (3 Bft) W 265 0 min 0,000 mm 0,0 UV-I 0 W/m 1,0 C -4,4 C 22,5 km/h (4 Bft) 98,74 %
01.03.2016 00:46 1,9 C 94 % 1013,0 hPa 0,0 l/m 13,8 km/h (3 Bft) SW 236 0 min 0,000 mm 0,0 UV-I 0 W/m 1,0 C -4,0 C 19,3 km/h (3 Bft) 100,00 %
01.03.2016 00:47 1,8 C 94 % 1013,1 hPa 0,0 l/m 11,4 km/h (2 Bft) W-NW 297 0 min 0,000 mm 0,0 UV-I 0 W/m 0,9 C -2,5 C 16,1 km/h (3 Bft) 100,00 %
01.03.2016 00:48 1,9 C 94 % 1013,1 hPa 0,0 l/m 16,0 km/h (3 Bft) S-SW 209 0 min 0,000 mm 0,0 UV-I 0 W/m 1,0 C -5,2 C 24,1 km/h (4 Bft) 100,00 %
01.03.2016 00:49 1,8 C 94 % 1013,1 hPa 0,0 l/m 15,9 km/h (3 Bft) W-SW 240 0 min 0,000 mm 0,0 UV-I 0 W/m 0,9 C -5,3 C 20,9 km/h (4 Bft) 98,84 %
01.03.2016 00:50 1,8 C 94 % 1013,1 hPa 0,0 l/m 14,2 km/h (3 Bft) W 272 0 min 0,000 mm 0,0 UV-I 0 W/m 0,9 C -4,3 C 20,9 km/h (4 Bft) 97,56 %
01.03.2016 00:51 1,8 C 94 % 1013,1 hPa 0,0 l/m 17,0 km/h (3 Bft) SW 233 0 min 0,000 mm 0,0 UV-I 0 W/m 0,9 C -5,9 C 20,9 km/h (4 Bft) 100,00 %
01.03.2016 00:52 1,8 C 94 % 1013,1 hPa 0,0 l/m 12,7 km/h (3 Bft) SW 215 0 min 0,000 mm 0,0 UV-I 0 W/m 0,9 C -3,4 C 20,9 km/h (4 Bft) 100,00 %
01.03.2016 00:53 1,8 C 94 % 1013,1 hPa 0,0 l/m 11,1 km/h (2 Bft) SW 221 0 min 0,000 mm 0,0 UV-I 0 W/m 0,9 C -2,3 C 14,5 km/h (3 Bft) 100,00 %
01.03.2016 00:54 1,8 C 94 % 1013,1 hPa 0,0 l/m 13,1 km/h (3 Bft) SW 231 0 min 0,000 mm 0,0 UV-I 0 W/m 0,9 C -3,7 C 16,1 km/h (3 Bft) 100,00 %
01.03.2016 00:55 1,8 C 94 % 1013,1 hPa 0,0 l/m 12,2 km/h (2 Bft) SW 234 0 min 0,000 mm 0,0 UV-I 0 W/m 0,9 C -3,1 C 19,3 km/h (3 Bft) 100,00 %
01.03.2016 00:56 1,8 C 94 % 1013,2 hPa 0,0 l/m 12,6 km/h (3 Bft) W-SW 244 0 min 0,000 mm 0,0 UV-I 0 W/m 0,9 C -3,3 C 17,7 km/h (3 Bft) 95,65 %
01.03.2016 00:57 1,8 C 94 % 1013,1 hPa 0,0 l/m 15,5 km/h (3 Bft) SW 227 0 min 0,000 mm 0,0 UV-I 0 W/m 0,9 C -5,1 C 19,3 km/h (3 Bft) 100,00 %
01.03.2016 00:58 1,8 C 94 % 1013,2 hPa 0,0 l/m 16,0 km/h (3 Bft) W-SW 248 0 min 0,000 mm 0,0 UV-I 0 W/m 0,9 C -5,4 C 17,7 km/h (3 Bft) 100,00 %
01.03.2016 00:59 1,8 C 94 % 1013,2 hPa 0,0 l/m 13,1 km/h (3 Bft) W-SW 247 0 min 0,000 mm 0,0 UV-I 0 W/m 0,9 C -3,7 C 16,1 km/h (3 Bft) 100,00 %
01.03.2016 01:00 1,8 C 94 % 1013,2 hPa 0,0 l/m 13,5 km/h (3 Bft) W-SW 257 0 min 0,000 mm 0,0 UV-I 0 W/m 0,9 C -3,9 C 17,7 km/h (3 Bft) 100,00 %
01.03.2016 01:01 1,8 C 94 % 1013,2 hPa 0,0 l/m 13,8 km/h (3 Bft) W-SW 241 0 min 0,000 mm 0,0 UV-I 0 W/m 0,9 C -4,1 C 19,3 km/h (3 Bft) 100,00 %
01.03.2016 01:02 1,8 C 94 % 1013,2 hPa 0,0 l/m 16,1 km/h (3 Bft) W-SW 246 0 min 0,000 mm 0,0 UV-I 0 W/m 0,9 C -5,4 C 22,5 km/h (4 Bft) 100,00 %
01.03.2016 01:03 1,8 C 94 % 1013,2 hPa 0,0 l/m 18,6 km/h (3 Bft) SW 224 0 min 0,000 mm 0,0 UV-I 0 W/m 0,9 C -6,7 C 27,4 km/h (4 Bft) 100,00 %
01.03.2016 01:04 1,8 C 94 % 1013,2 hPa 0,0 l/m 19,4 km/h (3 Bft) W-SW 242 0 min 0,000 mm 0,0 UV-I 0 W/m 0,9 C -7,0 C 25,7 km/h (4 Bft) 100,00 %
01.03.2016 01:05 1,8 C 94 % 1013,3 hPa 0,0 l/m 17,6 km/h (3 Bft) W-SW 247 0 min 0,000 mm 0,0 UV-I 0 W/m 0,9 C -6,2 C 24,1 km/h (4 Bft) 100,00 %
01.03.2016 01:06 1,8 C 94 % 1013,3 hPa 0,0 l/m 15,0 km/h (3 Bft) SW 233 0 min 0,000 mm 0,0 UV-I 0 W/m 0,9 C -4,8 C 19,3 km/h (3 Bft) 100,00 %
01.03.2016 01:07 1,8 C 94 % 1013,3 hPa 0,0 l/m 12,5 km/h (3 Bft) S-SW 192 0 min 0,000 mm 0,0 UV-I 0 W/m 0,9 C -3,3 C 16,1 km/h (3 Bft) 100,00 %
01.03.2016 01:08 1,8 C 94 % 1013,3 hPa 0,0 l/m 15,6 km/h (3 Bft) S-SW 211 0 min 0,000 mm 0,0 UV-I 0 W/m 0,9 C -5,1 C 20,9 km/h (4 Bft) 100,00 %
01.03.2016 01:09 1,8 C 94 % 1013,4 hPa 0,0 l/m 15,1 km/h (3 Bft) SW 218 0 min 0,000 mm 0,0 UV-I 0 W/m 0,9 C -4,9 C 17,7 km/h (3 Bft) 100,00 %
01.03.2016 01:10 1,8 C 94 % 1013,3 hPa 0,0 l/m 20,9 km/h (4 Bft) SW 232 0 min 0,000 mm 0,0 UV-I 0 W/m 0,9 C -7,7 C 29,0 km/h (5 Bft) 100,00 %
01.03.2016 01:11 1,8 C 94 % 1013,3 hPa 0,0 l/m 21,4 km/h (4 Bft) W-SW 246 0 min 0,000 mm 0,0 UV-I 0 W/m 0,9 C -7,9 C 30,6 km/h (5 Bft) 95,65 %
01.03.2016 01:12 1,8 C 94 % 1013,4 hPa 0,0 l/m 16,3 km/h (3 Bft) W-SW 253 0 min 0,000 mm 0,0 UV-I 0 W/m 0,9 C -5,5 C 25,7 km/h (4 Bft) 96,55 %
01.03.2016 01:13 1,8 C 94 % 1013,3 hPa 0,0 l/m 18,3 km/h (3 Bft) W-SW 245 0 min 0,000 mm 0,0 UV-I 0 W/m 0,9 C -6,5 C 22,5 km/h (4 Bft) 100,00 %
01.03.2016 01:14 1,8 C 94 % 1013,4 hPa 0,0 l/m 20,9 km/h (4 Bft) SW 234 0 min 0,000 mm 0,0 UV-I 0 W/m 0,9 C -7,7 C 27,4 km/h (4 Bft) 100,00 %
01.03.2016 01:15 1,8 C 94 % 1013,4 hPa 0,0 l/m 15,0 km/h (3 Bft) SW 232 0 min 0,000 mm 0,0 UV-I 0 W/m 0,9 C -4,8 C 19,3 km/h (3 Bft) 100,00 %
01.03.2016 01:16 1,8 C 94 % 1013,4 hPa 0,0 l/m 16,7 km/h (3 Bft) SW 231 0 min 0,000 mm 0,0 UV-I 0 W/m 0,9 C -5,7 C 25,7 km/h (4 Bft) 100,00 %
01.03.2016 01:17 1,8 C 94 % 1013,4 hPa 0,0 l/m 17,6 km/h (3 Bft) W-SW 239 0 min 0,000 mm 0,0 UV-I 0 W/m 0,9 C -6,2 C 22,5 km/h (4 Bft) 90,91 %
01.03.2016 01:18 1,8 C 94 % 1013,3 hPa 0,0 l/m 18,3 km/h (3 Bft) W-SW 254 0 min 0,000 mm 0,0 UV-I 0 W/m 0,9 C -6,5 C 27,4 km/h (4 Bft) 100,00 %
01.03.2016 01:19 1,7 C 94 % 1013,4 hPa 0,0 l/m 16,1 km/h (3 Bft) W-SW 253 0 min 0,000 mm 0,0 UV-I 0 W/m 0,8 C -5,5 C 19,3 km/h (3 Bft) 100,00 %
01.03.2016 01:20 1,8 C 94 % 1013,4 hPa 0,0 l/m 14,6 km/h (3 Bft) W-SW 252 0 min 0,000 mm 0,0 UV-I 0 W/m 0,9 C -4,6 C 24,1 km/h (4 Bft) 100,00 %
01.03.2016 01:21 1,7 C 94 % 1013,4 hPa 0,0 l/m 18,2 km/h (3 Bft) W 261 0 min 0,000 mm 0,0 UV-I 0 W/m 0,8 C -6,6 C 25,7 km/h (4 Bft) 100,00 %
01.03.2016 01:22 1,7 C 94 % 1013,4 hPa 0,0 l/m 20,7 km/h (4 Bft) SW 223 0 min 0,000 mm 0,0 UV-I 0 W/m 0,8 C -7,7 C 29,0 km/h (5 Bft) 100,00 %
01.03.2016 01:23 1,8 C 94 % 1013,5 hPa 0,0 l/m 22,2 km/h (4 Bft) SW 236 0 min 0,000 mm 0,0 UV-I 0 W/m 0,9 C -8,2 C 27,4 km/h (4 Bft) 100,00 %
01.03.2016 01:24 1,7 C 94 % 1013,5 hPa 0,0 l/m 17,3 km/h (3 Bft) SW 225 0 min 0,000 mm 0,0 UV-I 0 W/m 0,8 C -6,2 C 24,1 km/h (4 Bft) 100,00 %
01.03.2016 01:25 1,7 C 94 % 1013,5 hPa 0,0 l/m 16,9 km/h (3 Bft) SW 232 0 min 0,000 mm 0,0 UV-I 0 W/m 0,8 C -6,0 C 20,9 km/h (4 Bft) 92,31 %
01.03.2016 01:26 1,8 C 94 % 1013,5 hPa 0,0 l/m 17,0 km/h (3 Bft) W-NW 284 0 min 0,000 mm 0,0 UV-I 0 W/m 0,9 C -5,9 C 20,9 km/h (4 Bft) 100,00 %
01.03.2016 01:27 1,7 C 94 % 1013,5 hPa 0,0 l/m 16,7 km/h (3 Bft) W-SW 239 0 min 0,000 mm 0,0 UV-I 0 W/m 0,8 C -5,9 C 24,1 km/h (4 Bft) 100,00 %
01.03.2016 01:28 1,7 C 94 % 1013,5 hPa 0,0 l/m 18,8 km/h (3 Bft) S-SW 213 0 min 0,000 mm 0,0 UV-I 0 W/m 0,8 C -6,9 C 29,0 km/h (5 Bft) 100,00 %
01.03.2016 01:29 1,7 C 94 % 1013,6 hPa 0,0 l/m 16,9 km/h (3 Bft) W-SW 248 0 min 0,000 mm 0,0 UV-I 0 W/m 0,8 C -6,0 C 22,5 km/h (4 Bft) 100,00 %
01.03.2016 01:30 1,7 C 94 % 1013,6 hPa 0,0 l/m 17,0 km/h (3 Bft) SW 232 0 min 0,000 mm 0,0 UV-I 0 W/m 0,8 C -6,0 C 24,1 km/h (4 Bft) 96,15 %
01.03.2016 01:31 1,7 C 94 % 1013,6 hPa 0,0 l/m 16,1 km/h (3 Bft) SW 227 0 min 0,000 mm 0,0 UV-I 0 W/m 0,8 C -5,5 C 22,5 km/h (4 Bft) 100,00 %
01.03.2016 01:32 1,7 C 94 % 1013,6 hPa 0,0 l/m 17,8 km/h (3 Bft) W-SW 251 0 min 0,000 mm 0,0 UV-I 0 W/m 0,8 C -6,4 C 25,7 km/h (4 Bft) 93,33 %
01.03.2016 01:33 1,7 C 94 % 1013,6 hPa 0,0 l/m 16,5 km/h (3 Bft) W-SW 256 0 min 0,000 mm 0,0 UV-I 0 W/m 0,8 C -5,7 C 25,7 km/h (4 Bft) 100,00 %
01.03.2016 01:34 1,7 C 94 % 1013,6 hPa 0,0 l/m 15,1 km/h (3 Bft) W-SW 244 0 min 0,000 mm 0,0 UV-I 0 W/m 0,8 C -5,0 C 22,5 km/h (4 Bft) 96,15 %
01.03.2016 01:35 1,7 C 94 % 1013,6 hPa 0,0 l/m 9,8 km/h (2 Bft) W-SW 247 0 min 0,000 mm 0,0 UV-I 0 W/m 0,8 C -1,4 C 14,5 km/h (3 Bft) 100,00 %
01.03.2016 01:36 1,7 C 94 % 1013,6 hPa 0,0 l/m 17,2 km/h (3 Bft) SW 228 0 min 0,000 mm 0,0 UV-I 0 W/m 0,8 C -6,1 C 25,7 km/h (4 Bft) 92,86 %
01.03.2016 01:37 1,7 C 94 % 1013,7 hPa 0,0 l/m 16,2 km/h (3 Bft) SW 232 0 min 0,000 mm 0,0 UV-I 0 W/m 0,8 C -5,6 C 20,9 km/h (4 Bft) 100,00 %
01.03.2016 01:38 1,7 C 94 % 1013,7 hPa 0,2 l/m 14,7 km/h (3 Bft) SW 214 0 min 0,000 mm 0,0 UV-I 0 W/m 0,8 C -4,7 C 20,9 km/h (4 Bft) 96,15 %
01.03.2016 01:39 1,7 C 94 % 1013,7 hPa 0,0 l/m 18,0 km/h (3 Bft) W 260 0 min 0,000 mm 0,0 UV-I 0 W/m 0,8 C -6,5 C 24,1 km/h (4 Bft) 91,67 %
01.03.2016 01:40 1,7 C 94 % 1013,6 hPa 0,0 l/m 19,6 km/h (3 Bft) W-SW 257 0 min 0,000 mm 0,0 UV-I 0 W/m 0,8 C -7,3 C 25,7 km/h (4 Bft) 100,00 %
01.03.2016 01:41 1,7 C 94 % 1013,7 hPa 0,0 l/m 15,0 km/h (3 Bft) SW 231 0 min 0,000 mm 0,0 UV-I 0 W/m 0,8 C -4,9 C 20,9 km/h (4 Bft) 93,33 %
01.03.2016 01:42 1,7 C 94 % 1013,7 hPa 0,0 l/m 15,3 km/h (3 Bft) S-SW 202 0 min 0,000 mm 0,0 UV-I 0 W/m 0,8 C -5,1 C 19,3 km/h (3 Bft) 100,00 %
01.03.2016 01:43 1,7 C 94 % 1013,7 hPa 0,0 l/m 17,1 km/h (3 Bft) W-SW 254 0 min 0,000 mm 0,0 UV-I 0 W/m 0,8 C -6,1 C 22,5 km/h (4 Bft) 96,30 %
01.03.2016 01:44 1,6 C 94 % 1013,7 hPa 0,0 l/m 11,8 km/h (2 Bft) W-SW 249 0 min 0,000 mm 0,0 UV-I 0 W/m 0,7 C -3,0 C 19,3 km/h (3 Bft) 92,31 %
01.03.2016 01:45 1,6 C 94 % 1013,7 hPa 0,0 l/m 13,3 km/h (3 Bft) W-SW 255 0 min 0,000 mm 0,0 UV-I 0 W/m 0,7 C -4,0 C 22,5 km/h (4 Bft) 96,30 %
01.03.2016 01:46 1,6 C 94 % 1013,8 hPa 0,0 l/m 14,8 km/h (3 Bft) S-SW 212 0 min 0,000 mm 0,0 UV-I 0 W/m 0,7 C -4,9 C 20,9 km/h (4 Bft) 91,67 %
01.03.2016 01:47 1,6 C 94 % 1013,8 hPa 0,0 l/m 18,2 km/h (3 Bft) SW 221 0 min 0,000 mm 0,0 UV-I 0 W/m 0,7 C -6,7 C 22,5 km/h (4 Bft) 92,86 %
01.03.2016 01:48 1,6 C 94 % 1013,8 hPa 0,0 l/m 17,3 km/h (3 Bft) W-SW 251 0 min 0,000 mm 0,0 UV-I 0 W/m 0,7 C -6,3 C 24,1 km/h (4 Bft) 97,56 %
01.03.2016 01:49 1,6 C 94 % 1013,8 hPa 0,0 l/m 14,3 km/h (3 Bft) W-SW 244 0 min 0,000 mm 0,0 UV-I 0 W/m 0,7 C -4,6 C 17,7 km/h (3 Bft) 100,00 %
01.03.2016 01:50 1,6 C 94 % 1013,8 hPa 0,0 l/m 17,8 km/h (3 Bft) SW 234 0 min 0,000 mm 0,0 UV-I 0 W/m 0,7 C -6,5 C 24,1 km/h (4 Bft) 91,67 %
01.03.2016 01:51 1,6 C 94 % 1013,9 hPa 0,0 l/m 20,0 km/h (4 Bft) S-SW 197 0 min 0,000 mm 0,0 UV-I 0 W/m 0,7 C -7,6 C 24,1 km/h (4 Bft) 96,55 %
01.03.2016 01:52 1,6 C 94 % 1013,8 hPa 0,0 l/m 16,7 km/h (3 Bft) W-SW 248 0 min 0,000 mm 0,0 UV-I 0 W/m 0,7 C -6,0 C 24,1 km/h (4 Bft) 96,30 %
01.03.2016 01:53 1,6 C 94 % 1013,9 hPa 0,0 l/m 13,9 km/h (3 Bft) S-SW 213 0 min 0,000 mm 0,0 UV-I 0 W/m 0,7 C -4,4 C 20,9 km/h (4 Bft) 96,15 %
01.03.2016 01:54 1,6 C 94 % 1013,9 hPa 0,0 l/m 16,2 km/h (3 Bft) SW 229 0 min 0,000 mm 0,0 UV-I 0 W/m 0,7 C -5,7 C 20,9 km/h (4 Bft) 100,00 %
01.03.2016 01:55 1,5 C 94 % 1013,9 hPa 0,0 l/m 15,9 km/h (3 Bft) SW 219 0 min 0,000 mm 0,0 UV-I 0 W/m 0,6 C -5,7 C 17,7 km/h (3 Bft) 96,88 %
01.03.2016 01:56 1,6 C 94 % 1013,9 hPa 0,0 l/m 17,1 km/h (3 Bft) SW 223 0 min 0,000 mm 0,0 UV-I 0 W/m 0,7 C -6,2 C 32,2 km/h (5 Bft) 100,00 %
01.03.2016 01:57 1,5 C 94 % 1013,9 hPa 0,0 l/m 18,1 km/h (3 Bft) W-SW 251 0 min 0,000 mm 0,0 UV-I 0 W/m 0,6 C -6,8 C 29,0 km/h (5 Bft) 96,15 %
01.03.2016 01:58 1,5 C 94 % 1013,9 hPa 0,0 l/m 18,0 km/h (3 Bft) S-SW 211 0 min 0,000 mm 0,0 UV-I 0 W/m 0,6 C -6,8 C 25,7 km/h (4 Bft) 100,00 %
01.03.2016 01:59 1,5 C 94 % 1013,9 hPa 0,0 l/m 19,4 km/h (3 Bft) SW 225 0 min 0,000 mm 0,0 UV-I 0 W/m 0,6 C -7,4 C 29,0 km/h (5 Bft) 91,30 %
01.03.2016 02:00 1,5 C 94 % 1013,9 hPa 0,0 l/m 17,3 km/h (3 Bft) W 273 0 min 0,000 mm 0,0 UV-I 0 W/m 0,6 C -6,4 C 22,5 km/h (4 Bft) 96,30 %
01.03.2016 02:01 1,4 C 94 % 1013,9 hPa 0,0 l/m 17,5 km/h (3 Bft) SW 222 0 min 0,000 mm 0,0 UV-I 0 W/m 0,5 C -6,6 C 20,9 km/h (4 Bft) 88,24 %
01.03.2016 02:02 1,5 C 94 % 1013,9 hPa 0,0 l/m 19,3 km/h (3 Bft) W-SW 252 0 min 0,000 mm 0,0 UV-I 0 W/m 0,6 C -7,4 C 25,7 km/h (4 Bft) 100,00 %
01.03.2016 02:03 1,5 C 94 % 1014,0 hPa 0,0 l/m 11,2 km/h (2 Bft) SW 234 0 min 0,000 mm 0,0 UV-I 0 W/m 0,6 C -2,7 C 14,5 km/h (3 Bft) 96,15 %
01.03.2016 02:04 1,4 C 94 % 1014,0 hPa 0,0 l/m 11,0 km/h (2 Bft) SW 236 0 min 0,000 mm 0,0 UV-I 0 W/m 0,5 C -2,7 C 14,5 km/h (3 Bft) 100,00 %
01.03.2016 02:05 1,4 C 94 % 1014,0 hPa 0,0 l/m 12,8 km/h (3 Bft) W-SW 239 0 min 0,000 mm 0,0 UV-I 0 W/m 0,5 C -3,9 C 17,7 km/h (3 Bft) 96,15 %
01.03.2016 02:06 1,4 C 94 % 1014,0 hPa 0,0 l/m 14,4 km/h (3 Bft) S-SW 196 0 min 0,000 mm 0,0 UV-I 0 W/m 0,5 C -4,9 C 19,3 km/h (3 Bft) 100,00 %
01.03.2016 02:07 1,4 C 94 % 1014,0 hPa 0,0 l/m 16,6 km/h (3 Bft) W 263 0 min 0,000 mm 0,0 UV-I 0 W/m 0,5 C -6,2 C 25,7 km/h (4 Bft) 100,00 %
01.03.2016 02:08 1,4 C 94 % 1013,9 hPa 0,0 l/m 18,8 km/h (3 Bft) W-SW 254 0 min 0,000 mm 0,0 UV-I 0 W/m 0,5 C -7,3 C 25,7 km/h (4 Bft) 100,00 %
01.03.2016 02:09 1,4 C 94 % 1013,9 hPa 0,0 l/m 16,2 km/h (3 Bft) W-SW 239 0 min 0,000 mm 0,0 UV-I 0 W/m 0,5 C -6,0 C 22,5 km/h (4 Bft) 100,00 %
01.03.2016 02:10 1,4 C 94 % 1013,9 hPa 0,0 l/m 17,0 km/h (3 Bft) SW 230 0 min 0,000 mm 0,0 UV-I 0 W/m 0,5 C -6,4 C 27,4 km/h (4 Bft) 100,00 %
01.03.2016 02:11 1,4 C 94 % 1013,9 hPa 0,0 l/m 16,2 km/h (3 Bft) W 262 0 min 0,000 mm 0,0 UV-I 0 W/m 0,5 C -6,0 C 19,3 km/h (3 Bft) 96,15 %
01.03.2016 02:12 1,4 C 94 % 1013,9 hPa 0,0 l/m 16,3 km/h (3 Bft) W-SW 252 0 min 0,000 mm 0,0 UV-I 0 W/m 0,5 C -6,0 C 24,1 km/h (4 Bft) 100,00 %
01.03.2016 02:13 1,4 C 94 % 1014,0 hPa 0,0 l/m 18,2 km/h (3 Bft) W-SW 245 0 min 0,000 mm 0,0 UV-I 0 W/m 0,5 C -7,0 C 27,4 km/h (4 Bft) 100,00 %
01.03.2016 02:14 1,4 C 94 % 1013,9 hPa 0,0 l/m 21,5 km/h (4 Bft) W 266 0 min 0,000 mm 0,0 UV-I 0 W/m 0,5 C -8,5 C 30,6 km/h (5 Bft) 100,00 %
01.03.2016 02:15 1,4 C 94 % 1013,9 hPa 0,0 l/m 18,0 km/h (3 Bft) SW 230 0 min 0,000 mm 0,0 UV-I 0 W/m 0,5 C -6,9 C 25,7 km/h (4 Bft) 96,30 %
01.03.2016 02:16 1,4 C 94 % 1013,9 hPa 0,0 l/m 16,3 km/h (3 Bft) W 269 0 min 0,000 mm 0,0 UV-I 0 W/m 0,5 C -6,0 C 19,3 km/h (3 Bft) 100,00 %
01.03.2016 02:17 1,4 C 94 % 1013,9 hPa 0,0 l/m 14,7 km/h (3 Bft) SW 229 0 min 0,000 mm 0,0 UV-I 0 W/m 0,5 C -5,1 C 19,3 km/h (3 Bft) 100,00 %
01.03.2016 02:18 1,4 C 94 % 1013,9 hPa 0,0 l/m 17,5 km/h (3 Bft) SW 231 0 min 0,000 mm 0,0 UV-I 0 W/m 0,5 C -6,6 C 24,1 km/h (4 Bft) 100,00 %
01.03.2016 02:19 1,4 C 94 % 1013,9 hPa 0,0 l/m 16,6 km/h (3 Bft) SW 221 0 min 0,000 mm 0,0 UV-I 0 W/m 0,5 C -6,2 C 24,1 km/h (4 Bft) 100,00 %
01.03.2016 02:20 1,4 C 94 % 1013,9 hPa 0,0 l/m 21,2 km/h (4 Bft) W-SW 243 0 min 0,000 mm 0,0 UV-I 0 W/m 0,5 C -8,3 C 27,4 km/h (4 Bft) 100,00 %
01.03.2016 02:21 1,4 C 94 % 1013,8 hPa 0,0 l/m 20,3 km/h (4 Bft) SW 230 0 min 0,000 mm 0,0 UV-I 0 W/m 0,5 C -8,0 C 27,4 km/h (4 Bft) 100,00 %
01.03.2016 02:22 1,4 C 94 % 1013,8 hPa 0,0 l/m 18,6 km/h (3 Bft) SW 236 0 min 0,000 mm 0,0 UV-I 0 W/m 0,5 C -7,2 C 24,1 km/h (4 Bft) 98,48 %
01.03.2016 02:23 1,4 C 94 % 1013,8 hPa 0,0 l/m 17,2 km/h (3 Bft) SW 227 0 min 0,000 mm 0,0 UV-I 0 W/m 0,5 C -6,5 C 24,1 km/h (4 Bft) 100,00 %
01.03.2016 02:24 1,3 C 94 % 1013,8 hPa 0,0 l/m 16,4 km/h (3 Bft) W-SW 244 0 min 0,000 mm 0,0 UV-I 0 W/m 0,4 C -6,2 C 24,1 km/h (4 Bft) 100,00 %
01.03.2016 02:25 1,4 C 94 % 1013,8 hPa 0,0 l/m 20,3 km/h (4 Bft) SW 214 0 min 0,000 mm 0,0 UV-I 0 W/m 0,5 C -8,0 C 29,0 km/h (5 Bft) 100,00 %
01.03.2016 02:26 1,4 C 94 % 1013,8 hPa 0,0 l/m 24,2 km/h (4 Bft) SW 229 0 min 0,000 mm 0,0 UV-I 0 W/m 0,5 C -9,5 C 35,4 km/h (5 Bft) 100,00 %
01.03.2016 02:27 1,3 C 94 % 1013,8 hPa 0,2 l/m 22,0 km/h (4 Bft) SW 232 0 min 0,000 mm 0,0 UV-I 0 W/m 0,4 C -8,8 C 29,0 km/h (5 Bft) 96,88 %
01.03.2016 02:28 1,3 C 94 % 1013,8 hPa 0,0 l/m 21,0 km/h (4 Bft) S 191 0 min 0,000 mm 0,0 UV-I 0 W/m 0,4 C -8,4 C 25,7 km/h (4 Bft) 100,00 %
01.03.2016 02:29 1,3 C 94 % 1013,8 hPa 0,0 l/m 19,6 km/h (3 Bft) SW 229 0 min 0,000 mm 0,0 UV-I 0 W/m 0,4 C -7,8 C 25,7 km/h (4 Bft) 100,00 %
01.03.2016 02:30 1,3 C 94 % 1013,8 hPa 0,0 l/m 20,2 km/h (4 Bft) SW 221 0 min 0,000 mm 0,0 UV-I 0 W/m 0,4 C -8,0 C 25,7 km/h (4 Bft) 100,00 %
01.03.2016 02:31 1,3 C 94 % 1013,8 hPa 0,0 l/m 20,4 km/h (4 Bft) W 281 0 min 0,000 mm 0,0 UV-I 0 W/m 0,4 C -8,1 C 24,1 km/h (4 Bft) 100,00 %
01.03.2016 02:32 1,3 C 94 % 1013,8 hPa 0,0 l/m 19,5 km/h (3 Bft) W-SW 250 0 min 0,000 mm 0,0 UV-I 0 W/m 0,4 C -7,7 C 30,6 km/h (5 Bft) 100,00 %
01.03.2016 02:33 1,3 C 93 % 1013,8 hPa 0,0 l/m 17,8 km/h (3 Bft) S-SW 202 0 min 0,000 mm 0,0 UV-I 0 W/m 0,3 C -6,9 C 24,1 km/h (4 Bft) 100,00 %
01.03.2016 02:34 1,3 C 94 % 1013,8 hPa 0,0 l/m 20,4 km/h (4 Bft) W-SW 254 0 min 0,000 mm 0,0 UV-I 0 W/m 0,4 C -8,1 C 25,7 km/h (4 Bft) 100,00 %
01.03.2016 02:35 1,3 C 94 % 1013,7 hPa 0,0 l/m 19,5 km/h (3 Bft) W-SW 242 0 min 0,000 mm 0,0 UV-I 0 W/m 0,4 C -7,7 C 29,0 km/h (5 Bft) 100,00 %
01.03.2016 02:36 1,3 C 93 % 1013,8 hPa 0,0 l/m 20,3 km/h (4 Bft) SW 217 0 min 0,000 mm 0,0 UV-I 0 W/m 0,3 C -8,1 C 29,0 km/h (5 Bft) 100,00 %
01.03.2016 02:37 1,3 C 93 % 1013,8 hPa 0,0 l/m 18,1 km/h (3 Bft) W-SW 254 0 min 0,000 mm 0,0 UV-I 0 W/m 0,3 C -7,1 C 24,1 km/h (4 Bft) 100,00 %
01.03.2016 02:38 1,3 C 93 % 1013,8 hPa 0,0 l/m 17,7 km/h (3 Bft) SW 235 0 min 0,000 mm 0,0 UV-I 0 W/m 0,3 C -6,9 C 25,7 km/h (4 Bft) 100,00 %
01.03.2016 02:39 1,3 C 93 % 1013,8 hPa 0,0 l/m 18,9 km/h (3 Bft) W-SW 254 0 min 0,000 mm 0,0 UV-I 0 W/m 0,3 C -7,4 C 27,4 km/h (4 Bft) 92,86 %
01.03.2016 02:40 1,3 C 94 % 1013,8 hPa 0,0 l/m 14,2 km/h (3 Bft) W-SW 243 0 min 0,000 mm 0,0 UV-I 0 W/m 0,4 C -4,9 C 17,7 km/h (3 Bft) 96,30 %
01.03.2016 02:41 1,3 C 94 % 1013,8 hPa 0,0 l/m 14,0 km/h (3 Bft) S-SW 206 0 min 0,000 mm 0,0 UV-I 0 W/m 0,4 C -4,8 C 19,3 km/h (3 Bft) 100,00 %
01.03.2016 02:42 1,3 C 94 % 1013,8 hPa 0,0 l/m 16,5 km/h (3 Bft) SW 225 0 min 0,000 mm 0,0 UV-I 0 W/m 0,4 C -6,2 C 19,3 km/h (3 Bft) 100,00 %
01.03.2016 02:43 1,3 C 94 % 1013,8 hPa 0,0 l/m 19,2 km/h (3 Bft) S-SW 213 0 min 0,000 mm 0,0 UV-I 0 W/m 0,4 C -7,6 C 24,1 km/h (4 Bft) 100,00 %
01.03.2016 02:44 1,3 C 94 % 1013,8 hPa 0,0 l/m 20,8 km/h (4 Bft) W-SW 239 0 min 0,000 mm 0,0 UV-I 0 W/m 0,4 C -8,3 C 29,0 km/h (5 Bft) 100,00 %
01.03.2016 02:45 1,3 C 94 % 1013,8 hPa 0,0 l/m 16,1 km/h (3 Bft) W-SW 252 0 min 0,000 mm 0,0 UV-I 0 W/m 0,4 C -6,0 C 22,5 km/h (4 Bft) 100,00 %
01.03.2016 02:46 1,3 C 94 % 1013,8 hPa 0,0 l/m 18,7 km/h (3 Bft) W-SW 246 0 min 0,000 mm 0,0 UV-I 0 W/m 0,4 C -7,4 C 25,7 km/h (4 Bft) 100,00 %
01.03.2016 02:47 1,3 C 94 % 1013,9 hPa 0,0 l/m 15,3 km/h (3 Bft) W-SW 245 0 min 0,000 mm 0,0 UV-I 0 W/m 0,4 C -5,6 C 24,1 km/h (4 Bft) 100,00 %
01.03.2016 02:48 1,3 C 93 % 1013,9 hPa 0,0 l/m 17,6 km/h (3 Bft) S-SW 196 0 min 0,000 mm 0,0 UV-I 0 W/m 0,3 C -6,8 C 25,7 km/h (4 Bft) 100,00 %
01.03.2016 02:49 1,3 C 93 % 1013,9 hPa 0,0 l/m 15,4 km/h (3 Bft) SW 236 0 min 0,000 mm 0,0 UV-I 0 W/m 0,3 C -5,6 C 24,1 km/h (4 Bft) 100,00 %
01.03.2016 02:50 1,3 C 93 % 1013,9 hPa 0,0 l/m 20,6 km/h (4 Bft) SW 220 0 min 0,000 mm 0,0 UV-I 0 W/m 0,3 C -8,2 C 25,7 km/h (4 Bft) 100,00 %
01.03.2016 02:51 1,3 C 93 % 1013,9 hPa 0,0 l/m 16,7 km/h (3 Bft) S 190 0 min 0,000 mm 0,0 UV-I 0 W/m 0,3 C -6,3 C 24,1 km/h (4 Bft) 97,37 %
01.03.2016 02:52 1,3 C 93 % 1013,9 hPa 0,0 l/m 17,4 km/h (3 Bft) W-SW 254 0 min 0,000 mm 0,0 UV-I 0 W/m 0,3 C -6,7 C 25,7 km/h (4 Bft) 98,65 %
01.03.2016 02:53 1,3 C 93 % 1013,8 hPa 0,0 l/m 17,5 km/h (3 Bft) W-SW 250 0 min 0,000 mm 0,0 UV-I 0 W/m 0,3 C -6,8 C 25,7 km/h (4 Bft) 100,00 %
01.03.2016 02:54 1,3 C 93 % 1013,8 hPa 0,0 l/m 12,9 km/h (3 Bft) W 273 0 min 0,000 mm 0,0 UV-I 0 W/m 0,3 C -4,1 C 16,1 km/h (3 Bft) 92,31 %
01.03.2016 02:55 1,3 C 93 % 1013,8 hPa 0,0 l/m 11,7 km/h (2 Bft) S-SW 202 0 min 0,000 mm 0,0 UV-I 0 W/m 0,3 C -3,3 C 24,1 km/h (4 Bft) 98,62 %
01.03.2016 02:56 1,3 C 93 % 1013,9 hPa 0,0 l/m 16,5 km/h (3 Bft) W-SW 252 0 min 0,000 mm 0,0 UV-I 0 W/m 0,3 C -6,2 C 20,9 km/h (4 Bft) 100,00 %
01.03.2016 02:57 1,3 C 93 % 1013,9 hPa 0,0 l/m 17,4 km/h (3 Bft) W-SW 237 0 min 0,000 mm 0,0 UV-I 0 W/m 0,3 C -6,7 C 22,5 km/h (4 Bft) 96,30 %
01.03.2016 02:58 1,3 C 93 % 1013,9 hPa 0,0 l/m 13,3 km/h (3 Bft) SW 236 0 min 0,000 mm 0,0 UV-I 0 W/m 0,3 C -4,4 C 17,7 km/h (3 Bft) 100,00 %
01.03.2016 02:59 1,3 C 93 % 1013,8 hPa 0,0 l/m 19,9 km/h (4 Bft) W-SW 248 0 min 0,000 mm 0,0 UV-I 0 W/m 0,3 C -7,9 C 27,4 km/h (4 Bft) 100,00 %
01.03.2016 03:00 1,2 C 93 % 1013,8 hPa 0,0 l/m 19,4 km/h (3 Bft) SW 233 0 min 0,000 mm 0,0 UV-I 0 W/m 0,2 C -7,8 C 29,0 km/h (5 Bft) 100,00 %
01.03.2016 03:01 1,2 C 93 % 1013,9 hPa 0,0 l/m 20,2 km/h (4 Bft) S-SW 202 0 min 0,000 mm 0,0 UV-I 0 W/m 0,2 C -8,2 C 25,7 km/h (4 Bft) 100,00 %
01.03.2016 03:02 1,3 C 93 % 1013,9 hPa 0,0 l/m 17,9 km/h (3 Bft) W-SW 258 0 min 0,000 mm 0,0 UV-I 0 W/m 0,3 C -7,0 C 22,5 km/h (4 Bft) 100,00 %
01.03.2016 03:03 1,2 C 93 % 1013,8 hPa 0,0 l/m 16,1 km/h (3 Bft) W 261 0 min 0,000 mm 0,0 UV-I 0 W/m 0,2 C -6,1 C 24,1 km/h (4 Bft) 100,00 %
01.03.2016 03:04 1,2 C 93 % 1013,9 hPa 0,0 l/m 17,6 km/h (3 Bft) SW 231 0 min 0,000 mm 0,0 UV-I 0 W/m 0,2 C -6,9 C 22,5 km/h (4 Bft) 100,00 %
01.03.2016 03:05 1,2 C 93 % 1013,9 hPa 0,0 l/m 21,3 km/h (4 Bft) W 279 0 min 0,000 mm 0,0 UV-I 0 W/m 0,2 C -8,6 C 27,4 km/h (4 Bft) 100,00 %
01.03.2016 03:06 1,2 C 93 % 1013,8 hPa 0,0 l/m 18,2 km/h (3 Bft) SW 219 0 min 0,000 mm 0,0 UV-I 0 W/m 0,2 C -7,2 C 27,4 km/h (4 Bft) 100,00 %
01.03.2016 03:07 1,2 C 93 % 1013,8 hPa 0,0 l/m 19,7 km/h (3 Bft) W-SW 258 0 min 0,000 mm 0,0 UV-I 0 W/m 0,2 C -7,9 C 25,7 km/h (4 Bft) 100,00 %
01.03.2016 03:08 1,2 C 93 % 1013,8 hPa 0,0 l/m 17,0 km/h (3 Bft) W-SW 239 0 min 0,000 mm 0,0 UV-I 0 W/m 0,2 C -6,6 C 24,1 km/h (4 Bft) 100,00 %
01.03.2016 03:09 1,2 C 93 % 1013,9 hPa 0,0 l/m 17,0 km/h (3 Bft) S-SW 209 0 min 0,000 mm 0,0 UV-I 0 W/m 0,2 C -6,6 C 25,7 km/h (4 Bft) 100,00 %
01.03.2016 03:10 1,2 C 93 % 1013,9 hPa 0,0 l/m 16,4 km/h (3 Bft) W-SW 253 0 min 0,000 mm 0,0 UV-I 0 W/m 0,2 C -6,3 C 24,1 km/h (4 Bft) 100,00 %
01.03.2016 03:11 1,2 C 93 % 1013,8 hPa 0,0 l/m 17,7 km/h (3 Bft) SW 236 0 min 0,000 mm 0,0 UV-I 0 W/m 0,2 C -7,0 C 27,4 km/h (4 Bft) 100,00 %
01.03.2016 03:12 1,2 C 93 % 1013,9 hPa 0,0 l/m 21,3 km/h (4 Bft) W-SW 251 0 min 0,000 mm 0,0 UV-I 0 W/m 0,2 C -8,6 C 32,2 km/h (5 Bft) 100,00 %
01.03.2016 03:13 1,2 C 93 % 1013,8 hPa 0,0 l/m 18,2 km/h (3 Bft) W-SW 257 0 min 0,000 mm 0,0 UV-I 0 W/m 0,2 C -7,2 C 25,7 km/h (4 Bft) 100,00 %
01.03.2016 03:14 1,1 C 93 % 1013,8 hPa 0,0 l/m 19,2 km/h (3 Bft) W-SW 249 0 min 0,000 mm 0,0 UV-I 0 W/m 0,1 C -7,8 C 24,1 km/h (4 Bft) 100,00 %
01.03.2016 03:15 1,1 C 93 % 1013,8 hPa 0,0 l/m 18,1 km/h (3 Bft) SW 218 0 min 0,000 mm 0,0 UV-I 0 W/m 0,1 C -7,3 C 27,4 km/h (4 Bft) 100,00 %
01.03.2016 03:16 1,1 C 93 % 1013,8 hPa 0,0 l/m 17,1 km/h (3 Bft) W 268 0 min 0,000 mm 0,0 UV-I 0 W/m 0,1 C -6,8 C 19,3 km/h (3 Bft) 100,00 %
01.03.2016 03:17 1,1 C 93 % 1013,8 hPa 0,0 l/m 16,6 km/h (3 Bft) W-SW 258 0 min 0,000 mm 0,0 UV-I 0 W/m 0,1 C -6,5 C 22,5 km/h (4 Bft) 96,88 %
01.03.2016 03:18 1,1 C 93 % 1013,9 hPa 0,0 l/m 22,3 km/h (4 Bft) SW 220 0 min 0,000 mm 0,0 UV-I 0 W/m 0,1 C -9,2 C 27,4 km/h (4 Bft) 100,00 %
01.03.2016 03:19 1,1 C 93 % 1013,9 hPa 0,0 l/m 19,9 km/h (4 Bft) W 260 0 min 0,000 mm 0,0 UV-I 0 W/m 0,1 C -8,2 C 24,1 km/h (4 Bft) 100,00 %
01.03.2016 03:20 1,1 C 93 % 1014,0 hPa 0,0 l/m 16,7 km/h (3 Bft) W 259 0 min 0,000 mm 0,0 UV-I 0 W/m 0,1 C -6,6 C 24,1 km/h (4 Bft) 100,00 %
01.03.2016 03:21 1,1 C 93 % 1013,9 hPa 0,0 l/m 19,4 km/h (3 Bft) SW 216 0 min 0,000 mm 0,0 UV-I 0 W/m 0,1 C -7,9 C 27,4 km/h (4 Bft) 92,86 %
01.03.2016 03:22 1,0 C 93 % 1013,9 hPa 0,0 l/m 21,5 km/h (4 Bft) W-SW 257 0 min 0,000 mm 0,0 UV-I 0 W/m -0,0 C -9,0 C 33,8 km/h (5 Bft) 100,00 %
01.03.2016 03:23 1,0 C 93 % 1014,0 hPa 0,0 l/m 22,0 km/h (4 Bft) S 181 0 min 0,000 mm 0,0 UV-I 0 W/m -0,0 C -9,2 C 30,6 km/h (5 Bft) 100,00 %
01.03.2016 03:24 1,0 C 93 % 1014,0 hPa 0,0 l/m 18,8 km/h (3 Bft) SW 229 0 min 0,000 mm 0,0 UV-I 0 W/m -0,0 C -7,8 C 25,7 km/h (4 Bft) 100,00 %
01.03.2016 03:25 0,9 C 93 % 1014,0 hPa 0,0 l/m 14,8 km/h (3 Bft) W-SW 257 0 min 0,000 mm 0,0 UV-I 0 W/m -0,1 C -5,8 C 20,9 km/h (4 Bft) 100,00 %
01.03.2016 03:26 0,9 C 93 % 1013,9 hPa 0,0 l/m 20,1 km/h (4 Bft) W 265 0 min 0,000 mm 0,0 UV-I 0 W/m -0,1 C -8,5 C 27,4 km/h (4 Bft) 100,00 %
01.03.2016 03:27 0,9 C 93 % 1013,9 hPa 0,0 l/m 20,9 km/h (4 Bft) SW 229 0 min 0,000 mm 0,0 UV-I 0 W/m -0,1 C -8,9 C 29,0 km/h (5 Bft) 92,31 %
01.03.2016 03:28 0,9 C 93 % 1014,0 hPa 0,0 l/m 19,2 km/h (3 Bft) W-SW 249 0 min 0,000 mm 0,0 UV-I 0 W/m -0,1 C -8,1 C 29,0 km/h (5 Bft) 100,00 %
01.03.2016 03:29 0,9 C 93 % 1014,0 hPa 0,0 l/m 18,5 km/h (3 Bft) W-SW 253 0 min 0,000 mm 0,0 UV-I 0 W/m -0,1 C -7,8 C 27,4 km/h (4 Bft) 100,00 %
01.03.2016 03:30 0,9 C 93 % 1014,0 hPa 0,0 l/m 17,5 km/h (3 Bft) SW 219 0 min 0,000 mm 0,0 UV-I 0 W/m -0,1 C -7,3 C 22,5 km/h (4 Bft) 100,00 %
01.03.2016 03:31 0,9 C 93 % 1014,0 hPa 0,0 l/m 16,4 km/h (3 Bft) W-SW 255 0 min 0,000 mm 0,0 UV-I 0 W/m -0,1 C -6,7 C 25,7 km/h (4 Bft) 100,00 %
01.03.2016 03:32 0,9 C 93 % 1014,0 hPa 0,0 l/m 20,8 km/h (4 Bft) SW 234 0 min 0,000 mm 0,0 UV-I 0 W/m -0,1 C -8,8 C 27,4 km/h (4 Bft) 100,00 %
01.03.2016 03:33 0,9 C 93 % 1014,0 hPa 0,0 l/m 23,9 km/h (4 Bft) SW 225 0 min 0,000 mm 0,0 UV-I 0 W/m -0,1 C -10,1 C 37,0 km/h (5 Bft) 92,59 %
01.03.2016 03:34 0,9 C 93 % 1014,0 hPa 0,0 l/m 16,1 km/h (3 Bft) W-SW 243 0 min 0,000 mm 0,0 UV-I 0 W/m -0,1 C -6,5 C 22,5 km/h (4 Bft) 100,00 %
01.03.2016 03:35 0,9 C 93 % 1014,0 hPa 0,0 l/m 17,8 km/h (3 Bft) W-SW 243 0 min 0,000 mm 0,0 UV-I 0 W/m -0,1 C -7,4 C 25,7 km/h (4 Bft) 100,00 %
01.03.2016 03:36 0,9 C 93 % 1014,0 hPa 0,0 l/m 20,7 km/h (4 Bft) SW 232 0 min 0,000 mm 0,0 UV-I 0 W/m -0,1 C -8,8 C 27,4 km/h (4 Bft) 95,65 %
01.03.2016 03:37 0,9 C 93 % 1014,0 hPa 0,0 l/m 22,0 km/h (4 Bft) W-SW 254 0 min 0,000 mm 0,0 UV-I 0 W/m -0,1 C -9,3 C 29,0 km/h (5 Bft) 100,00 %
01.03.2016 03:38 0,9 C 93 % 1014,0 hPa 0,0 l/m 23,2 km/h (4 Bft) SW 223 0 min 0,000 mm 0,0 UV-I 0 W/m -0,1 C -9,8 C 33,8 km/h (5 Bft) 100,00 %
01.03.2016 03:39 0,9 C 93 % 1014,1 hPa 0,0 l/m 18,0 km/h (3 Bft) W-SW 246 0 min 0,000 mm 0,0 UV-I 0 W/m -0,1 C -7,5 C 33,8 km/h (5 Bft) 95,83 %
01.03.2016 03:40 0,8 C 93 % 1014,1 hPa 0,0 l/m 14,4 km/h (3 Bft) SW 225 0 min 0,000 mm 0,0 UV-I 0 W/m -0,2 C -5,7 C 19,3 km/h (3 Bft) 100,00 %
01.03.2016 03:41 0,9 C 93 % 1014,1 hPa 0,0 l/m 23,7 km/h (4 Bft) SW 229 0 min 0,000 mm 0,0 UV-I 0 W/m -0,1 C -10,0 C 32,2 km/h (5 Bft) 93,33 %
01.03.2016 03:42 0,9 C 93 % 1014,1 hPa 0,0 l/m 15,9 km/h (3 Bft) SW 232 0 min 0,000 mm 0,0 UV-I 0 W/m -0,1 C -6,4 C 22,5 km/h (4 Bft) 96,15 %
01.03.2016 03:43 0,8 C 93 % 1014,1 hPa 0,0 l/m 16,4 km/h (3 Bft) SW 236 0 min 0,000 mm 0,0 UV-I 0 W/m -0,2 C -6,8 C 22,5 km/h (4 Bft) 93,33 %
01.03.2016 03:44 0,8 C 93 % 1014,1 hPa 0,0 l/m 22,1 km/h (4 Bft) SW 228 0 min 0,000 mm 0,0 UV-I 0 W/m -0,2 C -9,5 C 30,6 km/h (5 Bft) 100,00 %
01.03.2016 03:45 0,8 C 93 % 1014,1 hPa 0,0 l/m 18,4 km/h (3 Bft) W-SW 250 0 min 0,000 mm 0,0 UV-I 0 W/m -0,2 C -7,8 C 24,1 km/h (4 Bft) 96,15 %
01.03.2016 03:46 0,8 C 93 % 1014,2 hPa 0,0 l/m 17,5 km/h (3 Bft) SW 217 0 min 0,000 mm 0,0 UV-I 0 W/m -0,2 C -7,4 C 30,6 km/h (5 Bft) 96,55 %
01.03.2016 03:47 0,8 C 93 % 1014,1 hPa 0,0 l/m 19,2 km/h (3 Bft) SW 229 0 min 0,000 mm 0,0 UV-I 0 W/m -0,2 C -8,2 C 24,1 km/h (4 Bft) 96,30 %
01.03.2016 03:48 0,8 C 93 % 1014,1 hPa 0,0 l/m 23,4 km/h (4 Bft) W 261 0 min 0,000 mm 0,0 UV-I 0 W/m -0,2 C -10,0 C 33,8 km/h (5 Bft) 95,65 %
01.03.2016 03:49 0,8 C 93 % 1014,1 hPa 0,0 l/m 16,7 km/h (3 Bft) SW 231 0 min 0,000 mm 0,0 UV-I 0 W/m -0,2 C -7,0 C 22,5 km/h (4 Bft) 100,00 %
01.03.2016 03:50 0,8 C 93 % 1014,2 hPa 0,0 l/m 24,5 km/h (4 Bft) SW 235 0 min 0,000 mm 0,0 UV-I 0 W/m -0,2 C -10,5 C 29,0 km/h (5 Bft) 96,30 %
01.03.2016 03:51 0,8 C 93 % 1014,1 hPa 0,0 l/m 20,9 km/h (4 Bft) S-SW 199 0 min 0,000 mm 0,0 UV-I 0 W/m -0,2 C -9,0 C 29,0 km/h (5 Bft) 100,00 %
01.03.2016 03:52 0,8 C 93 % 1014,1 hPa 0,0 l/m 18,5 km/h (3 Bft) S-SW 203 0 min 0,000 mm 0,0 UV-I 0 W/m -0,2 C -7,9 C 24,1 km/h (4 Bft) 92,59 %
01.03.2016 03:53 0,8 C 93 % 1014,1 hPa 0,0 l/m 20,0 km/h (4 Bft) SW 234 0 min 0,000 mm 0,0 UV-I 0 W/m -0,2 C -8,6 C 27,4 km/h (4 Bft) 100,00 %
01.03.2016 03:54 0,8 C 93 % 1014,1 hPa 0,0 l/m 23,8 km/h (4 Bft) W-SW 238 0 min 0,000 mm 0,0 UV-I 0 W/m -0,2 C -10,2 C 29,0 km/h (5 Bft) 95,83 %
01.03.2016 03:55 0,8 C 93 % 1014,1 hPa 0,0 l/m 19,2 km/h (3 Bft) W-SW 248 0 min 0,000 mm 0,0 UV-I 0 W/m -0,2 C -8,2 C 27,4 km/h (4 Bft) 100,00 %
01.03.2016 03:56 0,8 C 93 % 1014,1 hPa 0,0 l/m 17,5 km/h (3 Bft) W-SW 245 0 min 0,000 mm 0,0 UV-I 0 W/m -0,2 C -7,4 C 24,1 km/h (4 Bft) 96,30 %
01.03.2016 03:57 0,8 C 93 % 1014,1 hPa 0,0 l/m 16,8 km/h (3 Bft) SW 234 0 min 0,000 mm 0,0 UV-I 0 W/m -0,2 C -7,0 C 22,5 km/h (4 Bft) 96,15 %
01.03.2016 03:58 0,8 C 93 % 1014,0 hPa 0,0 l/m 19,1 km/h (3 Bft) W-SW 254 0 min 0,000 mm 0,0 UV-I 0 W/m -0,2 C -8,2 C 22,5 km/h (4 Bft) 100,00 %
01.03.2016 03:59 0,8 C 93 % 1014,1 hPa 0,0 l/m 19,2 km/h (3 Bft) SW 221 0 min 0,000 mm 0,0 UV-I 0 W/m -0,2 C -8,2 C 33,8 km/h (5 Bft) 95,65 %
01.03.2016 04:00 0,7 C 93 % 1014,1 hPa 0,0 l/m 20,0 km/h (4 Bft) S-SW 213 0 min 0,000 mm 0,0 UV-I 0 W/m -0,3 C -8,7 C 27,4 km/h (4 Bft) 100,00 %
01.03.2016 04:03 0,8 C 93 % 1014,1 hPa 0,0 l/m 21,0 km/h (4 Bft) SW 223 0 min 0,000 mm 0,0 UV-I 0 W/m -0,2 C -9,0 C 32,2 km/h (5 Bft) 96,36 %
01.03.2016 04:04 0,8 C 93 % 1014,1 hPa 0,0 l/m 21,3 km/h (4 Bft) SW 236 0 min 0,000 mm 0,0 UV-I 0 W/m -0,2 C -9,2 C 25,7 km/h (4 Bft) 88,89 %
01.03.2016 04:05 0,8 C 93 % 1014,1 hPa 0,0 l/m 23,7 km/h (4 Bft) W 260 0 min 0,000 mm 0,0 UV-I 0 W/m -0,2 C -10,1 C 38,6 km/h (5 Bft) 100,00 %
01.03.2016 04:06 0,8 C 93 % 1014,1 hPa 0,0 l/m 19,0 km/h (3 Bft) W-SW 253 0 min 0,000 mm 0,0 UV-I 0 W/m -0,2 C -8,1 C 27,4 km/h (4 Bft) 91,67 %
01.03.2016 04:07 0,8 C 93 % 1014,1 hPa 0,0 l/m 19,9 km/h (4 Bft) W-SW 237 0 min 0,000 mm 0,0 UV-I 0 W/m -0,2 C -8,6 C 29,0 km/h (5 Bft) 100,00 %
01.03.2016 04:08 0,8 C 93 % 1014,1 hPa 0,0 l/m 20,0 km/h (4 Bft) W-SW 252 0 min 0,000 mm 0,0 UV-I 0 W/m -0,2 C -8,6 C 29,0 km/h (5 Bft) 95,83 %
01.03.2016 04:09 0,7 C 93 % 1014,2 hPa 0,0 l/m 19,2 km/h (3 Bft) W-SW 237 0 min 0,000 mm 0,0 UV-I 0 W/m -0,3 C -8,4 C 30,6 km/h (5 Bft) 100,00 %
01.03.2016 04:10 0,8 C 93 % 1014,1 hPa 0,0 l/m 17,6 km/h (3 Bft) SW 233 0 min 0,000 mm 0,0 UV-I 0 W/m -0,2 C -7,4 C 29,0 km/h (5 Bft) 95,65 %
01.03.2016 04:11 0,8 C 93 % 1014,1 hPa 0,0 l/m 25,5 km/h (4 Bft) W-SW 251 0 min 0,000 mm 0,0 UV-I 0 W/m -0,2 C -10,8 C 33,8 km/h (5 Bft) 95,83 %
01.03.2016 04:12 0,8 C 93 % 1014,1 hPa 0,0 l/m 21,1 km/h (4 Bft) SW 236 0 min 0,000 mm 0,0 UV-I 0 W/m -0,2 C -9,1 C 35,4 km/h (5 Bft) 100,00 %
01.03.2016 04:13 0,7 C 93 % 1014,2 hPa 0,0 l/m 18,8 km/h (3 Bft) W 263 0 min 0,000 mm 0,0 UV-I 0 W/m -0,3 C -8,2 C 25,7 km/h (4 Bft) 96,30 %
01.03.2016 04:14 0,7 C 93 % 1014,2 hPa 0,0 l/m 17,9 km/h (3 Bft) W-SW 240 0 min 0,000 mm 0,0 UV-I 0 W/m -0,3 C -7,7 C 24,1 km/h (4 Bft) 100,00 %
01.03.2016 04:15 0,7 C 93 % 1014,1 hPa 0,0 l/m 19,6 km/h (3 Bft) W-SW 240 0 min 0,000 mm 0,0 UV-I 0 W/m -0,3 C -8,5 C 25,7 km/h (4 Bft) 100,00 %
01.03.2016 04:16 0,7 C 93 % 1014,2 hPa 0,0 l/m 20,7 km/h (4 Bft) W-SW 254 0 min 0,000 mm 0,0 UV-I 0 W/m -0,3 C -9,0 C 29,0 km/h (5 Bft) 100,00 %
01.03.2016 04:17 0,7 C 93 % 1014,2 hPa 0,0 l/m 22,1 km/h (4 Bft) W-SW 244 0 min 0,000 mm 0,0 UV-I 0 W/m -0,3 C -9,6 C 29,0 km/h (5 Bft) 96,67 %
01.03.2016 04:18 0,7 C 93 % 1014,2 hPa 0,0 l/m 19,7 km/h (3 Bft) W-SW 250 0 min 0,000 mm 0,0 UV-I 0 W/m -0,3 C -8,6 C 24,1 km/h (4 Bft) 100,00 %
01.03.2016 04:19 0,7 C 93 % 1014,2 hPa 0,0 l/m 19,5 km/h (3 Bft) W 265 0 min 0,000 mm 0,0 UV-I 0 W/m -0,3 C -8,5 C 29,0 km/h (5 Bft) 100,00 %
01.03.2016 04:20 0,7 C 93 % 1014,2 hPa 0,0 l/m 20,7 km/h (4 Bft) W-SW 244 0 min 0,000 mm 0,0 UV-I 0 W/m -0,3 C -9,0 C 30,6 km/h (5 Bft) 100,00 %
01.03.2016 04:21 0,7 C 93 % 1014,2 hPa 0,0 l/m 23,3 km/h (4 Bft) SW 236 0 min 0,000 mm 0,0 UV-I 0 W/m -0,3 C -10,1 C 29,0 km/h (5 Bft) 100,00 %
01.03.2016 04:22 0,7 C 93 % 1014,2 hPa 0,0 l/m 20,3 km/h (4 Bft) W-SW 250 0 min 0,000 mm 0,0 UV-I 0 W/m -0,3 C -8,9 C 30,6 km/h (5 Bft) 100,00 %
01.03.2016 04:23 0,7 C 93 % 1014,2 hPa 0,0 l/m 20,3 km/h (4 Bft) SW 230 0 min 0,000 mm 0,0 UV-I 0 W/m -0,3 C -8,9 C 27,4 km/h (4 Bft) 100,00 %
01.03.2016 04:24 0,7 C 93 % 1014,3 hPa 0,0 l/m 22,6 km/h (4 Bft) S-SW 205 0 min 0,000 mm 0,0 UV-I 0 W/m -0,3 C -9,8 C 30,6 km/h (5 Bft) 95,65 %
01.03.2016 04:25 0,7 C 93 % 1014,3 hPa 0,0 l/m 15,3 km/h (3 Bft) SW 227 0 min 0,000 mm 0,0 UV-I 0 W/m -0,3 C -6,3 C 25,7 km/h (4 Bft) 100,00 %
01.03.2016 04:26 0,7 C 93 % 1014,3 hPa 0,0 l/m 21,9 km/h (4 Bft) W-SW 242 0 min 0,000 mm 0,0 UV-I 0 W/m -0,3 C -9,6 C 32,2 km/h (5 Bft) 91,67 %
01.03.2016 04:27 0,7 C 93 % 1014,3 hPa 0,0 l/m 23,2 km/h (4 Bft) W 280 0 min 0,000 mm 0,0 UV-I 0 W/m -0,3 C -10,1 C 35,4 km/h (5 Bft) 100,00 %
01.03.2016 04:28 0,7 C 93 % 1014,3 hPa 0,0 l/m 19,5 km/h (3 Bft) SW 235 0 min 0,000 mm 0,0 UV-I 0 W/m -0,3 C -8,5 C 27,4 km/h (4 Bft) 100,00 %
01.03.2016 04:29 0,7 C 93 % 1014,3 hPa 0,0 l/m 17,8 km/h (3 Bft) W 262 0 min 0,000 mm 0,0 UV-I 0 W/m -0,3 C -7,7 C 24,1 km/h (4 Bft) 100,00 %
01.03.2016 04:30 0,7 C 93 % 1014,3 hPa 0,0 l/m 18,0 km/h (3 Bft) S-SW 209 0 min 0,000 mm 0,0 UV-I 0 W/m -0,3 C -7,8 C 25,7 km/h (4 Bft) 100,00 %
01.03.2016 04:31 0,7 C 93 % 1014,2 hPa 0,0 l/m 20,5 km/h (4 Bft) W-SW 239 0 min 0,000 mm 0,0 UV-I 0 W/m -0,3 C -9,0 C 27,4 km/h (4 Bft) 100,00 %
01.03.2016 04:32 0,7 C 93 % 1014,3 hPa 0,0 l/m 20,2 km/h (4 Bft) W 270 0 min 0,000 mm 0,0 UV-I 0 W/m -0,3 C -8,8 C 33,8 km/h (5 Bft) 100,00 %
01.03.2016 04:33 0,7 C 93 % 1014,3 hPa 0,0 l/m 20,7 km/h (4 Bft) S-SW 213 0 min 0,000 mm 0,0 UV-I 0 W/m -0,3 C -9,0 C 32,2 km/h (5 Bft) 100,00 %
01.03.2016 04:34 0,6 C 93 % 1014,3 hPa 0,0 l/m 19,0 km/h (3 Bft) W-SW 244 0 min 0,000 mm 0,0 UV-I 0 W/m -0,4 C -8,4 C 27,4 km/h (4 Bft) 100,00 %
01.03.2016 04:35 0,6 C 93 % 1014,3 hPa 0,0 l/m 21,6 km/h (4 Bft) W-SW 256 0 min 0,000 mm 0,0 UV-I 0 W/m -0,4 C -9,6 C 30,6 km/h (5 Bft) 100,00 %
01.03.2016 04:36 0,6 C 93 % 1014,3 hPa 0,0 l/m 20,8 km/h (4 Bft) SW 228 0 min 0,000 mm 0,0 UV-I 0 W/m -0,4 C -9,2 C 29,0 km/h (5 Bft) 100,00 %
01.03.2016 04:37 0,6 C 93 % 1014,3 hPa 0,0 l/m 17,9 km/h (3 Bft) W-SW 246 0 min 0,000 mm 0,0 UV-I 0 W/m -0,4 C -7,8 C 24,1 km/h (4 Bft) 100,00 %
01.03.2016 04:38 0,6 C 93 % 1014,3 hPa 0,0 l/m 15,4 km/h (3 Bft) SW 232 0 min 0,000 mm 0,0 UV-I 0 W/m -0,4 C -6,5 C 20,9 km/h (4 Bft) 95,83 %
01.03.2016 04:39 0,6 C 93 % 1014,3 hPa 0,0 l/m 18,7 km/h (3 Bft) S 190 0 min 0,000 mm 0,0 UV-I 0 W/m -0,4 C -8,2 C 29,0 km/h (5 Bft) 100,00 %
01.03.2016 04:40 0,6 C 93 % 1014,3 hPa 0,0 l/m 20,2 km/h (4 Bft) SW 227 0 min 0,000 mm 0,0 UV-I 0 W/m -0,4 C -8,9 C 25,7 km/h (4 Bft) 96,30 %
01.03.2016 04:41 0,6 C 93 % 1014,3 hPa 0,0 l/m 23,2 km/h (4 Bft) W 262 0 min 0,000 mm 0,0 UV-I 0 W/m -0,4 C -10,2 C 33,8 km/h (5 Bft) 100,00 %
01.03.2016 04:42 0,6 C 93 % 1014,3 hPa 0,0 l/m 20,2 km/h (4 Bft) SW 234 0 min 0,000 mm 0,0 UV-I 0 W/m -0,4 C -8,9 C 29,0 km/h (5 Bft) 96,30 %
01.03.2016 04:43 0,6 C 93 % 1014,3 hPa 0,0 l/m 19,1 km/h (3 Bft) SW 232 0 min 0,000 mm 0,0 UV-I 0 W/m -0,4 C -8,4 C 25,7 km/h (4 Bft) 100,00 %
01.03.2016 04:44 0,6 C 93 % 1014,4 hPa 0,0 l/m 20,6 km/h (4 Bft) SW 225 0 min 0,000 mm 0,0 UV-I 0 W/m -0,4 C -9,1 C 29,0 km/h (5 Bft) 100,00 %
01.03.2016 04:45 0,6 C 93 % 1014,4 hPa 0,0 l/m 15,9 km/h (3 Bft) SW 223 0 min 0,000 mm 0,0 UV-I 0 W/m -0,4 C -6,8 C 24,1 km/h (4 Bft) 100,00 %
01.03.2016 04:46 0,6 C 94 % 1014,4 hPa 0,0 l/m 20,5 km/h (4 Bft) W-SW 245 0 min 0,000 mm 0,0 UV-I 0 W/m -0,3 C -9,1 C 27,4 km/h (4 Bft) 100,00 %
01.03.2016 04:47 0,6 C 94 % 1014,4 hPa 0,0 l/m 17,4 km/h (3 Bft) SW 230 0 min 0,000 mm 0,0 UV-I 0 W/m -0,3 C -7,6 C 24,1 km/h (4 Bft) 100,00 %
01.03.2016 04:48 0,6 C 93 % 1014,4 hPa 0,0 l/m 16,5 km/h (3 Bft) SW 215 0 min 0,000 mm 0,0 UV-I 0 W/m -0,4 C -7,1 C 24,1 km/h (4 Bft) 96,15 %
01.03.2016 04:49 0,6 C 94 % 1014,5 hPa 0,0 l/m 20,3 km/h (4 Bft) W-SW 256 0 min 0,000 mm 0,0 UV-I 0 W/m -0,3 C -9,0 C 25,7 km/h (4 Bft) 100,00 %
01.03.2016 04:50 0,6 C 94 % 1014,5 hPa 0,0 l/m 19,0 km/h (3 Bft) SW 232 0 min 0,000 mm 0,0 UV-I 0 W/m -0,3 C -8,4 C 27,4 km/h (4 Bft) 100,00 %
01.03.2016 04:51 0,6 C 94 % 1014,5 hPa 0,0 l/m 17,7 km/h (3 Bft) SW 236 0 min 0,000 mm 0,0 UV-I 0 W/m -0,3 C -7,7 C 25,7 km/h (4 Bft) 100,00 %
01.03.2016 04:52 0,5 C 94 % 1014,6 hPa 0,0 l/m 18,5 km/h (3 Bft) SW 236 0 min 0,000 mm 0,0 UV-I 0 W/m -0,4 C -8,3 C 24,1 km/h (4 Bft) 100,00 %
01.03.2016 04:53 0,6 C 94 % 1014,6 hPa 0,0 l/m 21,2 km/h (4 Bft) SW 223 0 min 0,000 mm 0,0 UV-I 0 W/m -0,3 C -9,4 C 27,4 km/h (4 Bft) 100,00 %
01.03.2016 04:54 0,6 C 94 % 1014,6 hPa 0,0 l/m 27,2 km/h (4 Bft) W-SW 257 0 min 0,000 mm 0,0 UV-I 0 W/m -0,3 C -11,7 C 38,6 km/h (5 Bft) 100,00 %
01.03.2016 04:55 0,5 C 94 % 1014,6 hPa 0,0 l/m 23,8 km/h (4 Bft) W-SW 248 0 min 0,000 mm 0,0 UV-I 0 W/m -0,4 C -10,6 C 32,2 km/h (5 Bft) 100,00 %
01.03.2016 04:56 0,5 C 93 % 1014,7 hPa 0,0 l/m 23,2 km/h (4 Bft) SW 225 0 min 0,000 mm 0,0 UV-I 0 W/m -0,5 C -10,4 C 33,8 km/h (5 Bft) 96,15 %
01.03.2016 04:57 0,5 C 94 % 1014,7 hPa 0,0 l/m 21,5 km/h (4 Bft) W-SW 244 0 min 0,000 mm 0,0 UV-I 0 W/m -0,4 C -9,7 C 32,2 km/h (5 Bft) 100,00 %
01.03.2016 04:58 0,5 C 94 % 1014,7 hPa 0,0 l/m 21,1 km/h (4 Bft) W-SW 247 0 min 0,000 mm 0,0 UV-I 0 W/m -0,4 C -9,5 C 27,4 km/h (4 Bft) 100,00 %
01.03.2016 04:59 0,5 C 94 % 1014,7 hPa 0,0 l/m 20,4 km/h (4 Bft) W-SW 241 0 min 0,000 mm 0,0 UV-I 0 W/m -0,4 C -9,2 C 30,6 km/h (5 Bft) 100,00 %
01.03.2016 05:00 0,5 C 93 % 1014,7 hPa 0,0 l/m 18,2 km/h (3 Bft) W 263 0 min 0,000 mm 0,0 UV-I 0 W/m -0,5 C -8,1 C 33,8 km/h (5 Bft) 100,00 %
01.03.2016 05:01 0,5 C 93 % 1014,7 hPa 0,0 l/m 20,5 km/h (4 Bft) S-SW 196 0 min 0,000 mm 0,0 UV-I 0 W/m -0,5 C -9,2 C 27,4 km/h (4 Bft) 100,00 %
01.03.2016 05:02 0,5 C 93 % 1014,7 hPa 0,0 l/m 19,5 km/h (3 Bft) W-SW 243 0 min 0,000 mm 0,0 UV-I 0 W/m -0,5 C -8,8 C 27,4 km/h (4 Bft) 100,00 %
01.03.2016 05:03 0,4 C 93 % 1014,8 hPa 0,0 l/m 25,9 km/h (4 Bft) SW 231 0 min 0,000 mm 0,0 UV-I 0 W/m -0,6 C -11,5 C 37,0 km/h (5 Bft) 100,00 %
01.03.2016 05:04 0,5 C 93 % 1014,7 hPa 0,0 l/m 24,7 km/h (4 Bft) W-SW 251 0 min 0,000 mm 0,0 UV-I 0 W/m -0,5 C -10,9 C 32,2 km/h (5 Bft) 100,00 %
01.03.2016 05:05 0,5 C 93 % 1014,7 hPa 0,0 l/m 15,1 km/h (3 Bft) SW 229 0 min 0,000 mm 0,0 UV-I 0 W/m -0,5 C -6,4 C 22,5 km/h (4 Bft) 91,67 %
01.03.2016 05:06 0,4 C 93 % 1014,7 hPa 0,0 l/m 20,6 km/h (4 Bft) W-SW 250 0 min 0,000 mm 0,0 UV-I 0 W/m -0,6 C -9,4 C 27,4 km/h (4 Bft) 100,00 %
01.03.2016 05:07 0,4 C 93 % 1014,7 hPa 0,0 l/m 20,1 km/h (4 Bft) W-SW 247 0 min 0,000 mm 0,0 UV-I 0 W/m -0,6 C -9,2 C 29,0 km/h (5 Bft) 100,00 %
01.03.2016 05:08 0,4 C 93 % 1014,8 hPa 0,0 l/m 22,1 km/h (4 Bft) S-SW 212 0 min 0,000 mm 0,0 UV-I 0 W/m -0,6 C -10,0 C 29,0 km/h (5 Bft) 100,00 %
01.03.2016 05:09 0,4 C 93 % 1014,8 hPa 0,0 l/m 16,7 km/h (3 Bft) W-SW 242 0 min 0,000 mm 0,0 UV-I 0 W/m -0,6 C -7,5 C 24,1 km/h (4 Bft) 100,00 %
01.03.2016 05:10 0,4 C 93 % 1014,8 hPa 0,0 l/m 17,8 km/h (3 Bft) W-SW 254 0 min 0,000 mm 0,0 UV-I 0 W/m -0,6 C -8,0 C 24,1 km/h (4 Bft) 100,00 %
01.03.2016 05:11 0,4 C 93 % 1014,8 hPa 0,0 l/m 19,4 km/h (3 Bft) W 273 0 min 0,000 mm 0,0 UV-I 0 W/m -0,6 C -8,8 C 25,7 km/h (4 Bft) 100,00 %
01.03.2016 05:12 0,4 C 93 % 1014,8 hPa 0,0 l/m 13,2 km/h (3 Bft) S-SW 209 0 min 0,000 mm 0,0 UV-I 0 W/m -0,6 C -5,4 C 17,7 km/h (3 Bft) 100,00 %
01.03.2016 05:13 0,4 C 93 % 1014,8 hPa 0,0 l/m 24,1 km/h (4 Bft) SW 232 0 min 0,000 mm 0,0 UV-I 0 W/m -0,6 C -10,8 C 33,8 km/h (5 Bft) 100,00 %
01.03.2016 05:14 0,4 C 93 % 1014,9 hPa 0,0 l/m 16,4 km/h (3 Bft) SW 227 0 min 0,000 mm 0,0 UV-I 0 W/m -0,6 C -7,3 C 25,7 km/h (4 Bft) 100,00 %
01.03.2016 05:15 0,4 C 93 % 1014,9 hPa 0,0 l/m 15,2 km/h (3 Bft) SW 236 0 min 0,000 mm 0,0 UV-I 0 W/m -0,6 C -6,6 C 25,7 km/h (4 Bft) 100,00 %
01.03.2016 05:16 0,4 C 93 % 1014,9 hPa 0,0 l/m 17,4 km/h (3 Bft) SW 236 0 min 0,000 mm 0,0 UV-I 0 W/m -0,6 C -7,8 C 25,7 km/h (4 Bft) 100,00 %
01.03.2016 05:17 0,4 C 93 % 1014,9 hPa 0,0 l/m 20,8 km/h (4 Bft) W-SW 246 0 min 0,000 mm 0,0 UV-I 0 W/m -0,6 C -9,5 C 29,0 km/h (5 Bft) 100,00 %
01.03.2016 05:18 0,4 C 93 % 1015,0 hPa 0,0 l/m 20,7 km/h (4 Bft) SW 229 0 min 0,000 mm 0,0 UV-I 0 W/m -0,6 C -9,4 C 27,4 km/h (4 Bft) 100,00 %
01.03.2016 05:19 0,4 C 93 % 1014,9 hPa 0,0 l/m 21,2 km/h (4 Bft) SW 235 0 min 0,000 mm 0,0 UV-I 0 W/m -0,6 C -9,7 C 27,4 km/h (4 Bft) 100,00 %
01.03.2016 05:20 0,4 C 93 % 1015,0 hPa 0,0 l/m 15,0 km/h (3 Bft) SW 230 0 min 0,000 mm 0,0 UV-I 0 W/m -0,6 C -6,5 C 22,5 km/h (4 Bft) 100,00 %
01.03.2016 05:21 0,4 C 93 % 1015,0 hPa 0,0 l/m 17,6 km/h (3 Bft) W-SW 237 0 min 0,000 mm 0,0 UV-I 0 W/m -0,6 C -7,9 C 24,1 km/h (4 Bft) 100,00 %
01.03.2016 05:22 0,4 C 93 % 1015,0 hPa 0,0 l/m 20,1 km/h (4 Bft) SW 232 0 min 0,000 mm 0,0 UV-I 0 W/m -0,6 C -9,2 C 24,1 km/h (4 Bft) 100,00 %
01.03.2016 05:23 0,4 C 93 % 1015,0 hPa 0,0 l/m 19,1 km/h (3 Bft) W-SW 250 0 min 0,000 mm 0,0 UV-I 0 W/m -0,6 C -8,7 C 22,5 km/h (4 Bft) 97,37 %
01.03.2016 05:24 0,4 C 93 % 1015,0 hPa 0,0 l/m 21,4 km/h (4 Bft) SW 231 0 min 0,000 mm 0,0 UV-I 0 W/m -0,6 C -9,7 C 27,4 km/h (4 Bft) 100,00 %
01.03.2016 05:25 0,4 C 93 % 1015,1 hPa 0,0 l/m 18,7 km/h (3 Bft) SW 224 0 min 0,000 mm 0,0 UV-I 0 W/m -0,6 C -8,5 C 29,0 km/h (5 Bft) 100,00 %
01.03.2016 05:26 0,4 C 92 % 1015,1 hPa 0,0 l/m 17,9 km/h (3 Bft) SW 230 0 min 0,000 mm 0,0 UV-I 0 W/m -0,7 C -8,1 C 27,4 km/h (4 Bft) 100,00 %
01.03.2016 05:27 0,5 C 92 % 1015,1 hPa 0,0 l/m 20,0 km/h (4 Bft) SW 224 0 min 0,000 mm 0,0 UV-I 0 W/m -0,6 C -9,0 C 27,4 km/h (4 Bft) 100,00 %
01.03.2016 05:28 0,5 C 92 % 1015,0 hPa 0,0 l/m 18,9 km/h (3 Bft) S-SW 211 0 min 0,000 mm 0,0 UV-I 0 W/m -0,6 C -8,5 C 25,7 km/h (4 Bft) 98,96 %
01.03.2016 05:29 0,5 C 92 % 1015,1 hPa 0,0 l/m 17,2 km/h (3 Bft) SW 233 0 min 0,000 mm 0,0 UV-I 0 W/m -0,6 C -7,6 C 27,4 km/h (4 Bft) 100,00 %
01.03.2016 05:30 0,5 C 92 % 1015,1 hPa 0,0 l/m 17,9 km/h (3 Bft) SW 221 0 min 0,000 mm 0,0 UV-I 0 W/m -0,6 C -8,0 C 24,1 km/h (4 Bft) 100,00 %
01.03.2016 05:31 0,5 C 92 % 1015,1 hPa 0,0 l/m 19,4 km/h (3 Bft) SW 217 0 min 0,000 mm 0,0 UV-I 0 W/m -0,6 C -8,7 C 27,4 km/h (4 Bft) 100,00 %
01.03.2016 05:32 0,5 C 92 % 1015,1 hPa 0,0 l/m 18,9 km/h (3 Bft) W-SW 257 0 min 0,000 mm 0,0 UV-I 0 W/m -0,6 C -8,5 C 27,4 km/h (4 Bft) 100,00 %
01.03.2016 05:33 0,5 C 92 % 1015,1 hPa 0,0 l/m 16,4 km/h (3 Bft) W-SW 252 0 min 0,000 mm 0,0 UV-I 0 W/m -0,6 C -7,2 C 25,7 km/h (4 Bft) 100,00 %
01.03.2016 05:34 0,5 C 92 % 1015,1 hPa 0,0 l/m 24,6 km/h (4 Bft) SW 233 0 min 0,000 mm 0,0 UV-I 0 W/m -0,6 C -10,9 C 30,6 km/h (5 Bft) 95,65 %
01.03.2016 05:35 0,5 C 92 % 1015,1 hPa 0,0 l/m 23,8 km/h (4 Bft) W-SW 242 0 min 0,000 mm 0,0 UV-I 0 W/m -0,6 C -10,6 C 33,8 km/h (5 Bft) 100,00 %
01.03.2016 05:36 0,5 C 92 % 1015,2 hPa 0,0 l/m 20,4 km/h (4 Bft) S-SW 209 0 min 0,000 mm 0,0 UV-I 0 W/m -0,6 C -9,2 C 30,6 km/h (5 Bft) 100,00 %
01.03.2016 05:37 0,5 C 92 % 1015,2 hPa 0,0 l/m 17,5 km/h (3 Bft) W-SW 239 0 min 0,000 mm 0,0 UV-I 0 W/m -0,6 C -7,8 C 24,1 km/h (4 Bft) 100,00 %
01.03.2016 05:38 0,5 C 92 % 1015,3 hPa 0,0 l/m 21,9 km/h (4 Bft) SW 235 0 min 0,000 mm 0,0 UV-I 0 W/m -0,6 C -9,8 C 29,0 km/h (5 Bft) 100,00 %
01.03.2016 05:39 0,6 C 92 % 1015,3 hPa 0,0 l/m 16,4 km/h (3 Bft) SW 236 0 min 0,000 mm 0,0 UV-I 0 W/m -0,5 C -7,1 C 24,1 km/h (4 Bft) 100,00 %
01.03.2016 05:40 0,5 C 92 % 1015,3 hPa 0,0 l/m 20,2 km/h (4 Bft) W-SW 238 0 min 0,000 mm 0,0 UV-I 0 W/m -0,6 C -9,1 C 30,6 km/h (5 Bft) 100,00 %
01.03.2016 05:41 0,6 C 92 % 1015,3 hPa 0,0 l/m 15,6 km/h (3 Bft) W-SW 244 0 min 0,000 mm 0,0 UV-I 0 W/m -0,5 C -6,6 C 22,5 km/h (4 Bft) 100,00 %
01.03.2016 05:42 0,6 C 91 % 1015,2 hPa 0,0 l/m 19,3 km/h (3 Bft) SW 221 0 min 0,000 mm 0,0 UV-I 0 W/m -0,7 C -8,5 C 25,7 km/h (4 Bft) 100,00 %
01.03.2016 05:43 0,6 C 91 % 1015,3 hPa 0,0 l/m 17,4 km/h (3 Bft) W-SW 238 0 min 0,000 mm 0,0 UV-I 0 W/m -0,7 C -7,6 C 22,5 km/h (4 Bft) 100,00 %
01.03.2016 05:44 0,5 C 91 % 1015,3 hPa 0,0 l/m 18,5 km/h (3 Bft) W-SW 246 0 min 0,000 mm 0,0 UV-I 0 W/m -0,8 C -8,3 C 27,4 km/h (4 Bft) 100,00 %
01.03.2016 05:45 0,6 C 91 % 1015,2 hPa 0,0 l/m 21,0 km/h (4 Bft) W 259 0 min 0,000 mm 0,0 UV-I 0 W/m -0,7 C -9,3 C 27,4 km/h (4 Bft) 100,00 %
01.03.2016 05:46 0,6 C 91 % 1015,3 hPa 0,0 l/m 21,6 km/h (4 Bft) SW 232 0 min 0,000 mm 0,0 UV-I 0 W/m -0,7 C -9,6 C 25,7 km/h (4 Bft) 100,00 %
01.03.2016 05:47 0,6 C 91 % 1015,3 hPa 0,0 l/m 21,6 km/h (4 Bft) S-SW 213 0 min 0,000 mm 0,0 UV-I 0 W/m -0,7 C -9,6 C 33,8 km/h (5 Bft) 96,15 %
01.03.2016 05:48 0,6 C 91 % 1015,3 hPa 0,0 l/m 19,7 km/h (3 Bft) SW 225 0 min 0,000 mm 0,0 UV-I 0 W/m -0,7 C -8,7 C 27,4 km/h (4 Bft) 100,00 %
01.03.2016 05:49 0,6 C 91 % 1015,4 hPa 0,0 l/m 16,2 km/h (3 Bft) W-SW 256 0 min 0,000 mm 0,0 UV-I 0 W/m -0,7 C -6,9 C 20,9 km/h (4 Bft) 96,88 %
01.03.2016 05:50 0,6 C 91 % 1015,4 hPa 0,0 l/m 22,8 km/h (4 Bft) S-SW 199 0 min 0,000 mm 0,0 UV-I 0 W/m -0,7 C -10,1 C 32,2 km/h (5 Bft) 95,83 %
01.03.2016 05:51 0,6 C 91 % 1015,4 hPa 0,0 l/m 18,7 km/h (3 Bft) S-SW 206 0 min 0,000 mm 0,0 UV-I 0 W/m -0,7 C -8,2 C 27,4 km/h (4 Bft) 100,00 %
01.03.2016 05:52 0,6 C 91 % 1015,3 hPa 0,0 l/m 21,5 km/h (4 Bft) SW 228 0 min 0,000 mm 0,0 UV-I 0 W/m -0,7 C -9,5 C 32,2 km/h (5 Bft) 96,67 %
01.03.2016 05:53 0,6 C 91 % 1015,4 hPa 0,0 l/m 23,4 km/h (4 Bft) SW 235 0 min 0,000 mm 0,0 UV-I 0 W/m -0,7 C -10,3 C 32,2 km/h (5 Bft) 100,00 %
01.03.2016 05:54 0,6 C 91 % 1015,4 hPa 0,0 l/m 18,7 km/h (3 Bft) W-SW 245 0 min 0,000 mm 0,0 UV-I 0 W/m -0,7 C -8,2 C 27,4 km/h (4 Bft) 96,30 %
01.03.2016 05:55 0,6 C 91 % 1015,4 hPa 0,0 l/m 17,9 km/h (3 Bft) SW 232 0 min 0,000 mm 0,0 UV-I 0 W/m -0,7 C -7,8 C 24,1 km/h (4 Bft) 100,00 %
01.03.2016 05:56 0,6 C 91 % 1015,4 hPa 0,0 l/m 20,4 km/h (4 Bft) SW 233 0 min 0,000 mm 0,0 UV-I 0 W/m -0,7 C -9,0 C 29,0 km/h (5 Bft) 94,44 %
01.03.2016 05:57 0,6 C 91 % 1015,5 hPa 0,0 l/m 21,8 km/h (4 Bft) SW 235 0 min 0,000 mm 0,0 UV-I 0 W/m -0,7 C -9,6 C 30,6 km/h (5 Bft) 96,15 %
01.03.2016 05:58 0,6 C 91 % 1015,5 hPa 0,0 l/m 15,2 km/h (3 Bft) W 268 0 min 0,000 mm 0,0 UV-I 0 W/m -0,7 C -6,4 C 19,3 km/h (3 Bft) 100,00 %
01.03.2016 05:59 0,5 C 91 % 1015,4 hPa 0,0 l/m 20,1 km/h (4 Bft) W-SW 252 0 min 0,000 mm 0,0 UV-I 0 W/m -0,8 C -9,0 C 30,6 km/h (5 Bft) 95,65 %
01.03.2016 06:00 0,6 C 91 % 1015,5 hPa 0,0 l/m 19,6 km/h (3 Bft) SW 232 0 min 0,000 mm 0,0 UV-I 0 W/m -0,7 C -8,7 C 30,6 km/h (5 Bft) 100,00 %
01.03.2016 06:01 0,6 C 91 % 1015,5 hPa 0,0 l/m 16,0 km/h (3 Bft) W-SW 247 0 min 0,000 mm 0,0 UV-I 0 W/m -0,7 C -6,8 C 20,9 km/h (4 Bft) 95,65 %
01.03.2016 06:02 0,5 C 91 % 1015,5 hPa 0,0 l/m 17,3 km/h (3 Bft) W-SW 258 0 min 0,000 mm 0,0 UV-I 0 W/m -0,8 C -7,7 C 29,0 km/h (5 Bft) 100,00 %
01.03.2016 06:03 0,5 C 91 % 1015,5 hPa 0,0 l/m 18,7 km/h (3 Bft) W-SW 252 0 min 0,000 mm 0,0 UV-I 0 W/m -0,8 C -8,4 C 25,7 km/h (4 Bft) 95,65 %
01.03.2016 06:04 0,5 C 91 % 1015,5 hPa 0,0 l/m 20,0 km/h (4 Bft) SW 236 0 min 0,000 mm 0,0 UV-I 0 W/m -0,8 C -9,0 C 25,7 km/h (4 Bft) 100,00 %
01.03.2016 06:05 0,5 C 91 % 1015,5 hPa 0,0 l/m 16,5 km/h (3 Bft) W-SW 251 0 min 0,000 mm 0,0 UV-I 0 W/m -0,8 C -7,2 C 27,4 km/h (4 Bft) 95,65 %
01.03.2016 06:06 0,5 C 91 % 1015,4 hPa 0,0 l/m 17,1 km/h (3 Bft) SW 229 0 min 0,000 mm 0,0 UV-I 0 W/m -0,8 C -7,6 C 24,1 km/h (4 Bft) 96,30 %
01.03.2016 06:07 0,5 C 91 % 1015,5 hPa 0,0 l/m 20,6 km/h (4 Bft) S-SW 206 0 min 0,000 mm 0,0 UV-I 0 W/m -0,8 C -9,3 C 32,2 km/h (5 Bft) 100,00 %
01.03.2016 06:08 0,5 C 91 % 1015,5 hPa 0,0 l/m 17,0 km/h (3 Bft) W-SW 239 0 min 0,000 mm 0,0 UV-I 0 W/m -0,8 C -7,5 C 27,4 km/h (4 Bft) 92,31 %
01.03.2016 06:09 0,5 C 91 % 1015,5 hPa 0,0 l/m 15,2 km/h (3 Bft) W-SW 239 0 min 0,000 mm 0,0 UV-I 0 W/m -0,8 C -6,5 C 22,5 km/h (4 Bft) 100,00 %
01.03.2016 06:10 0,5 C 92 % 1015,5 hPa 0,0 l/m 17,1 km/h (3 Bft) W-SW 243 0 min 0,000 mm 0,0 UV-I 0 W/m -0,6 C -7,6 C 22,5 km/h (4 Bft) 93,33 %
01.03.2016 06:11 0,5 C 92 % 1015,5 hPa 0,0 l/m 20,0 km/h (4 Bft) W-SW 242 0 min 0,000 mm 0,0 UV-I 0 W/m -0,6 C -9,0 C 29,0 km/h (5 Bft) 100,00 %
01.03.2016 06:12 0,5 C 91 % 1015,6 hPa 0,0 l/m 17,8 km/h (3 Bft) S-SW 210 0 min 0,000 mm 0,0 UV-I 0 W/m -0,8 C -7,9 C 24,1 km/h (4 Bft) 91,30 %
01.03.2016 06:13 0,5 C 91 % 1015,6 hPa 0,0 l/m 16,8 km/h (3 Bft) SW 224 0 min 0,000 mm 0,0 UV-I 0 W/m -0,8 C -7,4 C 25,7 km/h (4 Bft) 100,00 %
01.03.2016 06:14 0,5 C 91 % 1015,6 hPa 0,0 l/m 27,1 km/h (4 Bft) SW 219 0 min 0,000 mm 0,0 UV-I 0 W/m -0,8 C -11,8 C 41,8 km/h (6 Bft) 96,15 %
01.03.2016 06:15 0,5 C 91 % 1015,6 hPa 0,0 l/m 19,6 km/h (3 Bft) W-SW 244 0 min 0,000 mm 0,0 UV-I 0 W/m -0,8 C -8,8 C 22,5 km/h (4 Bft) 100,00 %
01.03.2016 06:16 0,4 C 91 % 1015,6 hPa 0,0 l/m 20,3 km/h (4 Bft) SW 215 0 min 0,000 mm 0,0 UV-I 0 W/m -0,9 C -9,3 C 25,7 km/h (4 Bft) 92,31 %
01.03.2016 06:17 0,4 C 92 % 1015,7 hPa 0,0 l/m 20,0 km/h (4 Bft) SW 234 0 min 0,000 mm 0,0 UV-I 0 W/m -0,7 C -9,1 C 37,0 km/h (5 Bft) 96,30 %
01.03.2016 06:18 0,4 C 92 % 1015,7 hPa 0,0 l/m 15,8 km/h (3 Bft) W-SW 254 0 min 0,000 mm 0,0 UV-I 0 W/m -0,7 C -7,0 C 24,1 km/h (4 Bft) 100,00 %
01.03.2016 06:19 0,4 C 92 % 1015,7 hPa 0,0 l/m 22,9 km/h (4 Bft) SW 227 0 min 0,000 mm 0,0 UV-I 0 W/m -0,7 C -10,4 C 30,6 km/h (5 Bft) 91,67 %
01.03.2016 06:20 0,4 C 92 % 1015,7 hPa 0,0 l/m 18,2 km/h (3 Bft) W 269 0 min 0,000 mm 0,0 UV-I 0 W/m -0,7 C -8,2 C 27,4 km/h (4 Bft) 100,00 %
01.03.2016 06:21 0,4 C 92 % 1015,7 hPa 0,0 l/m 18,7 km/h (3 Bft) W-SW 252 0 min 0,000 mm 0,0 UV-I 0 W/m -0,7 C -8,5 C 25,7 km/h (4 Bft) 93,33 %
01.03.2016 06:22 0,4 C 92 % 1015,8 hPa 0,0 l/m 17,9 km/h (3 Bft) S-SW 198 0 min 0,000 mm 0,0 UV-I 0 W/m -0,7 C -8,1 C 22,5 km/h (4 Bft) 100,00 %
01.03.2016 06:23 0,4 C 92 % 1015,9 hPa 0,0 l/m 14,5 km/h (3 Bft) SW 221 0 min 0,000 mm 0,0 UV-I 0 W/m -0,7 C -6,2 C 17,7 km/h (3 Bft) 92,31 %
01.03.2016 06:24 0,4 C 92 % 1015,8 hPa 0,0 l/m 17,6 km/h (3 Bft) SW 224 0 min 0,000 mm 0,0 UV-I 0 W/m -0,7 C -7,9 C 22,5 km/h (4 Bft) 96,15 %
01.03.2016 06:25 0,4 C 92 % 1015,8 hPa 0,0 l/m 13,3 km/h (3 Bft) W 259 0 min 0,000 mm 0,0 UV-I 0 W/m -0,7 C -5,4 C 19,3 km/h (3 Bft) 100,00 %
01.03.2016 06:26 0,4 C 92 % 1015,8 hPa 0,0 l/m 21,8 km/h (4 Bft) W-SW 246 0 min 0,000 mm 0,0 UV-I 0 W/m -0,7 C -9,9 C 25,7 km/h (4 Bft) 100,00 %
01.03.2016 06:27 0,4 C 92 % 1015,8 hPa 0,0 l/m 17,5 km/h (3 Bft) SW 234 0 min 0,000 mm 0,0 UV-I 0 W/m -0,7 C -7,9 C 24,1 km/h (4 Bft) 100,00 %
01.03.2016 06:28 0,4 C 92 % 1015,9 hPa 0,0 l/m 17,2 km/h (3 Bft) W-SW 243 0 min 0,000 mm 0,0 UV-I 0 W/m -0,7 C -7,7 C 22,5 km/h (4 Bft) 91,67 %
01.03.2016 06:29 0,4 C 92 % 1015,9 hPa 0,0 l/m 18,5 km/h (3 Bft) SW 216 0 min 0,000 mm 0,0 UV-I 0 W/m -0,7 C -8,4 C 22,5 km/h (4 Bft) 100,00 %
01.03.2016 06:30 0,3 C 92 % 1015,9 hPa 0,0 l/m 19,0 km/h (3 Bft) W-SW 250 0 min 0,000 mm 0,0 UV-I 0 W/m -0,8 C -8,8 C 24,1 km/h (4 Bft) 96,15 %
01.03.2016 06:31 0,3 C 93 % 1015,9 hPa 0,0 l/m 16,5 km/h (3 Bft) S-SW 195 0 min 0,000 mm 0,0 UV-I 0 W/m -0,7 C -7,5 C 22,5 km/h (4 Bft) 100,00 %
01.03.2016 06:32 0,3 C 92 % 1015,9 hPa 0,0 l/m 21,9 km/h (4 Bft) SW 221 0 min 0,000 mm 0,0 UV-I 0 W/m -0,8 C -10,1 C 27,4 km/h (4 Bft) 96,67 %
01.03.2016 06:33 0,3 C 93 % 1016,0 hPa 0,0 l/m 19,4 km/h (3 Bft) SW 229 0 min 0,000 mm 0,0 UV-I 0 W/m -0,7 C -9,0 C 25,7 km/h (4 Bft) 100,00 %
01.03.2016 06:34 0,3 C 93 % 1016,0 hPa 0,0 l/m 17,6 km/h (3 Bft) SW 227 0 min 0,000 mm 0,0 UV-I 0 W/m -0,7 C -8,1 C 22,5 km/h (4 Bft) 100,00 %
01.03.2016 06:35 0,3 C 93 % 1016,0 hPa 0,0 l/m 19,4 km/h (3 Bft) W-SW 240 0 min 0,000 mm 0,0 UV-I 0 W/m -0,7 C -9,0 C 25,7 km/h (4 Bft) 100,00 %
01.03.2016 06:36 0,3 C 93 % 1016,1 hPa 0,0 l/m 16,5 km/h (3 Bft) W 266 0 min 0,000 mm 0,0 UV-I 0 W/m -0,7 C -7,5 C 22,5 km/h (4 Bft) 100,00 %
01.03.2016 06:37 0,3 C 93 % 1016,1 hPa 0,0 l/m 16,1 km/h (3 Bft) W-SW 257 0 min 0,000 mm 0,0 UV-I 0 W/m -0,7 C -7,3 C 25,7 km/h (4 Bft) 95,65 %
01.03.2016 06:38 0,3 C 93 % 1016,2 hPa 0,0 l/m 17,8 km/h (3 Bft) W-SW 245 0 min 0,000 mm 0,0 UV-I 0 W/m -0,7 C -8,2 C 30,6 km/h (5 Bft) 100,00 %
01.03.2016 06:39 0,3 C 93 % 1016,2 hPa 0,0 l/m 15,9 km/h (3 Bft) W-SW 248 0 min 0,000 mm 0,0 UV-I 0 W/m -0,7 C -7,1 C 19,3 km/h (3 Bft) 100,00 %
01.03.2016 06:40 0,3 C 93 % 1016,1 hPa 0,0 l/m 22,3 km/h (4 Bft) W 263 0 min 0,000 mm 0,0 UV-I 0 W/m -0,7 C -10,3 C 30,6 km/h (5 Bft) 100,00 %
01.03.2016 06:41 0,3 C 93 % 1016,1 hPa 0,0 l/m 17,2 km/h (3 Bft) W-SW 252 0 min 0,000 mm 0,0 UV-I 0 W/m -0,7 C -7,9 C 22,5 km/h (4 Bft) 100,00 %
01.03.2016 06:42 0,2 C 93 % 1016,1 hPa 0,0 l/m 13,9 km/h (3 Bft) SW 229 0 min 0,000 mm 0,0 UV-I 0 W/m -0,8 C -6,1 C 19,3 km/h (3 Bft) 95,83 %
01.03.2016 06:43 0,2 C 93 % 1016,3 hPa 0,0 l/m 15,7 km/h (3 Bft) W-SW 237 0 min 0,000 mm 0,0 UV-I 0 W/m -0,8 C -7,2 C 19,3 km/h (3 Bft) 100,00 %
01.03.2016 06:44 0,2 C 93 % 1016,2 hPa 0,0 l/m 13,0 km/h (3 Bft) SW 233 0 min 0,000 mm 0,0 UV-I 0 W/m -0,8 C -5,5 C 16,1 km/h (3 Bft) 100,00 %
01.03.2016 06:45 0,2 C 93 % 1016,2 hPa 0,0 l/m 15,9 km/h (3 Bft) W-SW 243 0 min 0,000 mm 0,0 UV-I 0 W/m -0,8 C -7,3 C 19,3 km/h (3 Bft) 100,00 %
01.03.2016 06:46 0,2 C 93 % 1016,3 hPa 0,0 l/m 15,9 km/h (3 Bft) W-SW 240 0 min 0,000 mm 0,0 UV-I 0 W/m -0,8 C -7,3 C 25,7 km/h (4 Bft) 100,00 %
01.03.2016 06:47 0,2 C 93 % 1016,2 hPa 0,0 l/m 16,3 km/h (3 Bft) S-SW 206 0 min 0,000 mm 0,0 UV-I 0 W/m -0,8 C -7,5 C 19,3 km/h (3 Bft) 100,00 %
01.03.2016 06:48 0,2 C 94 % 1016,2 hPa 0,0 l/m 16,5 km/h (3 Bft) W 261 0 min 0,000 mm 0,0 UV-I 0 W/m -0,6 C -7,6 C 20,9 km/h (4 Bft) 96,15 %
01.03.2016 06:49 0,2 C 94 % 1016,2 hPa 0,0 l/m 19,8 km/h (3 Bft) W-SW 244 0 min 0,000 mm 0,0 UV-I 0 W/m -0,6 C -9,3 C 30,6 km/h (5 Bft) 100,00 %
01.03.2016 06:50 0,2 C 94 % 1016,2 hPa 0,0 l/m 17,2 km/h (3 Bft) W-SW 245 0 min 0,000 mm 0,0 UV-I 0 W/m -0,6 C -8,0 C 22,5 km/h (4 Bft) 100,00 %
01.03.2016 06:51 0,2 C 94 % 1016,2 hPa 0,0 l/m 14,0 km/h (3 Bft) SW 236 0 min 0,000 mm 0,0 UV-I 0 W/m -0,6 C -6,1 C 19,3 km/h (3 Bft) 96,30 %
01.03.2016 06:52 0,2 C 94 % 1016,2 hPa 0,0 l/m 14,6 km/h (3 Bft) W-SW 242 0 min 0,000 mm 0,0 UV-I 0 W/m -0,6 C -6,5 C 24,1 km/h (4 Bft) 100,00 %
01.03.2016 06:53 0,2 C 94 % 1016,2 hPa 0,0 l/m 15,9 km/h (3 Bft) W-SW 254 0 min 0,000 mm 0,0 UV-I 0 W/m -0,6 C -7,3 C 25,7 km/h (4 Bft) 100,00 %
01.03.2016 06:54 0,2 C 94 % 1016,2 hPa 0,0 l/m 11,0 km/h (2 Bft) W-SW 252 0 min 0,000 mm 0,0 UV-I 0 W/m -0,6 C -4,0 C 14,5 km/h (3 Bft) 100,00 %
01.03.2016 06:55 0,2 C 94 % 1016,2 hPa 0,0 l/m 14,2 km/h (3 Bft) W 267 0 min 0,000 mm 0,0 UV-I 0 W/m -0,6 C -6,2 C 19,3 km/h (3 Bft) 100,00 %
01.03.2016 06:56 0,2 C 94 % 1016,2 hPa 0,0 l/m 14,1 km/h (3 Bft) S-SW 205 0 min 0,000 mm 0,0 UV-I 0 W/m -0,6 C -6,2 C 17,7 km/h (3 Bft) 96,55 %
01.03.2016 06:57 0,2 C 94 % 1016,3 hPa 0,0 l/m 15,4 km/h (3 Bft) S-SW 208 0 min 0,000 mm 0,0 UV-I 0 W/m -0,6 C -7,0 C 20,9 km/h (4 Bft) 100,00 %
01.03.2016 06:58 0,1 C 94 % 1016,3 hPa 0,0 l/m 15,8 km/h (3 Bft) W 263 0 min 0,000 mm 0,0 UV-I 0 W/m -0,7 C -7,3 C 19,3 km/h (3 Bft) 100,00 %
01.03.2016 06:59 0,1 C 94 % 1016,3 hPa 0,0 l/m 15,0 km/h (3 Bft) W-SW 242 0 min 0,000 mm 0,0 UV-I 0 W/m -0,7 C -6,9 C 25,7 km/h (4 Bft) 96,67 %
01.03.2016 07:00 0,2 C 94 % 1016,3 hPa 0,0 l/m 15,1 km/h (3 Bft) SW 221 0 min 0,000 mm 0,0 UV-I 0 W/m -0,6 C -6,8 C 19,3 km/h (3 Bft) 96,15 %
01.03.2016 07:01 0,1 C 94 % 1016,3 hPa 0,0 l/m 13,5 km/h (3 Bft) W-SW 241 0 min 0,000 mm 0,0 UV-I 0 W/m -0,7 C -5,9 C 19,3 km/h (3 Bft) 100,00 %
01.03.2016 07:02 0,2 C 94 % 1016,3 hPa 0,0 l/m 11,8 km/h (2 Bft) SW 219 0 min 0,000 mm 0,0 UV-I 0 W/m -0,6 C -4,6 C 16,1 km/h (3 Bft) 100,00 %
01.03.2016 07:03 0,1 C 94 % 1016,3 hPa 0,0 l/m 9,8 km/h (2 Bft) S-SW 210 0 min 0,000 mm 0,0 UV-I 0 W/m -0,7 C -3,2 C 14,5 km/h (3 Bft) 100,00 %
01.03.2016 07:04 0,1 C 94 % 1016,4 hPa 0,0 l/m 16,6 km/h (3 Bft) W-SW 254 0 min 0,000 mm 0,0 UV-I 0 W/m -0,7 C -7,8 C 22,5 km/h (4 Bft) 100,00 %
01.03.2016 07:05 0,1 C 94 % 1016,4 hPa 0,0 l/m 13,8 km/h (3 Bft) S-SW 211 0 min 0,000 mm 0,0 UV-I 0 W/m -0,7 C -6,1 C 22,5 km/h (4 Bft) 100,00 %
01.03.2016 07:06 0,1 C 94 % 1016,4 hPa 0,0 l/m 12,6 km/h (3 Bft) SW 229 0 min 0,000 mm 0,0 UV-I 0 W/m -0,7 C -5,3 C 17,7 km/h (3 Bft) 100,00 %
01.03.2016 07:07 0,1 C 94 % 1016,4 hPa 0,0 l/m 13,3 km/h (3 Bft) SW 236 0 min 0,000 mm 0,0 UV-I 0 W/m -0,7 C -5,8 C 17,7 km/h (3 Bft) 95,83 %
01.03.2016 07:08 0,1 C 94 % 1016,4 hPa 0,0 l/m 15,6 km/h (3 Bft) W 271 0 min 0,000 mm 0,0 UV-I 4 W/m -0,7 C -7,2 C 24,1 km/h (4 Bft) 100,00 %
01.03.2016 07:09 0,1 C 94 % 1016,4 hPa 0,0 l/m 17,6 km/h (3 Bft) W-SW 238 0 min 0,000 mm 0,0 UV-I 5 W/m -0,7 C -8,3 C 24,1 km/h (4 Bft) 96,30 %
01.03.2016 07:10 0,1 C 94 % 1016,5 hPa 0,0 l/m 18,2 km/h (3 Bft) SW 225 0 min 0,000 mm 0,0 UV-I 5 W/m -0,7 C -8,6 C 24,1 km/h (4 Bft) 100,00 %
01.03.2016 07:11 0,1 C 94 % 1016,5 hPa 0,0 l/m 14,0 km/h (3 Bft) W 260 0 min 0,000 mm 0,0 UV-I 5 W/m -0,7 C -6,2 C 20,9 km/h (4 Bft) 96,15 %
01.03.2016 07:12 0,1 C 94 % 1016,5 hPa 0,0 l/m 14,8 km/h (3 Bft) S-SW 204 0 min 0,000 mm 0,0 UV-I 5 W/m -0,7 C -6,7 C 22,5 km/h (4 Bft) 100,00 %
01.03.2016 07:13 0,1 C 94 % 1016,6 hPa 0,0 l/m 15,7 km/h (3 Bft) W-SW 246 0 min 0,000 mm 0,0 UV-I 5 W/m -0,7 C -7,3 C 22,5 km/h (4 Bft) 100,00 %
01.03.2016 07:14 0,1 C 94 % 1016,6 hPa 0,0 l/m 18,4 km/h (3 Bft) SW 232 0 min 0,000 mm 0,0 UV-I 5 W/m -0,7 C -8,7 C 24,1 km/h (4 Bft) 95,83 %
01.03.2016 07:15 0,1 C 94 % 1016,6 hPa 0,0 l/m 16,9 km/h (3 Bft) SW 235 0 min 0,000 mm 0,0 UV-I 5 W/m -0,7 C -7,9 C 25,7 km/h (4 Bft) 100,00 %
01.03.2016 07:16 0,1 C 94 % 1016,6 hPa 0,0 l/m 14,1 km/h (3 Bft) S-SW 192 0 min 0,000 mm 0,0 UV-I 5 W/m -0,7 C -6,3 C 19,3 km/h (3 Bft) 100,00 %
01.03.2016 07:17 0,1 C 94 % 1016,6 hPa 0,0 l/m 16,8 km/h (3 Bft) W-SW 250 0 min 0,000 mm 0,0 UV-I 5 W/m -0,7 C -7,9 C 25,7 km/h (4 Bft) 96,15 %
01.03.2016 07:18 0,1 C 94 % 1016,7 hPa 0,0 l/m 18,4 km/h (3 Bft) W-SW 238 0 min 0,000 mm 0,0 UV-I 5 W/m -0,7 C -8,7 C 22,5 km/h (4 Bft) 95,83 %
01.03.2016 07:19 0,1 C 94 % 1016,7 hPa 0,0 l/m 15,2 km/h (3 Bft) S-SW 207 0 min 0,000 mm 0,0 UV-I 6 W/m -0,7 C -7,0 C 19,3 km/h (3 Bft) 100,00 %
01.03.2016 07:20 0,1 C 94 % 1016,7 hPa 0,0 l/m 12,6 km/h (3 Bft) W-SW 238 0 min 0,000 mm 0,0 UV-I 7 W/m -0,7 C -5,3 C 20,9 km/h (4 Bft) 100,00 %
01.03.2016 07:21 0,1 C 94 % 1016,7 hPa 0,0 l/m 14,2 km/h (3 Bft) SW 227 0 min 0,000 mm 0,0 UV-I 7 W/m -0,7 C -6,4 C 20,9 km/h (4 Bft) 100,00 %
01.03.2016 07:22 0,1 C 94 % 1016,8 hPa 0,0 l/m 16,8 km/h (3 Bft) W-SW 250 0 min 0,000 mm 0,0 UV-I 7 W/m -0,7 C -7,9 C 22,5 km/h (4 Bft) 100,00 %
01.03.2016 07:23 0,2 C 94 % 1016,7 hPa 0,0 l/m 20,5 km/h (4 Bft) W-SW 239 0 min 0,000 mm 0,0 UV-I 7 W/m -0,6 C -9,6 C 25,7 km/h (4 Bft) 100,00 %
01.03.2016 07:24 0,1 C 94 % 1016,7 hPa 0,0 l/m 15,9 km/h (3 Bft) W-SW 254 0 min 0,000 mm 0,0 UV-I 7 W/m -0,7 C -7,4 C 20,9 km/h (4 Bft) 100,00 %
01.03.2016 07:25 0,1 C 94 % 1016,8 hPa 0,0 l/m 20,8 km/h (4 Bft) W-SW 245 0 min 0,000 mm 0,0 UV-I 9 W/m -0,7 C -9,9 C 29,0 km/h (5 Bft) 95,65 %
01.03.2016 07:26 0,1 C 94 % 1016,8 hPa 0,0 l/m 14,7 km/h (3 Bft) SW 229 0 min 0,000 mm 0,0 UV-I 9 W/m -0,7 C -6,7 C 27,4 km/h (4 Bft) 100,00 %
01.03.2016 07:27 0,2 C 94 % 1016,8 hPa 0,0 l/m 15,8 km/h (3 Bft) W-SW 238 0 min 0,000 mm 0,0 UV-I 9 W/m -0,6 C -7,2 C 20,9 km/h (4 Bft) 98,63 %
01.03.2016 07:28 0,1 C 94 % 1016,8 hPa 0,0 l/m 16,5 km/h (3 Bft) S-SW 206 0 min 0,000 mm 0,0 UV-I 10 W/m -0,7 C -7,7 C 20,9 km/h (4 Bft) 100,00 %
01.03.2016 07:29 0,1 C 94 % 1016,8 hPa 0,0 l/m 14,3 km/h (3 Bft) W-SW 257 0 min 0,000 mm 0,0 UV-I 11 W/m -0,7 C -6,4 C 22,5 km/h (4 Bft) 98,64 %
01.03.2016 07:30 0,1 C 94 % 1016,8 hPa 0,0 l/m 23,0 km/h (4 Bft) W 265 0 min 0,000 mm 0,0 UV-I 11 W/m -0,7 C -10,8 C 30,6 km/h (5 Bft) 100,00 %
01.03.2016 07:31 0,1 C 94 % 1016,8 hPa 0,0 l/m 21,9 km/h (4 Bft) SW 215 0 min 0,000 mm 0,0 UV-I 11 W/m -0,7 C -10,3 C 30,6 km/h (5 Bft) 100,00 %
01.03.2016 07:32 0,1 C 94 % 1016,8 hPa 0,0 l/m 22,4 km/h (4 Bft) W 270 0 min 0,000 mm 0,0 UV-I 11 W/m -0,7 C -10,6 C 27,4 km/h (4 Bft) 100,00 %
01.03.2016 07:33 0,2 C 94 % 1016,8 hPa 0,0 l/m 18,4 km/h (3 Bft) W-SW 242 0 min 0,000 mm 0,0 UV-I 11 W/m -0,6 C -8,6 C 24,1 km/h (4 Bft) 91,67 %
01.03.2016 07:34 0,2 C 94 % 1016,9 hPa 0,0 l/m 20,0 km/h (4 Bft) SW 214 0 min 0,000 mm 0,0 UV-I 11 W/m -0,6 C -9,4 C 29,0 km/h (5 Bft) 100,00 %
01.03.2016 07:35 0,1 C 94 % 1016,9 hPa 0,0 l/m 20,4 km/h (4 Bft) W-SW 241 0 min 0,000 mm 0,0 UV-I 11 W/m -0,7 C -9,7 C 27,4 km/h (4 Bft) 95,83 %
01.03.2016 07:36 0,2 C 94 % 1017,0 hPa 0,0 l/m 17,0 km/h (3 Bft) SW 229 0 min 0,000 mm 0,0 UV-I 11 W/m -0,6 C -7,9 C 22,5 km/h (4 Bft) 100,00 %
01.03.2016 07:37 0,2 C 94 % 1017,0 hPa 0,0 l/m 19,6 km/h (3 Bft) W 264 0 min 0,000 mm 0,0 UV-I 11 W/m -0,6 C -9,2 C 25,7 km/h (4 Bft) 100,00 %
01.03.2016 07:38 0,2 C 94 % 1017,0 hPa 0,0 l/m 17,3 km/h (3 Bft) W-SW 251 0 min 0,000 mm 0,0 UV-I 11 W/m -0,6 C -8,0 C 25,7 km/h (4 Bft) 100,00 %
01.03.2016 07:39 0,2 C 94 % 1017,1 hPa 0,0 l/m 17,6 km/h (3 Bft) S-SW 213 0 min 0,000 mm 0,0 UV-I 11 W/m -0,6 C -8,2 C 25,7 km/h (4 Bft) 100,00 %
01.03.2016 07:40 0,2 C 93 % 1017,1 hPa 0,0 l/m 20,1 km/h (4 Bft) SW 215 0 min 0,000 mm 0,0 UV-I 11 W/m -0,8 C -9,4 C 30,6 km/h (5 Bft) 100,00 %
01.03.2016 07:41 0,2 C 93 % 1017,0 hPa 0,0 l/m 19,3 km/h (3 Bft) W 260 0 min 0,000 mm 0,0 UV-I 11 W/m -0,8 C -9,0 C 30,6 km/h (5 Bft) 100,00 %
01.03.2016 07:42 0,2 C 93 % 1017,1 hPa 0,0 l/m 11,2 km/h (2 Bft) SW 229 0 min 0,000 mm 0,0 UV-I 11 W/m -0,8 C -4,2 C 24,1 km/h (4 Bft) 100,00 %
01.03.2016 07:43 0,2 C 94 % 1017,1 hPa 0,0 l/m 18,4 km/h (3 Bft) W-SW 250 0 min 0,000 mm 0,0 UV-I 12 W/m -0,6 C -8,6 C 27,4 km/h (4 Bft) 100,00 %
01.03.2016 07:44 0,2 C 94 % 1017,1 hPa 0,0 l/m 20,8 km/h (4 Bft) SW 215 0 min 0,000 mm 0,0 UV-I 12 W/m -0,6 C -9,7 C 30,6 km/h (5 Bft) 100,00 %
01.03.2016 07:45 0,2 C 94 % 1017,1 hPa 0,0 l/m 16,9 km/h (3 Bft) SW 219 0 min 0,000 mm 0,0 UV-I 12 W/m -0,6 C -7,8 C 22,5 km/h (4 Bft) 100,00 %
01.03.2016 07:46 0,2 C 94 % 1017,2 hPa 0,0 l/m 15,2 km/h (3 Bft) SW 222 0 min 0,000 mm 0,0 UV-I 12 W/m -0,6 C -6,9 C 22,5 km/h (4 Bft) 100,00 %
01.03.2016 07:47 0,2 C 93 % 1017,3 hPa 0,0 l/m 19,0 km/h (3 Bft) W-SW 238 0 min 0,000 mm 0,0 UV-I 12 W/m -0,8 C -8,9 C 25,7 km/h (4 Bft) 100,00 %
01.03.2016 07:48 0,2 C 93 % 1017,3 hPa 0,0 l/m 15,5 km/h (3 Bft) W 271 0 min 0,000 mm 0,0 UV-I 12 W/m -0,8 C -7,0 C 22,5 km/h (4 Bft) 100,00 %
01.03.2016 07:49 0,2 C 93 % 1017,3 hPa 0,0 l/m 16,3 km/h (3 Bft) W-SW 238 0 min 0,000 mm 0,0 UV-I 12 W/m -0,8 C -7,5 C 25,7 km/h (4 Bft) 100,00 %
01.03.2016 07:50 0,2 C 93 % 1017,4 hPa 0,0 l/m 17,7 km/h (3 Bft) W-SW 240 0 min 0,000 mm 0,0 UV-I 12 W/m -0,8 C -8,2 C 24,1 km/h (4 Bft) 100,00 %
01.03.2016 07:51 0,2 C 93 % 1017,3 hPa 0,0 l/m 17,1 km/h (3 Bft) SW 223 0 min 0,000 mm 0,0 UV-I 12 W/m -0,8 C -7,9 C 24,1 km/h (4 Bft) 100,00 %
01.03.2016 07:52 0,2 C 93 % 1017,4 hPa 0,0 l/m 18,0 km/h (3 Bft) S-SW 208 0 min 0,000 mm 0,0 UV-I 12 W/m -0,8 C -8,4 C 24,1 km/h (4 Bft) 100,00 %
01.03.2016 07:53 0,2 C 93 % 1017,3 hPa 0,0 l/m 17,1 km/h (3 Bft) SW 225 0 min 0,000 mm 0,0 UV-I 13 W/m -0,8 C -7,9 C 29,0 km/h (5 Bft) 91,67 %
01.03.2016 07:54 0,2 C 93 % 1017,4 hPa 0,0 l/m 16,3 km/h (3 Bft) SW 225 0 min 0,000 mm 0,0 UV-I 14 W/m -0,8 C -7,5 C 24,1 km/h (4 Bft) 100,00 %
01.03.2016 07:55 0,2 C 93 % 1017,4 hPa 0,0 l/m 17,5 km/h (3 Bft) W-SW 248 0 min 0,000 mm 0,0 UV-I 14 W/m -0,8 C -8,1 C 22,5 km/h (4 Bft) 100,00 %
01.03.2016 07:56 0,2 C 93 % 1017,6 hPa 0,0 l/m 16,9 km/h (3 Bft) S-SW 199 0 min 0,000 mm 0,0 UV-I 15 W/m -0,8 C -7,8 C 24,1 km/h (4 Bft) 96,97 %
01.03.2016 07:57 0,2 C 94 % 1017,6 hPa 0,0 l/m 17,5 km/h (3 Bft) W-SW 252 0 min 0,000 mm 0,0 UV-I 16 W/m -0,6 C -8,1 C 24,1 km/h (4 Bft) 96,15 %
01.03.2016 07:58 0,2 C 94 % 1017,4 hPa 0,0 l/m 17,9 km/h (3 Bft) S-SW 205 0 min 0,000 mm 0,0 UV-I 17 W/m -0,6 C -8,3 C 24,1 km/h (4 Bft) 91,67 %
01.03.2016 07:59 0,2 C 94 % 1017,5 hPa 0,0 l/m 17,6 km/h (3 Bft) SW 236 0 min 0,000 mm 0,0 UV-I 18 W/m -0,6 C -8,2 C 30,6 km/h (5 Bft) 100,00 %
01.03.2016 08:00 0,2 C 94 % 1017,5 hPa 0,0 l/m 17,9 km/h (3 Bft) W 269 0 min 0,000 mm 0,0 UV-I 19 W/m -0,6 C -8,3 C 22,5 km/h (4 Bft) 96,30 %
01.03.2016 08:01 0,2 C 93 % 1017,5 hPa 0,0 l/m 16,3 km/h (3 Bft) SW 215 0 min 0,000 mm 0,0 UV-I 19 W/m -0,8 C -7,5 C 20,9 km/h (4 Bft) 95,65 %
01.03.2016 08:02 0,2 C 94 % 1017,6 hPa 0,0 l/m 21,7 km/h (4 Bft) SW 221 0 min 0,000 mm 0,0 UV-I 19 W/m -0,6 C -10,1 C 25,7 km/h (4 Bft) 100,00 %
01.03.2016 08:03 0,2 C 94 % 1017,6 hPa 0,0 l/m 22,6 km/h (4 Bft) W-SW 251 0 min 0,000 mm 0,0 UV-I 21 W/m -0,6 C -10,5 C 30,6 km/h (5 Bft) 93,33 %
01.03.2016 08:04 0,2 C 93 % 1017,6 hPa 0,0 l/m 17,2 km/h (3 Bft) SW 214 0 min 0,000 mm 0,0 UV-I 21 W/m -0,8 C -8,0 C 27,4 km/h (4 Bft) 100,00 %
01.03.2016 08:05 0,2 C 93 % 1017,6 hPa 0,0 l/m 19,0 km/h (3 Bft) S-SW 203 0 min 0,000 mm 0,0 UV-I 22 W/m -0,8 C -8,9 C 25,7 km/h (4 Bft) 95,83 %
01.03.2016 08:06 0,2 C 93 % 1017,6 hPa 0,0 l/m 21,8 km/h (4 Bft) S-SW 213 0 min 0,000 mm 0,0 UV-I 23 W/m -0,8 C -10,2 C 30,6 km/h (5 Bft) 100,00 %
01.03.2016 08:07 0,2 C 93 % 1017,7 hPa 0,0 l/m 16,7 km/h (3 Bft) SW 220 0 min 0,000 mm 0,0 UV-I 23 W/m -0,8 C -7,7 C 25,7 km/h (4 Bft) 96,30 %
01.03.2016 08:08 0,2 C 94 % 1017,7 hPa 0,0 l/m 17,9 km/h (3 Bft) W 259 0 min 0,000 mm 0,0 UV-I 24 W/m -0,6 C -8,3 C 27,4 km/h (4 Bft) 92,31 %
01.03.2016 08:09 0,2 C 94 % 1017,6 hPa 0,0 l/m 13,6 km/h (3 Bft) W 265 0 min 0,000 mm 0,0 UV-I 25 W/m -0,6 C -5,9 C 19,3 km/h (3 Bft) 100,00 %
01.03.2016 08:10 0,2 C 94 % 1017,7 hPa 0,0 l/m 13,9 km/h (3 Bft) SW 218 0 min 0,000 mm 0,0 UV-I 25 W/m -0,6 C -6,1 C 24,1 km/h (4 Bft) 93,33 %
01.03.2016 08:11 0,2 C 94 % 1017,7 hPa 0,0 l/m 15,5 km/h (3 Bft) W-SW 252 0 min 0,000 mm 0,0 UV-I 25 W/m -0,6 C -7,0 C 24,1 km/h (4 Bft) 100,00 %
01.03.2016 08:12 0,2 C 94 % 1017,7 hPa 0,0 l/m 14,7 km/h (3 Bft) SW 221 0 min 0,000 mm 0,0 UV-I 26 W/m -0,6 C -6,6 C 20,9 km/h (4 Bft) 96,15 %
01.03.2016 08:13 0,2 C 94 % 1017,7 hPa 0,0 l/m 13,0 km/h (3 Bft) W-SW 247 0 min 0,000 mm 0,0 UV-I 26 W/m -0,6 C -5,5 C 19,3 km/h (3 Bft) 100,00 %
01.03.2016 08:14 0,1 C 94 % 1017,7 hPa 0,0 l/m 18,7 km/h (3 Bft) S-SW 202 0 min 0,000 mm 0,0 UV-I 26 W/m -0,7 C -8,9 C 25,7 km/h (4 Bft) 90,91 %
01.03.2016 08:15 0,1 C 94 % 1017,8 hPa 0,0 l/m 19,6 km/h (3 Bft) S-SW 209 0 min 0,000 mm 0,0 UV-I 27 W/m -0,7 C -9,3 C 27,4 km/h (4 Bft) 100,00 %
01.03.2016 08:16 0,1 C 94 % 1017,7 hPa 0,0 l/m 16,9 km/h (3 Bft) SW 228 0 min 0,000 mm 0,0 UV-I 29 W/m -0,7 C -7,9 C 25,7 km/h (4 Bft) 96,15 %
01.03.2016 08:17 0,1 C 94 % 1017,7 hPa 0,0 l/m 20,7 km/h (4 Bft) SW 235 0 min 0,000 mm 0,0 UV-I 30 W/m -0,7 C -9,8 C 33,8 km/h (5 Bft) 96,30 %
01.03.2016 08:18 0,1 C 94 % 1017,7 hPa 0,0 l/m 18,1 km/h (3 Bft) SW 226 0 min 0,000 mm 0,0 UV-I 30 W/m -0,7 C -8,6 C 24,1 km/h (4 Bft) 100,00 %
01.03.2016 08:19 0,1 C 94 % 1017,7 hPa 0,0 l/m 16,6 km/h (3 Bft) S-SW 208 0 min 0,000 mm 0,0 UV-I 30 W/m -0,7 C -7,8 C 24,1 km/h (4 Bft) 95,83 %
01.03.2016 08:20 0,1 C 94 % 1017,7 hPa 0,0 l/m 23,6 km/h (4 Bft) SW 234 0 min 0,000 mm 0,0 UV-I 32 W/m -0,7 C -11,0 C 29,0 km/h (5 Bft) 100,00 %
01.03.2016 08:21 0,1 C 94 % 1017,8 hPa 0,0 l/m 19,0 km/h (3 Bft) S-SW 208 0 min 0,000 mm 0,0 UV-I 34 W/m -0,7 C -9,0 C 25,7 km/h (4 Bft) 93,33 %
01.03.2016 08:22 0,1 C 94 % 1017,8 hPa 0,0 l/m 18,2 km/h (3 Bft) SW 236 0 min 0,000 mm 0,0 UV-I 34 W/m -0,7 C -8,6 C 24,1 km/h (4 Bft) 100,00 %
01.03.2016 08:23 0,1 C 94 % 1017,8 hPa 0,0 l/m 18,6 km/h (3 Bft) SW 229 0 min 0,000 mm 0,0 UV-I 33 W/m -0,7 C -8,8 C 25,7 km/h (4 Bft) 91,67 %
01.03.2016 08:24 0,1 C 94 % 1017,8 hPa 0,0 l/m 23,9 km/h (4 Bft) SW 234 0 min 0,000 mm 0,0 UV-I 35 W/m -0,7 C -11,2 C 30,6 km/h (5 Bft) 96,30 %
01.03.2016 08:25 0,1 C 94 % 1017,8 hPa 0,0 l/m 23,1 km/h (4 Bft) SW 223 0 min 0,000 mm 0,0 UV-I 37 W/m -0,7 C -10,8 C 32,2 km/h (5 Bft) 95,65 %
01.03.2016 08:26 0,1 C 94 % 1017,8 hPa 0,0 l/m 20,4 km/h (4 Bft) W-SW 238 0 min 0,000 mm 0,0 UV-I 37 W/m -0,7 C -9,7 C 30,6 km/h (5 Bft) 96,30 %
01.03.2016 08:27 0,1 C 94 % 1017,8 hPa 0,0 l/m 22,0 km/h (4 Bft) W 271 0 min 0,000 mm 0,0 UV-I 37 W/m -0,7 C -10,4 C 29,0 km/h (5 Bft) 100,00 %
01.03.2016 08:28 0,1 C 94 % 1017,8 hPa 0,0 l/m 18,4 km/h (3 Bft) SW 236 0 min 0,000 mm 0,0 UV-I 36 W/m -0,7 C -8,7 C 24,1 km/h (4 Bft) 96,15 %
01.03.2016 08:29 0,1 C 94 % 1017,8 hPa 0,0 l/m 17,9 km/h (3 Bft) W 279 0 min 0,000 mm 0,0 UV-I 38 W/m -0,7 C -8,5 C 24,1 km/h (4 Bft) 100,00 %
01.03.2016 08:30 0,1 C 94 % 1017,8 hPa 0,0 l/m 19,5 km/h (3 Bft) SW 223 0 min 0,000 mm 0,0 UV-I 39 W/m -0,7 C -9,3 C 25,7 km/h (4 Bft) 96,67 %
01.03.2016 08:31 0,1 C 94 % 1017,8 hPa 0,0 l/m 17,0 km/h (3 Bft) SW 217 0 min 0,000 mm 0,0 UV-I 35 W/m -0,7 C -8,0 C 22,5 km/h (4 Bft) 100,00 %
01.03.2016 08:32 0,1 C 94 % 1017,8 hPa 0,0 l/m 21,1 km/h (4 Bft) SW 224 0 min 0,000 mm 0,0 UV-I 34 W/m -0,7 C -10,0 C 27,4 km/h (4 Bft) 100,00 %
01.03.2016 08:33 0,1 C 94 % 1017,8 hPa 0,0 l/m 22,1 km/h (4 Bft) W-SW 244 0 min 0,000 mm 0,0 UV-I 38 W/m -0,7 C -10,4 C 27,4 km/h (4 Bft) 100,00 %
01.03.2016 08:34 0,1 C 94 % 1017,8 hPa 0,0 l/m 21,7 km/h (4 Bft) W-SW 241 0 min 0,000 mm 0,0 UV-I 44 W/m -0,7 C -10,3 C 30,6 km/h (5 Bft) 100,00 %
01.03.2016 08:35 0,1 C 94 % 1017,8 hPa 0,0 l/m 18,2 km/h (3 Bft) W 259 0 min 0,000 mm 0,0 UV-I 46 W/m -0,7 C -8,6 C 29,0 km/h (5 Bft) 100,00 %
01.03.2016 08:36 0,1 C 94 % 1017,8 hPa 0,0 l/m 14,0 km/h (3 Bft) SW 229 0 min 0,000 mm 0,0 UV-I 44 W/m -0,7 C -6,2 C 17,7 km/h (3 Bft) 98,55 %
01.03.2016 08:39 0,2 C 94 % 1017,9 hPa 0,0 l/m 17,8 km/h (3 Bft) W-SW 240 0 min 0,000 mm 0,0 UV-I 40 W/m -0,6 C -8,3 C 27,4 km/h (4 Bft) 98,88 %
01.03.2016 08:40 0,2 C 94 % 1017,9 hPa 0,0 l/m 23,5 km/h (4 Bft) SW 228 0 min 0,000 mm 0,0 UV-I 42 W/m -0,6 C -10,9 C 30,6 km/h (5 Bft) 100,00 %
01.03.2016 08:41 0,1 C 94 % 1017,9 hPa 0,0 l/m 20,2 km/h (4 Bft) SW 218 0 min 0,000 mm 0,0 UV-I 46 W/m -0,7 C -9,6 C 24,1 km/h (4 Bft) 100,00 %
01.03.2016 08:42 0,1 C 94 % 1017,9 hPa 0,0 l/m 20,4 km/h (4 Bft) S-SW 205 0 min 0,000 mm 0,0 UV-I 46 W/m -0,7 C -9,7 C 30,6 km/h (5 Bft) 100,00 %
01.03.2016 08:43 0,1 C 94 % 1017,8 hPa 0,0 l/m 20,1 km/h (4 Bft) SW 236 0 min 0,000 mm 0,0 UV-I 44 W/m -0,7 C -9,5 C 30,6 km/h (5 Bft) 92,31 %
01.03.2016 08:44 0,2 C 94 % 1017,9 hPa 0,0 l/m 15,0 km/h (3 Bft) SW 227 0 min 0,000 mm 0,0 UV-I 42 W/m -0,6 C -6,7 C 20,9 km/h (4 Bft) 96,30 %
01.03.2016 08:45 0,2 C 94 % 1017,9 hPa 0,0 l/m 18,9 km/h (3 Bft) W-SW 254 0 min 0,000 mm 0,0 UV-I 43 W/m -0,6 C -8,8 C 27,4 km/h (4 Bft) 93,33 %
01.03.2016 08:46 0,2 C 94 % 1017,9 hPa 0,0 l/m 16,9 km/h (3 Bft) W-NW 300 0 min 0,000 mm 0,0 UV-I 43 W/m -0,6 C -7,8 C 25,7 km/h (4 Bft) 100,00 %
01.03.2016 08:47 0,2 C 94 % 1017,9 hPa 0,0 l/m 20,7 km/h (4 Bft) SW 233 0 min 0,000 mm 0,0 UV-I 42 W/m -0,6 C -9,7 C 25,7 km/h (4 Bft) 100,00 %
01.03.2016 08:48 0,2 C 94 % 1018,0 hPa 0,0 l/m 17,8 km/h (3 Bft) W 259 0 min 0,000 mm 0,0 UV-I 38 W/m -0,6 C -8,3 C 20,9 km/h (4 Bft) 100,00 %
01.03.2016 08:49 0,2 C 94 % 1018,0 hPa 0,0 l/m 17,4 km/h (3 Bft) W-SW 246 0 min 0,000 mm 0,0 UV-I 39 W/m -0,6 C -8,1 C 25,7 km/h (4 Bft) 100,00 %
01.03.2016 08:50 0,2 C 94 % 1018,0 hPa 0,0 l/m 16,4 km/h (3 Bft) SW 219 0 min 0,000 mm 0,0 UV-I 40 W/m -0,6 C -7,5 C 27,4 km/h (4 Bft) 100,00 %
01.03.2016 08:51 0,2 C 94 % 1018,0 hPa 0,0 l/m 15,0 km/h (3 Bft) S-SW 213 0 min 0,000 mm 0,0 UV-I 38 W/m -0,6 C -6,7 C 24,1 km/h (4 Bft) 100,00 %
01.03.2016 08:52 0,2 C 94 % 1018,0 hPa 0,0 l/m 12,8 km/h (3 Bft) W-SW 244 0 min 0,000 mm 0,0 UV-I 37 W/m -0,6 C -5,3 C 17,7 km/h (3 Bft) 96,55 %
01.03.2016 08:53 0,2 C 93 % 1018,0 hPa 0,0 l/m 20,1 km/h (4 Bft) SW 221 0 min 0,000 mm 0,0 UV-I 37 W/m -0,8 C -9,4 C 27,4 km/h (4 Bft) 100,00 %
01.03.2016 08:54 0,2 C 93 % 1018,0 hPa 0,0 l/m 15,4 km/h (3 Bft) SW 218 0 min 0,000 mm 0,0 UV-I 39 W/m -0,8 C -7,0 C 22,5 km/h (4 Bft) 100,00 %
01.03.2016 08:55 0,2 C 94 % 1018,0 hPa 0,0 l/m 17,7 km/h (3 Bft) SW 234 0 min 0,000 mm 0,0 UV-I 38 W/m -0,6 C -8,2 C 24,1 km/h (4 Bft) 100,00 %
01.03.2016 08:56 0,2 C 93 % 1018,0 hPa 0,0 l/m 13,6 km/h (3 Bft) SW 215 0 min 0,000 mm 0,0 UV-I 36 W/m -0,8 C -5,9 C 17,7 km/h (3 Bft) 100,00 %
01.03.2016 08:57 0,2 C 94 % 1018,0 hPa 0,0 l/m 13,0 km/h (3 Bft) SW 219 0 min 0,000 mm 0,0 UV-I 37 W/m -0,6 C -5,5 C 22,5 km/h (4 Bft) 91,67 %
01.03.2016 08:58 0,2 C 94 % 1018,1 hPa 0,0 l/m 14,9 km/h (3 Bft) SW 220 0 min 0,000 mm 0,0 UV-I 39 W/m -0,6 C -6,7 C 20,9 km/h (4 Bft) 100,00 %
01.03.2016 08:59 0,2 C 94 % 1018,1 hPa 0,0 l/m 18,2 km/h (3 Bft) SW 225 0 min 0,000 mm 0,0 UV-I 39 W/m -0,6 C -8,5 C 24,1 km/h (4 Bft) 91,67 %
01.03.2016 09:00 0,2 C 93 % 1018,0 hPa 0,0 l/m 16,4 km/h (3 Bft) SW 236 0 min 0,000 mm 0,0 UV-I 42 W/m -0,8 C -7,5 C 24,1 km/h (4 Bft) 100,00 %
01.03.2016 09:01 0,2 C 93 % 1018,0 hPa 0,0 l/m 17,4 km/h (3 Bft) SW 223 0 min 0,025 mm 0,0 UV-I 42 W/m -0,8 C -8,1 C 24,1 km/h (4 Bft) 100,00 %
01.03.2016 09:02 0,2 C 93 % 1018,1 hPa 0,0 l/m 21,5 km/h (4 Bft) W-SW 240 0 min 0,000 mm 0,0 UV-I 44 W/m -0,8 C -10,0 C 29,0 km/h (5 Bft) 95,65 %
01.03.2016 09:03 0,2 C 93 % 1018,0 hPa 0,0 l/m 16,4 km/h (3 Bft) W-SW 257 0 min 0,000 mm 0,0 UV-I 46 W/m -0,8 C -7,5 C 27,4 km/h (4 Bft) 100,00 %
01.03.2016 09:04 0,2 C 93 % 1018,1 hPa 0,0 l/m 20,0 km/h (4 Bft) W-SW 237 0 min 0,000 mm 0,0 UV-I 42 W/m -0,8 C -9,4 C 25,7 km/h (4 Bft) 100,00 %
01.03.2016 09:05 0,2 C 93 % 1018,1 hPa 0,0 l/m 17,2 km/h (3 Bft) W-SW 250 0 min 0,000 mm 0,0 UV-I 39 W/m -0,8 C -8,0 C 25,7 km/h (4 Bft) 100,00 %
01.03.2016 09:06 0,2 C 93 % 1018,1 hPa 0,0 l/m 17,5 km/h (3 Bft) W-SW 246 0 min 0,000 mm 0,0 UV-I 40 W/m -0,8 C -8,1 C 20,9 km/h (4 Bft) 100,00 %
01.03.2016 09:07 0,2 C 93 % 1018,2 hPa 0,0 l/m 14,0 km/h (3 Bft) W-SW 246 0 min 0,000 mm 0,0 UV-I 42 W/m -0,8 C -6,1 C 19,3 km/h (3 Bft) 100,00 %
01.03.2016 09:08 0,2 C 93 % 1018,1 hPa 0,0 l/m 14,4 km/h (3 Bft) SW 229 0 min 0,000 mm 0,0 UV-I 42 W/m -0,8 C -6,4 C 22,5 km/h (4 Bft) 100,00 %
01.03.2016 09:09 0,2 C 93 % 1018,1 hPa 0,0 l/m 14,1 km/h (3 Bft) SW 215 0 min 0,000 mm 0,0 UV-I 43 W/m -0,8 C -6,2 C 19,3 km/h (3 Bft) 100,00 %
01.03.2016 09:10 0,2 C 93 % 1018,2 hPa 0,0 l/m 16,7 km/h (3 Bft) W-SW 245 0 min 0,000 mm 0,0 UV-I 42 W/m -0,8 C -7,7 C 20,9 km/h (4 Bft) 100,00 %
01.03.2016 09:11 0,2 C 93 % 1018,2 hPa 0,0 l/m 16,7 km/h (3 Bft) W-SW 255 0 min 0,000 mm 0,0 UV-I 44 W/m -0,8 C -7,7 C 24,1 km/h (4 Bft) 100,00 %
01.03.2016 09:12 0,2 C 93 % 1018,2 hPa 0,0 l/m 14,4 km/h (3 Bft) W-SW 244 0 min 0,000 mm 0,0 UV-I 43 W/m -0,8 C -6,4 C 19,3 km/h (3 Bft) 100,00 %
01.03.2016 09:13 0,2 C 93 % 1018,2 hPa 0,0 l/m 13,7 km/h (3 Bft) SW 215 0 min 0,000 mm 0,0 UV-I 47 W/m -0,8 C -5,9 C 20,9 km/h (4 Bft) 100,00 %
01.03.2016 09:14 0,2 C 93 % 1018,2 hPa 0,0 l/m 16,4 km/h (3 Bft) S-SW 205 0 min 0,000 mm 0,0 UV-I 49 W/m -0,8 C -7,5 C 22,5 km/h (4 Bft) 100,00 %
01.03.2016 09:15 0,2 C 93 % 1018,2 hPa 0,0 l/m 14,0 km/h (3 Bft) W 263 0 min 0,000 mm 0,0 UV-I 50 W/m -0,8 C -6,1 C 20,9 km/h (4 Bft) 100,00 %
01.03.2016 09:16 0,2 C 93 % 1018,2 hPa 0,0 l/m 13,5 km/h (3 Bft) W-SW 242 0 min 0,000 mm 0,0 UV-I 48 W/m -0,8 C -5,8 C 20,9 km/h (4 Bft) 100,00 %
01.03.2016 09:17 0,2 C 93 % 1018,2 hPa 0,0 l/m 16,2 km/h (3 Bft) W-SW 257 0 min 0,000 mm 0,0 UV-I 47 W/m -0,8 C -7,4 C 24,1 km/h (4 Bft) 100,00 %
01.03.2016 09:18 0,3 C 93 % 1018,2 hPa 0,0 l/m 17,2 km/h (3 Bft) W-SW 252 0 min 0,000 mm 0,0 UV-I 46 W/m -0,7 C -7,9 C 20,9 km/h (4 Bft) 100,00 %
01.03.2016 09:19 0,3 C 93 % 1018,2 hPa 0,0 l/m 18,8 km/h (3 Bft) SW 234 0 min 0,000 mm 0,0 UV-I 42 W/m -0,7 C -8,7 C 25,7 km/h (4 Bft) 100,00 %
01.03.2016 09:20 0,2 C 93 % 1018,2 hPa 0,0 l/m 15,3 km/h (3 Bft) SW 223 0 min 0,000 mm 0,0 UV-I 42 W/m -0,8 C -6,9 C 20,9 km/h (4 Bft) 100,00 %
01.03.2016 09:21 0,3 C 93 % 1018,3 hPa 0,0 l/m 14,7 km/h (3 Bft) W-SW 242 0 min 0,000 mm 0,0 UV-I 44 W/m -0,7 C -6,4 C 17,7 km/h (3 Bft) 100,00 %
01.03.2016 09:22 0,2 C 93 % 1018,3 hPa 0,0 l/m 12,7 km/h (3 Bft) SW 229 0 min 0,000 mm 0,0 UV-I 46 W/m -0,8 C -5,3 C 16,1 km/h (3 Bft) 100,00 %
01.03.2016 09:23 0,2 C 93 % 1018,3 hPa 0,0 l/m 19,9 km/h (4 Bft) W-SW 248 0 min 0,000 mm 0,0 UV-I 42 W/m -0,8 C -9,3 C 25,7 km/h (4 Bft) 100,00 %
01.03.2016 09:24 0,2 C 93 % 1018,3 hPa 0,0 l/m 16,6 km/h (3 Bft) S-SW 209 0 min 0,000 mm 0,0 UV-I 41 W/m -0,8 C -7,7 C 22,5 km/h (4 Bft) 100,00 %
01.03.2016 09:25 0,2 C 93 % 1018,3 hPa 0,0 l/m 20,5 km/h (4 Bft) SW 229 0 min 0,000 mm 0,0 UV-I 38 W/m -0,8 C -9,6 C 25,7 km/h (4 Bft) 100,00 %
01.03.2016 09:26 0,2 C 93 % 1018,3 hPa 0,0 l/m 17,0 km/h (3 Bft) SW 223 0 min 0,000 mm 0,0 UV-I 41 W/m -0,8 C -7,9 C 22,5 km/h (4 Bft) 100,00 %
01.03.2016 09:27 0,2 C 93 % 1018,3 hPa 0,0 l/m 21,1 km/h (4 Bft) W 259 0 min 0,000 mm 0,0 UV-I 50 W/m -0,8 C -9,9 C 25,7 km/h (4 Bft) 93,75 %
01.03.2016 09:28 0,2 C 93 % 1018,3 hPa 0,0 l/m 17,1 km/h (3 Bft) W-SW 243 0 min 0,000 mm 0,0 UV-I 54 W/m -0,8 C -7,9 C 22,5 km/h (4 Bft) 100,00 %
01.03.2016 09:29 0,2 C 93 % 1018,3 hPa 0,0 l/m 14,7 km/h (3 Bft) SW 222 0 min 0,000 mm 0,0 UV-I 53 W/m -0,8 C -6,6 C 20,9 km/h (4 Bft) 91,67 %
01.03.2016 09:30 0,2 C 93 % 1018,3 hPa 0,0 l/m 20,9 km/h (4 Bft) SW 225 0 min 0,000 mm 0,0 UV-I 56 W/m -0,8 C -9,8 C 25,7 km/h (4 Bft) 100,00 %
01.03.2016 09:31 0,2 C 93 % 1018,3 hPa 0,0 l/m 17,8 km/h (3 Bft) W-SW 250 0 min 0,000 mm 0,0 UV-I 55 W/m -0,8 C -8,3 C 22,5 km/h (4 Bft) 100,00 %
01.03.2016 09:32 0,3 C 93 % 1018,3 hPa 0,0 l/m 18,9 km/h (3 Bft) W-SW 247 0 min 0,000 mm 0,0 UV-I 52 W/m -0,7 C -8,7 C 27,4 km/h (4 Bft) 100,00 %
01.03.2016 09:33 0,3 C 93 % 1018,3 hPa 0,0 l/m 16,6 km/h (3 Bft) S 189 0 min 0,000 mm 0,0 UV-I 51 W/m -0,7 C -7,5 C 20,9 km/h (4 Bft) 100,00 %
01.03.2016 09:34 0,3 C 93 % 1018,3 hPa 0,0 l/m 21,0 km/h (4 Bft) W-SW 241 0 min 0,000 mm 0,0 UV-I 53 W/m -0,7 C -9,7 C 25,7 km/h (4 Bft) 100,00 %
01.03.2016 09:35 0,3 C 93 % 1018,3 hPa 0,0 l/m 16,3 km/h (3 Bft) W-SW 252 0 min 0,000 mm 0,0 UV-I 51 W/m -0,7 C -7,4 C 22,5 km/h (4 Bft) 100,00 %
01.03.2016 09:36 0,3 C 93 % 1018,4 hPa 0,0 l/m 17,8 km/h (3 Bft) SW 220 0 min 0,000 mm 0,0 UV-I 51 W/m -0,7 C -8,2 C 24,1 km/h (4 Bft) 100,00 %
01.03.2016 09:37 0,3 C 93 % 1018,4 hPa 0,0 l/m 20,2 km/h (4 Bft) W-SW 248 0 min 0,000 mm 0,0 UV-I 46 W/m -0,7 C -9,3 C 32,2 km/h (5 Bft) 100,00 %
01.03.2016 09:38 0,3 C 93 % 1018,3 hPa 0,0 l/m 16,2 km/h (3 Bft) S-SW 211 0 min 0,000 mm 0,0 UV-I 48 W/m -0,7 C -7,3 C 24,1 km/h (4 Bft) 100,00 %
01.03.2016 09:39 0,3 C 93 % 1018,4 hPa 0,0 l/m 13,4 km/h (3 Bft) SW 223 0 min 0,000 mm 0,0 UV-I 49 W/m -0,7 C -5,6 C 19,3 km/h (3 Bft) 100,00 %
01.03.2016 09:40 0,3 C 93 % 1018,4 hPa 0,0 l/m 16,5 km/h (3 Bft) SW 223 0 min 0,000 mm 0,0 UV-I 49 W/m -0,7 C -7,5 C 20,9 km/h (4 Bft) 100,00 %
01.03.2016 09:41 0,3 C 93 % 1018,4 hPa 0,0 l/m 19,6 km/h (3 Bft) W 266 0 min 0,000 mm 0,0 UV-I 47 W/m -0,7 C -9,1 C 24,1 km/h (4 Bft) 100,00 %
01.03.2016 09:42 0,3 C 93 % 1018,4 hPa 0,0 l/m 15,9 km/h (3 Bft) W-SW 247 0 min 0,000 mm 0,0 UV-I 45 W/m -0,7 C -7,1 C 20,9 km/h (4 Bft) 100,00 %
01.03.2016 09:43 0,3 C 93 % 1018,4 hPa 0,0 l/m 17,9 km/h (3 Bft) SW 228 0 min 0,000 mm 0,0 UV-I 43 W/m -0,7 C -8,2 C 24,1 km/h (4 Bft) 100,00 %
01.03.2016 09:44 0,3 C 93 % 1018,4 hPa 0,0 l/m 13,9 km/h (3 Bft) W-SW 238 0 min 0,000 mm 0,0 UV-I 40 W/m -0,7 C -5,9 C 17,7 km/h (3 Bft) 100,00 %
01.03.2016 09:45 0,3 C 93 % 1018,4 hPa 0,0 l/m 15,9 km/h (3 Bft) W 263 0 min 0,000 mm 0,0 UV-I 40 W/m -0,7 C -7,1 C 20,9 km/h (4 Bft) 95,83 %
01.03.2016 09:46 0,3 C 93 % 1018,4 hPa 0,0 l/m 16,0 km/h (3 Bft) SW 225 0 min 0,000 mm 0,0 UV-I 42 W/m -0,7 C -7,2 C 22,5 km/h (4 Bft) 100,00 %
01.03.2016 09:47 0,3 C 93 % 1018,3 hPa 0,0 l/m 17,2 km/h (3 Bft) W-SW 248 0 min 0,000 mm 0,0 UV-I 46 W/m -0,7 C -7,9 C 20,9 km/h (4 Bft) 100,00 %
01.03.2016 09:48 0,3 C 92 % 1018,3 hPa 0,0 l/m 16,5 km/h (3 Bft) W-SW 248 0 min 0,000 mm 0,0 UV-I 44 W/m -0,8 C -7,5 C 20,9 km/h (4 Bft) 100,00 %
01.03.2016 09:49 0,3 C 93 % 1018,4 hPa 0,0 l/m 20,2 km/h (4 Bft) W-SW 250 0 min 0,000 mm 0,0 UV-I 47 W/m -0,7 C -9,3 C 25,7 km/h (4 Bft) 100,00 %
01.03.2016 09:50 0,3 C 93 % 1018,3 hPa 0,0 l/m 17,5 km/h (3 Bft) W-SW 242 0 min 0,000 mm 0,0 UV-I 54 W/m -0,7 C -8,0 C 22,5 km/h (4 Bft) 100,00 %
01.03.2016 09:51 0,3 C 93 % 1018,3 hPa 0,0 l/m 13,5 km/h (3 Bft) S-SW 207 0 min 0,000 mm 0,0 UV-I 61 W/m -0,7 C -5,7 C 19,3 km/h (3 Bft) 95,65 %
01.03.2016 09:52 0,3 C 93 % 1018,3 hPa 0,0 l/m 14,6 km/h (3 Bft) W-SW 242 0 min 0,000 mm 0,0 UV-I 62 W/m -0,7 C -6,4 C 19,3 km/h (3 Bft) 100,00 %
01.03.2016 09:53 0,3 C 92 % 1018,4 hPa 0,0 l/m 17,6 km/h (3 Bft) SW 215 0 min 0,000 mm 0,0 UV-I 65 W/m -0,8 C -8,1 C 27,4 km/h (4 Bft) 100,00 %
01.03.2016 09:54 0,3 C 92 % 1018,4 hPa 0,0 l/m 23,0 km/h (4 Bft) W-SW 240 0 min 0,000 mm 0,0 UV-I 66 W/m -0,8 C -10,5 C 27,4 km/h (4 Bft) 100,00 %
01.03.2016 09:55 0,3 C 92 % 1018,4 hPa 0,0 l/m 20,5 km/h (4 Bft) W-SW 245 0 min 0,000 mm 0,0 UV-I 69 W/m -0,8 C -9,5 C 25,7 km/h (4 Bft) 100,00 %
01.03.2016 09:56 0,3 C 92 % 1018,3 hPa 0,0 l/m 15,9 km/h (3 Bft) S 173 0 min 0,000 mm 0,0 UV-I 68 W/m -0,8 C -7,1 C 22,5 km/h (4 Bft) 100,00 %
01.03.2016 09:57 0,3 C 92 % 1018,4 hPa 0,0 l/m 19,6 km/h (3 Bft) W-SW 242 0 min 0,000 mm 0,0 UV-I 66 W/m -0,8 C -9,1 C 25,7 km/h (4 Bft) 100,00 %
01.03.2016 09:58 0,3 C 92 % 1018,4 hPa 0,0 l/m 18,0 km/h (3 Bft) W-SW 245 0 min 0,000 mm 0,0 UV-I 67 W/m -0,8 C -8,3 C 22,5 km/h (4 Bft) 100,00 %
01.03.2016 09:59 0,3 C 92 % 1018,4 hPa 0,0 l/m 19,9 km/h (4 Bft) SW 226 0 min 0,000 mm 0,0 UV-I 70 W/m -0,8 C -9,2 C 29,0 km/h (5 Bft) 96,88 %
01.03.2016 10:00 0,3 C 92 % 1018,3 hPa 0,0 l/m 15,3 km/h (3 Bft) SW 227 0 min 0,026 mm 0,0 UV-I 72 W/m -0,8 C -6,8 C 25,7 km/h (4 Bft) 100,00 %
01.03.2016 10:01 0,3 C 92 % 1018,4 hPa 0,0 l/m 19,0 km/h (3 Bft) S 182 0 min 0,000 mm 0,0 UV-I 74 W/m -0,8 C -8,8 C 25,7 km/h (4 Bft) 100,00 %
01.03.2016 10:02 0,3 C 92 % 1018,4 hPa 0,0 l/m 18,0 km/h (3 Bft) W-SW 244 0 min 0,000 mm 0,0 UV-I 73 W/m -0,8 C -8,3 C 24,1 km/h (4 Bft) 100,00 %
01.03.2016 10:03 0,3 C 92 % 1018,4 hPa 0,0 l/m 16,8 km/h (3 Bft) W 274 0 min 0,000 mm 0,0 UV-I 78 W/m -0,8 C -7,6 C 22,5 km/h (4 Bft) 95,65 %
01.03.2016 10:04 0,3 C 92 % 1018,4 hPa 0,0 l/m 16,2 km/h (3 Bft) S-SW 211 0 min 0,000 mm 0,0 UV-I 81 W/m -0,8 C -7,3 C 20,9 km/h (4 Bft) 100,00 %
01.03.2016 10:05 0,4 C 92 % 1018,4 hPa 0,0 l/m 14,6 km/h (3 Bft) W-SW 248 0 min 0,000 mm 0,0 UV-I 81 W/m -0,7 C -6,3 C 20,9 km/h (4 Bft) 95,65 %
01.03.2016 10:06 0,4 C 92 % 1018,4 hPa 0,0 l/m 16,6 km/h (3 Bft) W 266 0 min 0,000 mm 0,0 UV-I 80 W/m -0,7 C -7,4 C 22,5 km/h (4 Bft) 96,30 %
01.03.2016 10:07 0,4 C 92 % 1018,4 hPa 0,0 l/m 17,9 km/h (3 Bft) W-SW 250 0 min 0,000 mm 0,0 UV-I 85 W/m -0,7 C -8,1 C 24,1 km/h (4 Bft) 83,33 %
01.03.2016 10:08 0,4 C 92 % 1018,4 hPa 0,0 l/m 20,6 km/h (4 Bft) W-SW 256 0 min 0,000 mm 0,0 UV-I 93 W/m -0,7 C -9,4 C 27,4 km/h (4 Bft) 100,00 %
01.03.2016 10:09 0,4 C 91 % 1018,3 hPa 0,0 l/m 14,3 km/h (3 Bft) W 261 0 min 0,000 mm 0,0 UV-I 94 W/m -0,9 C -6,1 C 22,5 km/h (4 Bft) 96,30 %
01.03.2016 10:10 0,4 C 91 % 1018,4 hPa 0,0 l/m 16,0 km/h (3 Bft) S-SW 198 0 min 0,000 mm 0,0 UV-I 91 W/m -0,9 C -7,1 C 25,7 km/h (4 Bft) 96,15 %
01.03.2016 10:11 0,4 C 91 % 1018,4 hPa 0,0 l/m 16,6 km/h (3 Bft) SW 229 0 min 0,000 mm 0,0 UV-I 86 W/m -0,9 C -7,4 C 25,7 km/h (4 Bft) 100,00 %
01.03.2016 10:12 0,4 C 92 % 1018,4 hPa 0,0 l/m 16,8 km/h (3 Bft) SW 221 0 min 0,000 mm 0,0 UV-I 85 W/m -0,7 C -7,5 C 22,5 km/h (4 Bft) 96,15 %
01.03.2016 10:13 0,4 C 92 % 1018,3 hPa 0,0 l/m 14,5 km/h (3 Bft) W-SW 243 0 min 0,000 mm 0,0 UV-I 83 W/m -0,7 C -6,2 C 17,7 km/h (3 Bft) 100,00 %
01.03.2016 10:14 0,4 C 92 % 1018,4 hPa 0,0 l/m 16,4 km/h (3 Bft) SW 229 0 min 0,000 mm 0,0 UV-I 86 W/m -0,7 C -7,3 C 22,5 km/h (4 Bft) 96,55 %
01.03.2016 10:15 0,4 C 91 % 1018,3 hPa 0,0 l/m 20,8 km/h (4 Bft) W-SW 248 0 min 0,000 mm 0,0 UV-I 94 W/m -0,9 C -9,5 C 25,7 km/h (4 Bft) 100,00 %
01.03.2016 10:16 0,5 C 91 % 1018,4 hPa 0,0 l/m 18,0 km/h (3 Bft) W-SW 249 0 min 0,000 mm 0,0 UV-I 93 W/m -0,8 C -8,0 C 25,7 km/h (4 Bft) 95,65 %
01.03.2016 10:17 0,4 C 91 % 1018,4 hPa 0,0 l/m 18,9 km/h (3 Bft) W-SW 244 0 min 0,000 mm 0,0 UV-I 88 W/m -0,9 C -8,6 C 29,0 km/h (5 Bft) 95,83 %
01.03.2016 10:18 0,5 C 91 % 1018,3 hPa 0,0 l/m 14,5 km/h (3 Bft) S-SW 211 0 min 0,000 mm 0,0 UV-I 86 W/m -0,8 C -6,1 C 22,5 km/h (4 Bft) 95,65 %
01.03.2016 10:19 0,5 C 91 % 1018,3 hPa 0,0 l/m 22,1 km/h (4 Bft) SW 219 0 min 0,000 mm 0,0 UV-I 85 W/m -0,8 C -9,9 C 29,0 km/h (5 Bft) 96,30 %
01.03.2016 10:20 0,5 C 91 % 1018,3 hPa 0,0 l/m 18,7 km/h (3 Bft) W-SW 240 0 min 0,000 mm 0,0 UV-I 90 W/m -0,8 C -8,4 C 27,4 km/h (4 Bft) 100,00 %
01.03.2016 10:21 0,5 C 91 % 1018,3 hPa 0,0 l/m 20,3 km/h (4 Bft) SW 232 0 min 0,000 mm 0,0 UV-I 103 W/m -0,8 C -9,1 C 27,4 km/h (4 Bft) 95,83 %
01.03.2016 10:22 0,5 C 91 % 1018,3 hPa 0,0 l/m 17,9 km/h (3 Bft) W-SW 245 0 min 0,000 mm 0,0 UV-I 107 W/m -0,8 C -8,0 C 25,7 km/h (4 Bft) 100,00 %
01.03.2016 10:23 0,5 C 91 % 1018,3 hPa 0,0 l/m 18,0 km/h (3 Bft) W-SW 252 0 min 0,000 mm 0,0 UV-I 106 W/m -0,8 C -8,0 C 25,7 km/h (4 Bft) 96,15 %
01.03.2016 10:24 0,5 C 91 % 1018,3 hPa 0,0 l/m 16,8 km/h (3 Bft) SW 221 0 min 0,000 mm 0,0 UV-I 112 W/m -0,8 C -7,4 C 22,5 km/h (4 Bft) 96,15 %
01.03.2016 10:25 0,6 C 91 % 1018,3 hPa 0,0 l/m 19,2 km/h (3 Bft) SW 223 0 min 0,000 mm 0,0 UV-I 109 W/m -0,7 C -8,5 C 25,7 km/h (4 Bft) 96,67 %
01.03.2016 10:26 0,6 C 91 % 1018,3 hPa 0,0 l/m 20,2 km/h (4 Bft) SW 236 0 min 0,000 mm 0,0 UV-I 103 W/m -0,7 C -8,9 C 29,0 km/h (5 Bft) 91,30 %
01.03.2016 10:27 0,6 C 91 % 1018,3 hPa 0,0 l/m 13,5 km/h (3 Bft) W-SW 250 0 min 0,000 mm 0,0 UV-I 98 W/m -0,7 C -5,3 C 17,7 km/h (3 Bft) 100,00 %
01.03.2016 10:28 0,6 C 91 % 1018,3 hPa 0,0 l/m 19,8 km/h (3 Bft) W-SW 254 0 min 0,000 mm 0,0 UV-I 103 W/m -0,7 C -8,8 C 24,1 km/h (4 Bft) 96,30 %
01.03.2016 10:29 0,6 C 91 % 1018,3 hPa 0,0 l/m 16,3 km/h (3 Bft) W 267 0 min 0,000 mm 0,0 UV-I 108 W/m -0,7 C -7,0 C 22,5 km/h (4 Bft) 100,00 %
01.03.2016 10:30 0,6 C 91 % 1018,3 hPa 0,0 l/m 19,7 km/h (3 Bft) W-SW 240 0 min 0,000 mm 0,2 UV-I 108 W/m -0,7 C -8,7 C 25,7 km/h (4 Bft) 96,15 %
01.03.2016 10:31 0,6 C 91 % 1018,3 hPa 0,0 l/m 13,7 km/h (3 Bft) W 259 0 min 0,000 mm 0,5 UV-I 112 W/m -0,7 C -5,5 C 20,9 km/h (4 Bft) 100,00 %
01.03.2016 10:32 0,6 C 91 % 1018,3 hPa 0,0 l/m 14,3 km/h (3 Bft) S-SW 204 0 min 0,000 mm 0,2 UV-I 109 W/m -0,7 C -5,8 C 19,3 km/h (3 Bft) 95,83 %
01.03.2016 10:33 0,6 C 91 % 1018,3 hPa 0,0 l/m 16,6 km/h (3 Bft) W-SW 244 0 min 0,000 mm 0,0 UV-I 97 W/m -0,7 C -7,2 C 20,9 km/h (4 Bft) 100,00 %
01.03.2016 10:34 0,6 C 91 % 1018,3 hPa 0,0 l/m 17,6 km/h (3 Bft) W-SW 253 0 min 0,000 mm 0,0 UV-I 88 W/m -0,7 C -7,7 C 24,1 km/h (4 Bft) 95,83 %
01.03.2016 10:35 0,6 C 91 % 1018,3 hPa 0,0 l/m 23,4 km/h (4 Bft) SW 230 0 min 0,000 mm 0,0 UV-I 81 W/m -0,7 C -10,3 C 27,4 km/h (4 Bft) 96,55 %
01.03.2016 10:36 0,6 C 91 % 1018,4 hPa 0,0 l/m 18,9 km/h (3 Bft) W-SW 244 0 min 0,000 mm 0,0 UV-I 77 W/m -0,7 C -8,3 C 25,7 km/h (4 Bft) 100,00 %
01.03.2016 10:37 0,6 C 90 % 1018,4 hPa 0,0 l/m 18,0 km/h (3 Bft) SW 217 0 min 0,000 mm 0,0 UV-I 71 W/m -0,8 C -7,9 C 22,5 km/h (4 Bft) 100,00 %
01.03.2016 10:38 0,6 C 90 % 1018,4 hPa 0,0 l/m 21,5 km/h (4 Bft) W-SW 242 0 min 0,000 mm 0,0 UV-I 67 W/m -0,8 C -9,5 C 29,0 km/h (5 Bft) 100,00 %
01.03.2016 10:39 0,6 C 90 % 1018,4 hPa 0,0 l/m 16,5 km/h (3 Bft) W-SW 238 0 min 0,000 mm 0,0 UV-I 62 W/m -0,8 C -7,1 C 22,5 km/h (4 Bft) 100,00 %
01.03.2016 10:40 0,5 C 90 % 1018,4 hPa 0,0 l/m 19,3 km/h (3 Bft) W-SW 246 0 min 0,000 mm 0,0 UV-I 65 W/m -0,9 C -8,7 C 24,1 km/h (4 Bft) 100,00 %
01.03.2016 10:41 0,5 C 90 % 1018,4 hPa 0,0 l/m 18,6 km/h (3 Bft) SW 234 0 min 0,000 mm 0,0 UV-I 69 W/m -0,9 C -8,3 C 22,5 km/h (4 Bft) 100,00 %
01.03.2016 10:42 0,5 C 90 % 1018,4 hPa 0,0 l/m 19,2 km/h (3 Bft) W 261 0 min 0,000 mm 0,0 UV-I 77 W/m -0,9 C -8,6 C 25,7 km/h (4 Bft) 100,00 %
01.03.2016 10:43 0,5 C 90 % 1018,4 hPa 0,0 l/m 20,0 km/h (4 Bft) W 263 0 min 0,000 mm 0,0 UV-I 74 W/m -0,9 C -9,0 C 25,7 km/h (4 Bft) 96,15 %
01.03.2016 10:44 0,5 C 90 % 1018,4 hPa 0,0 l/m 17,4 km/h (3 Bft) SW 217 0 min 0,000 mm 0,0 UV-I 63 W/m -0,9 C -7,7 C 24,1 km/h (4 Bft) 95,83 %
01.03.2016 10:45 0,5 C 90 % 1018,5 hPa 0,0 l/m 21,3 km/h (4 Bft) SW 223 0 min 0,000 mm 0,0 UV-I 60 W/m -0,9 C -9,6 C 27,4 km/h (4 Bft) 100,00 %
01.03.2016 10:46 0,5 C 90 % 1018,5 hPa 0,0 l/m 17,9 km/h (3 Bft) W 261 0 min 0,000 mm 0,0 UV-I 68 W/m -0,9 C -8,0 C 20,9 km/h (4 Bft) 100,00 %
01.03.2016 10:47 0,5 C 90 % 1018,5 hPa 0,0 l/m 14,0 km/h (3 Bft) W 261 0 min 0,000 mm 0,0 UV-I 75 W/m -0,9 C -5,8 C 17,7 km/h (3 Bft) 100,00 %
01.03.2016 10:48 0,5 C 90 % 1018,5 hPa 0,0 l/m 15,4 km/h (3 Bft) W-SW 238 0 min 0,000 mm 0,0 UV-I 73 W/m -0,9 C -6,6 C 22,5 km/h (4 Bft) 95,83 %
01.03.2016 10:49 0,5 C 90 % 1018,4 hPa 0,0 l/m 17,9 km/h (3 Bft) S-SW 211 0 min 0,000 mm 0,0 UV-I 69 W/m -0,9 C -8,0 C 24,1 km/h (4 Bft) 95,65 %
01.03.2016 10:50 0,6 C 90 % 1018,5 hPa 0,0 l/m 12,9 km/h (3 Bft) SW 223 0 min 0,000 mm 0,0 UV-I 64 W/m -0,8 C -4,9 C 16,1 km/h (3 Bft) 95,83 %
01.03.2016 10:51 0,6 C 90 % 1018,5 hPa 0,0 l/m 14,9 km/h (3 Bft) SW 234 0 min 0,000 mm 0,0 UV-I 57 W/m -0,8 C -6,2 C 22,5 km/h (4 Bft) 100,00 %
01.03.2016 10:52 0,6 C 90 % 1018,5 hPa 0,0 l/m 16,5 km/h (3 Bft) W-SW 252 0 min 0,000 mm 0,0 UV-I 58 W/m -0,8 C -7,1 C 20,9 km/h (4 Bft) 100,00 %
01.03.2016 10:53 0,6 C 90 % 1018,5 hPa 0,0 l/m 14,2 km/h (3 Bft) SW 217 0 min 0,000 mm 0,0 UV-I 61 W/m -0,8 C -5,8 C 19,3 km/h (3 Bft) 96,30 %
01.03.2016 10:54 0,6 C 90 % 1018,5 hPa 0,0 l/m 14,5 km/h (3 Bft) SW 229 0 min 0,000 mm 0,0 UV-I 65 W/m -0,8 C -6,0 C 20,9 km/h (4 Bft) 92,86 %
01.03.2016 10:55 0,5 C 90 % 1018,5 hPa 0,0 l/m 18,8 km/h (3 Bft) SW 225 0 min 0,000 mm 0,0 UV-I 60 W/m -0,9 C -8,4 C 27,4 km/h (4 Bft) 100,00 %
01.03.2016 10:56 0,6 C 90 % 1018,5 hPa 0,0 l/m 20,1 km/h (4 Bft) SW 235 0 min 0,000 mm 0,0 UV-I 62 W/m -0,8 C -8,9 C 27,4 km/h (4 Bft) 94,12 %
01.03.2016 10:57 0,6 C 89 % 1018,5 hPa 0,0 l/m 19,4 km/h (3 Bft) W-SW 244 0 min 0,000 mm 0,0 UV-I 74 W/m -1,0 C -8,6 C 24,1 km/h (4 Bft) 100,00 %
01.03.2016 10:58 0,6 C 89 % 1018,5 hPa 0,0 l/m 15,6 km/h (3 Bft) SW 236 0 min 0,000 mm 0,0 UV-I 74 W/m -1,0 C -6,6 C 22,5 km/h (4 Bft) 100,00 %
01.03.2016 10:59 0,6 C 89 % 1018,5 hPa 0,0 l/m 19,6 km/h (3 Bft) W-SW 240 0 min 0,000 mm 0,0 UV-I 72 W/m -1,0 C -8,7 C 29,0 km/h (5 Bft) 100,00 %
01.03.2016 11:00 0,6 C 89 % 1018,5 hPa 0,0 l/m 16,8 km/h (3 Bft) SW 231 0 min 0,051 mm 0,0 UV-I 66 W/m -1,0 C -7,3 C 25,7 km/h (4 Bft) 95,65 %
01.03.2016 11:01 0,6 C 89 % 1018,5 hPa 0,0 l/m 16,2 km/h (3 Bft) SW 225 0 min 0,000 mm 0,0 UV-I 61 W/m -1,0 C -6,9 C 22,5 km/h (4 Bft) 100,00 %
01.03.2016 11:02 0,6 C 89 % 1018,5 hPa 0,0 l/m 13,7 km/h (3 Bft) W-SW 249 0 min 0,000 mm 0,0 UV-I 64 W/m -1,0 C -5,5 C 19,3 km/h (3 Bft) 100,00 %
01.03.2016 11:03 0,6 C 89 % 1018,6 hPa 0,0 l/m 19,3 km/h (3 Bft) S-SW 192 0 min 0,000 mm 0,0 UV-I 66 W/m -1,0 C -8,5 C 27,4 km/h (4 Bft) 100,00 %
01.03.2016 11:04 0,6 C 89 % 1018,5 hPa 0,0 l/m 15,5 km/h (3 Bft) W-SW 257 0 min 0,000 mm 0,0 UV-I 69 W/m -1,0 C -6,5 C 19,3 km/h (3 Bft) 100,00 %
01.03.2016 11:05 0,6 C 89 % 1018,6 hPa 0,0 l/m 13,8 km/h (3 Bft) W-SW 255 0 min 0,000 mm 0,0 UV-I 70 W/m -1,0 C -5,5 C 19,3 km/h (3 Bft) 100,00 %
01.03.2016 11:06 0,6 C 89 % 1018,6 hPa 0,0 l/m 11,3 km/h (2 Bft) SW 219 0 min 0,000 mm 0,0 UV-I 68 W/m -1,0 C -3,8 C 14,5 km/h (3 Bft) 93,33 %
01.03.2016 11:07 0,6 C 89 % 1018,6 hPa 0,0 l/m 12,8 km/h (3 Bft) W-SW 247 0 min 0,000 mm 0,0 UV-I 67 W/m -1,0 C -4,9 C 16,1 km/h (3 Bft) 100,00 %
01.03.2016 11:08 0,6 C 89 % 1018,6 hPa 0,0 l/m 15,8 km/h (3 Bft) W-SW 246 0 min 0,000 mm 0,0 UV-I 67 W/m -1,0 C -6,7 C 20,9 km/h (4 Bft) 92,31 %
01.03.2016 11:09 0,6 C 89 % 1018,5 hPa 0,0 l/m 15,0 km/h (3 Bft) W-SW 238 0 min 0,000 mm 0,0 UV-I 62 W/m -1,0 C -6,3 C 20,9 km/h (4 Bft) 93,33 %
01.03.2016 11:10 0,6 C 89 % 1018,6 hPa 0,0 l/m 11,3 km/h (2 Bft) W-SW 255 0 min 0,000 mm 0,0 UV-I 58 W/m -1,0 C -3,8 C 12,9 km/h (3 Bft) 100,00 %
01.03.2016 11:11 0,6 C 89 % 1018,6 hPa 0,0 l/m 15,1 km/h (3 Bft) SW 234 0 min 0,000 mm 0,0 UV-I 58 W/m -1,0 C -6,3 C 22,5 km/h (4 Bft) 100,00 %
01.03.2016 11:12 0,6 C 89 % 1018,6 hPa 0,0 l/m 18,9 km/h (3 Bft) W-SW 254 0 min 0,000 mm 0,0 UV-I 57 W/m -1,0 C -8,3 C 24,1 km/h (4 Bft) 100,00 %
01.03.2016 11:13 0,6 C 89 % 1018,6 hPa 0,0 l/m 14,5 km/h (3 Bft) SW 231 0 min 0,000 mm 0,0 UV-I 58 W/m -1,0 C -6,0 C 20,9 km/h (4 Bft) 100,00 %
01.03.2016 11:14 0,7 C 89 % 1018,6 hPa 0,0 l/m 14,5 km/h (3 Bft) W 274 0 min 0,000 mm 0,0 UV-I 58 W/m -0,9 C -5,8 C 20,9 km/h (4 Bft) 100,00 %
01.03.2016 11:15 0,7 C 89 % 1018,6 hPa 0,0 l/m 15,7 km/h (3 Bft) W 267 0 min 0,000 mm 0,0 UV-I 64 W/m -0,9 C -6,5 C 20,9 km/h (4 Bft) 96,15 %
01.03.2016 11:16 0,7 C 89 % 1018,6 hPa 0,0 l/m 12,4 km/h (3 Bft) W 259 0 min 0,000 mm 0,0 UV-I 70 W/m -0,9 C -4,5 C 17,7 km/h (3 Bft) 100,00 %
01.03.2016 11:17 0,7 C 89 % 1018,7 hPa 0,0 l/m 19,1 km/h (3 Bft) SW 235 0 min 0,000 mm 0,0 UV-I 73 W/m -0,9 C -8,3 C 24,1 km/h (4 Bft) 100,00 %
01.03.2016 11:18 0,7 C 89 % 1018,7 hPa 0,0 l/m 13,9 km/h (3 Bft) W-SW 249 0 min 0,000 mm 0,0 UV-I 73 W/m -0,9 C -5,5 C 19,3 km/h (3 Bft) 100,00 %
01.03.2016 11:19 0,7 C 89 % 1018,7 hPa 0,0 l/m 16,3 km/h (3 Bft) SW 227 0 min 0,000 mm 0,0 UV-I 68 W/m -0,9 C -6,9 C 20,9 km/h (4 Bft) 100,00 %
01.03.2016 11:20 0,7 C 89 % 1018,7 hPa 0,0 l/m 16,7 km/h (3 Bft) W-SW 258 0 min 0,000 mm 0,0 UV-I 64 W/m -0,9 C -7,1 C 22,5 km/h (4 Bft) 100,00 %
01.03.2016 11:21 0,7 C 89 % 1018,7 hPa 0,0 l/m 16,8 km/h (3 Bft) W 260 0 min 0,000 mm 0,0 UV-I 60 W/m -0,9 C -7,1 C 20,9 km/h (4 Bft) 100,00 %
01.03.2016 11:22 0,7 C 89 % 1018,6 hPa 0,0 l/m 17,5 km/h (3 Bft) W-SW 246 0 min 0,000 mm 0,0 UV-I 62 W/m -0,9 C -7,5 C 22,5 km/h (4 Bft) 100,00 %
01.03.2016 11:23 0,7 C 89 % 1018,7 hPa 0,0 l/m 14,8 km/h (3 Bft) SW 233 0 min 0,000 mm 0,0 UV-I 63 W/m -0,9 C -6,0 C 20,9 km/h (4 Bft) 100,00 %
01.03.2016 11:24 0,7 C 89 % 1018,7 hPa 0,0 l/m 15,7 km/h (3 Bft) W 274 0 min 0,000 mm 0,0 UV-I 60 W/m -0,9 C -6,5 C 20,9 km/h (4 Bft) 100,00 %
01.03.2016 11:25 0,7 C 89 % 1018,6 hPa 0,0 l/m 17,0 km/h (3 Bft) SW 219 0 min 0,000 mm 0,0 UV-I 58 W/m -0,9 C -7,3 C 20,9 km/h (4 Bft) 100,00 %
01.03.2016 11:26 0,7 C 89 % 1018,6 hPa 0,0 l/m 17,8 km/h (3 Bft) W-SW 251 0 min 0,000 mm 0,0 UV-I 63 W/m -0,9 C -7,7 C 25,7 km/h (4 Bft) 100,00 %
01.03.2016 11:27 0,7 C 88 % 1018,6 hPa 0,0 l/m 11,8 km/h (2 Bft) SW 235 0 min 0,000 mm 0,0 UV-I 70 W/m -1,1 C -4,1 C 16,1 km/h (3 Bft) 100,00 %
01.03.2016 11:28 0,7 C 88 % 1018,7 hPa 0,0 l/m 9,8 km/h (2 Bft) W-SW 246 0 min 0,000 mm 0,0 UV-I 68 W/m -1,1 C -2,5 C 16,1 km/h (3 Bft) 100,00 %
01.03.2016 11:29 0,7 C 89 % 1018,7 hPa 0,0 l/m 18,7 km/h (3 Bft) W-SW 252 0 min 0,000 mm 0,0 UV-I 65 W/m -0,9 C -8,1 C 24,1 km/h (4 Bft) 95,83 %
01.03.2016 11:30 0,7 C 88 % 1018,7 hPa 0,0 l/m 18,4 km/h (3 Bft) S-SW 208 0 min 0,000 mm 0,0 UV-I 59 W/m -1,1 C -8,0 C 25,7 km/h (4 Bft) 100,00 %
01.03.2016 11:31 0,7 C 88 % 1018,7 hPa 0,0 l/m 14,0 km/h (3 Bft) W 262 0 min 0,000 mm 0,0 UV-I 61 W/m -1,1 C -5,5 C 19,3 km/h (3 Bft) 100,00 %
01.03.2016 11:32 0,8 C 89 % 1018,8 hPa 0,0 l/m 16,5 km/h (3 Bft) SW 223 0 min 0,000 mm 0,0 UV-I 63 W/m -0,8 C -6,9 C 19,3 km/h (3 Bft) 100,00 %
01.03.2016 11:33 0,8 C 88 % 1018,8 hPa 0,0 l/m 17,3 km/h (3 Bft) W 267 0 min 0,000 mm 0,0 UV-I 60 W/m -1,0 C -7,3 C 20,9 km/h (4 Bft) 100,00 %
01.03.2016 11:34 0,8 C 89 % 1018,8 hPa 0,0 l/m 13,5 km/h (3 Bft) W 265 0 min 0,000 mm 0,0 UV-I 58 W/m -0,8 C -5,1 C 19,3 km/h (3 Bft) 100,00 %
01.03.2016 11:35 0,8 C 89 % 1018,7 hPa 0,0 l/m 10,3 km/h (2 Bft) W-SW 246 0 min 0,000 mm 0,0 UV-I 59 W/m -0,8 C -2,8 C 14,5 km/h (3 Bft) 96,97 %
01.03.2016 11:36 0,7 C 88 % 1018,8 hPa 0,0 l/m 10,3 km/h (2 Bft) W-SW 254 0 min 0,000 mm 0,0 UV-I 71 W/m -1,1 C -2,9 C 17,7 km/h (3 Bft) 100,00 %
01.03.2016 11:37 0,8 C 89 % 1018,7 hPa 0,0 l/m 14,2 km/h (3 Bft) W-SW 242 0 min 0,000 mm 0,0 UV-I 80 W/m -0,8 C -5,5 C 20,9 km/h (4 Bft) 96,30 %
01.03.2016 11:38 0,8 C 88 % 1018,7 hPa 0,0 l/m 16,0 km/h (3 Bft) W 259 0 min 0,000 mm 0,0 UV-I 81 W/m -1,0 C -6,6 C 20,9 km/h (4 Bft) 100,00 %
01.03.2016 11:39 0,8 C 88 % 1018,7 hPa 0,0 l/m 17,9 km/h (3 Bft) W-SW 239 0 min 0,000 mm 0,0 UV-I 83 W/m -1,0 C -7,6 C 22,5 km/h (4 Bft) 100,00 %
01.03.2016 11:40 0,8 C 88 % 1018,7 hPa 0,0 l/m 16,3 km/h (3 Bft) W-SW 254 0 min 0,000 mm 0,0 UV-I 90 W/m -1,0 C -6,8 C 20,9 km/h (4 Bft) 100,00 %
01.03.2016 11:41 0,8 C 88 % 1018,7 hPa 0,0 l/m 19,2 km/h (3 Bft) W 259 0 min 0,000 mm 0,2 UV-I 108 W/m -1,0 C -8,2 C 25,7 km/h (4 Bft) 100,00 %
01.03.2016 11:42 0,8 C 88 % 1018,7 hPa 0,0 l/m 15,4 km/h (3 Bft) W-SW 250 0 min 0,000 mm 0,5 UV-I 114 W/m -1,0 C -6,2 C 22,5 km/h (4 Bft) 96,15 %
01.03.2016 11:43 0,8 C 89 % 1018,7 hPa 0,0 l/m 14,7 km/h (3 Bft) W-SW 246 0 min 0,000 mm 0,5 UV-I 110 W/m -0,8 C -5,8 C 22,5 km/h (4 Bft) 96,30 %
01.03.2016 11:44 0,8 C 88 % 1018,7 hPa 0,0 l/m 15,0 km/h (3 Bft) W 260 0 min 0,000 mm 0,5 UV-I 104 W/m -1,0 C -6,0 C 19,3 km/h (3 Bft) 100,00 %
01.03.2016 11:45 0,8 C 89 % 1018,8 hPa 0,0 l/m 13,3 km/h (3 Bft) W-SW 248 0 min 0,000 mm 0,0 UV-I 95 W/m -0,8 C -5,0 C 16,1 km/h (3 Bft) 100,00 %
01.03.2016 11:46 0,8 C 89 % 1018,8 hPa 0,0 l/m 16,5 km/h (3 Bft) SW 214 0 min 0,000 mm 0,1 UV-I 99 W/m -0,8 C -6,9 C 20,9 km/h (4 Bft) 100,00 %
01.03.2016 11:47 0,8 C 89 % 1018,7 hPa 0,0 l/m 17,4 km/h (3 Bft) W 263 0 min 0,000 mm 0,5 UV-I 119 W/m -0,8 C -7,3 C 25,7 km/h (4 Bft) 100,00 %
01.03.2016 11:48 0,8 C 89 % 1018,7 hPa 0,0 l/m 14,0 km/h (3 Bft) SW 235 0 min 0,000 mm 0,6 UV-I 136 W/m -0,8 C -5,4 C 20,9 km/h (4 Bft) 100,00 %
01.03.2016 11:49 0,8 C 89 % 1018,7 hPa 0,0 l/m 13,5 km/h (3 Bft) W 264 0 min 0,000 mm 0,7 UV-I 149 W/m -0,8 C -5,1 C 17,7 km/h (3 Bft) 100,00 %
01.03.2016 11:50 0,9 C 88 % 1018,7 hPa 0,0 l/m 11,9 km/h (2 Bft) W-SW 246 0 min 0,000 mm 0,7 UV-I 161 W/m -0,9 C -3,9 C 17,7 km/h (3 Bft) 100,00 %
01.03.2016 11:51 0,9 C 88 % 1018,8 hPa 0,0 l/m 15,5 km/h (3 Bft) W-SW 252 0 min 0,000 mm 0,7 UV-I 153 W/m -0,9 C -6,2 C 20,9 km/h (4 Bft) 100,00 %
01.03.2016 11:52 0,9 C 88 % 1018,7 hPa 0,0 l/m 15,1 km/h (3 Bft) W 265 0 min 0,000 mm 0,6 UV-I 139 W/m -0,9 C -5,9 C 19,3 km/h (3 Bft) 100,00 %
01.03.2016 11:53 0,9 C 88 % 1018,7 hPa 0,0 l/m 19,8 km/h (3 Bft) W 259 0 min 0,000 mm 0,6 UV-I 133 W/m -0,9 C -8,4 C 24,1 km/h (4 Bft) 96,15 %
01.03.2016 11:54 0,9 C 88 % 1018,7 hPa 0,0 l/m 10,6 km/h (2 Bft) W 271 0 min 0,000 mm 0,6 UV-I 129 W/m -0,9 C -2,9 C 16,1 km/h (3 Bft) 100,00 %
01.03.2016 11:55 0,9 C 88 % 1018,7 hPa 0,0 l/m 16,2 km/h (3 Bft) W 267 0 min 0,000 mm 0,6 UV-I 124 W/m -0,9 C -6,6 C 19,3 km/h (3 Bft) 100,00 %
01.03.2016 11:56 0,9 C 88 % 1018,7 hPa 0,0 l/m 14,7 km/h (3 Bft) W 267 0 min 0,000 mm 0,5 UV-I 106 W/m -0,9 C -5,7 C 19,3 km/h (3 Bft) 100,00 %
01.03.2016 11:57 0,9 C 88 % 1018,7 hPa 0,0 l/m 17,3 km/h (3 Bft) SW 232 0 min 0,000 mm 0,0 UV-I 87 W/m -0,9 C -7,2 C 22,5 km/h (4 Bft) 96,15 %
01.03.2016 11:58 0,9 C 88 % 1018,7 hPa 0,0 l/m 17,6 km/h (3 Bft) W-SW 249 0 min 0,000 mm 0,0 UV-I 83 W/m -0,9 C -7,3 C 20,9 km/h (4 Bft) 100,00 %
01.03.2016 11:59 1,0 C 88 % 1018,7 hPa 0,0 l/m 13,4 km/h (3 Bft) W-SW 253 0 min 0,000 mm 0,0 UV-I 79 W/m -0,8 C -4,8 C 17,7 km/h (3 Bft) 100,00 %
01.03.2016 12:00 0,9 C 88 % 1018,7 hPa 0,0 l/m 14,6 km/h (3 Bft) W-SW 248 0 min 0,000 mm 0,0 UV-I 71 W/m -0,9 C -5,7 C 20,9 km/h (4 Bft) 95,83 %
01.03.2016 12:01 0,9 C 88 % 1018,7 hPa 0,0 l/m 10,2 km/h (2 Bft) W 264 0 min 0,050 mm 0,0 UV-I 67 W/m -0,9 C -2,6 C 14,5 km/h (3 Bft) 100,00 %
01.03.2016 12:02 0,9 C 88 % 1018,7 hPa 0,0 l/m 9,2 km/h (2 Bft) W 267 0 min 0,000 mm 0,0 UV-I 65 W/m -0,9 C -1,8 C 12,9 km/h (3 Bft) 100,00 %
01.03.2016 12:03 0,9 C 88 % 1018,7 hPa 0,0 l/m 13,6 km/h (3 Bft) W 261 0 min 0,000 mm 0,0 UV-I 64 W/m -0,9 C -5,0 C 17,7 km/h (3 Bft) 100,00 %
01.03.2016 12:04 0,9 C 89 % 1018,7 hPa 0,0 l/m 11,7 km/h (2 Bft) W-SW 242 0 min 0,000 mm 0,0 UV-I 67 W/m -0,7 C -3,8 C 16,1 km/h (3 Bft) 100,00 %
01.03.2016 12:05 0,9 C 89 % 1018,7 hPa 0,0 l/m 12,1 km/h (2 Bft) W-SW 252 0 min 0,000 mm 0,0 UV-I 73 W/m -0,7 C -4,0 C 20,9 km/h (4 Bft) 100,00 %
01.03.2016 12:06 0,9 C 88 % 1018,7 hPa 0,0 l/m 19,9 km/h (4 Bft) W-SW 256 0 min 0,000 mm 0,0 UV-I 82 W/m -0,9 C -8,4 C 32,2 km/h (5 Bft) 100,00 %
01.03.2016 12:07 0,9 C 88 % 1018,7 hPa 0,0 l/m 12,6 km/h (3 Bft) W 259 0 min 0,000 mm 0,0 UV-I 84 W/m -0,9 C -4,4 C 16,1 km/h (3 Bft) 100,00 %
01.03.2016 12:08 0,9 C 88 % 1018,8 hPa 0,0 l/m 13,0 km/h (3 Bft) W 269 0 min 0,000 mm 0,0 UV-I 85 W/m -0,9 C -4,6 C 19,3 km/h (3 Bft) 100,00 %
01.03.2016 12:09 0,9 C 88 % 1018,8 hPa 0,0 l/m 18,8 km/h (3 Bft) W-SW 252 0 min 0,000 mm 0,0 UV-I 90 W/m -0,9 C -7,9 C 33,8 km/h (5 Bft) 100,00 %
01.03.2016 12:10 0,9 C 88 % 1018,7 hPa 0,0 l/m 21,4 km/h (4 Bft) W-SW 247 0 min 0,000 mm 0,0 UV-I 95 W/m -0,9 C -9,1 C 33,8 km/h (5 Bft) 100,00 %
01.03.2016 12:11 0,9 C 87 % 1018,8 hPa 0,0 l/m 17,7 km/h (3 Bft) W-SW 256 0 min 0,000 mm 0,3 UV-I 99 W/m -1,0 C -7,4 C 27,4 km/h (4 Bft) 100,00 %
01.03.2016 12:12 0,9 C 86 % 1018,8 hPa 0,0 l/m 21,3 km/h (4 Bft) W-SW 241 0 min 0,000 mm 0,5 UV-I 105 W/m -1,2 C -9,0 C 29,0 km/h (5 Bft) 92,86 %
01.03.2016 12:13 0,9 C 86 % 1018,8 hPa 0,0 l/m 17,1 km/h (3 Bft) W-NW 284 0 min 0,000 mm 0,5 UV-I 105 W/m -1,2 C -7,1 C 22,5 km/h (4 Bft) 100,00 %
01.03.2016 12:14 1,0 C 86 % 1018,8 hPa 0,0 l/m 11,4 km/h (2 Bft) W 269 0 min 0,000 mm 0,5 UV-I 99 W/m -1,1 C -3,4 C 20,9 km/h (4 Bft) 96,15 %
01.03.2016 12:15 1,0 C 86 % 1018,8 hPa 0,0 l/m 15,7 km/h (3 Bft) W-SW 257 0 min 0,000 mm 0,0 UV-I 94 W/m -1,1 C -6,2 C 19,3 km/h (3 Bft) 100,00 %
01.03.2016 12:16 1,0 C 86 % 1018,8 hPa 0,0 l/m 18,4 km/h (3 Bft) W-SW 252 0 min 0,000 mm 0,0 UV-I 95 W/m -1,1 C -7,6 C 24,1 km/h (4 Bft) 96,15 %
01.03.2016 12:17 0,9 C 86 % 1018,9 hPa 0,0 l/m 16,5 km/h (3 Bft) W 261 0 min 0,000 mm 0,0 UV-I 97 W/m -1,2 C -6,7 C 22,5 km/h (4 Bft) 100,00 %
01.03.2016 12:18 1,0 C 86 % 1018,8 hPa 0,0 l/m 25,2 km/h (4 Bft) W-SW 249 0 min 0,000 mm 0,0 UV-I 87 W/m -1,1 C -10,4 C 30,6 km/h (5 Bft) 96,15 %
01.03.2016 12:19 1,0 C 85 % 1018,8 hPa 0,0 l/m 21,6 km/h (4 Bft) W-SW 247 0 min 0,000 mm 0,0 UV-I 85 W/m -1,2 C -9,0 C 29,0 km/h (5 Bft) 96,30 %
01.03.2016 12:20 1,0 C 85 % 1018,8 hPa 0,0 l/m 16,0 km/h (3 Bft) W 278 0 min 0,000 mm 0,0 UV-I 96 W/m -1,2 C -6,3 C 22,5 km/h (4 Bft) 90,00 %
01.03.2016 12:21 1,0 C 85 % 1018,9 hPa 0,0 l/m 15,4 km/h (3 Bft) W 264 0 min 0,000 mm 0,0 UV-I 92 W/m -1,2 C -6,0 C 20,9 km/h (4 Bft) 95,83 %
01.03.2016 12:22 1,0 C 85 % 1018,9 hPa 0,0 l/m 18,5 km/h (3 Bft) W-SW 257 0 min 0,000 mm 0,0 UV-I 85 W/m -1,2 C -7,6 C 27,4 km/h (4 Bft) 100,00 %
01.03.2016 12:23 1,0 C 86 % 1018,8 hPa 0,0 l/m 20,3 km/h (4 Bft) W-SW 254 0 min 0,000 mm 0,0 UV-I 84 W/m -1,1 C -8,5 C 32,2 km/h (5 Bft) 93,33 %
01.03.2016 12:24 1,0 C 85 % 1018,8 hPa 0,0 l/m 18,0 km/h (3 Bft) W-SW 247 0 min 0,000 mm 0,0 UV-I 87 W/m -1,2 C -7,4 C 24,1 km/h (4 Bft) 96,30 %
01.03.2016 12:25 1,0 C 86 % 1018,8 hPa 0,0 l/m 18,7 km/h (3 Bft) W-SW 240 0 min 0,000 mm 0,3 UV-I 98 W/m -1,1 C -7,7 C 24,1 km/h (4 Bft) 88,24 %
01.03.2016 12:26 1,0 C 86 % 1018,9 hPa 0,0 l/m 16,5 km/h (3 Bft) W-SW 252 0 min 0,000 mm 0,4 UV-I 110 W/m -1,1 C -6,6 C 24,1 km/h (4 Bft) 96,67 %
01.03.2016 12:27 1,0 C 86 % 1018,9 hPa 0,0 l/m 13,4 km/h (3 Bft) W-SW 242 0 min 0,000 mm 0,0 UV-I 97 W/m -1,1 C -4,8 C 17,7 km/h (3 Bft) 96,15 %
01.03.2016 12:28 1,0 C 86 % 1018,9 hPa 0,0 l/m 16,8 km/h (3 Bft) SW 235 0 min 0,000 mm 0,0 UV-I 88 W/m -1,1 C -6,8 C 25,7 km/h (4 Bft) 92,59 %
01.03.2016 12:29 1,0 C 86 % 1018,9 hPa 0,0 l/m 17,2 km/h (3 Bft) W-SW 254 0 min 0,000 mm 0,0 UV-I 93 W/m -1,1 C -7,0 C 22,5 km/h (4 Bft) 100,00 %
01.03.2016 12:30 1,0 C 86 % 1018,9 hPa 0,0 l/m 12,6 km/h (3 Bft) W 264 0 min 0,000 mm 0,3 UV-I 101 W/m -1,1 C -4,3 C 19,3 km/h (3 Bft) 95,83 %
01.03.2016 12:31 1,0 C 86 % 1018,9 hPa 0,0 l/m 15,1 km/h (3 Bft) W 263 0 min 0,000 mm 0,5 UV-I 104 W/m -1,1 C -5,8 C 22,5 km/h (4 Bft) 96,15 %
01.03.2016 12:32 1,0 C 86 % 1018,9 hPa 0,0 l/m 15,6 km/h (3 Bft) SW 227 0 min 0,000 mm 0,5 UV-I 111 W/m -1,1 C -6,1 C 20,9 km/h (4 Bft) 91,67 %
01.03.2016 12:33 1,1 C 86 % 1018,9 hPa 0,0 l/m 19,9 km/h (4 Bft) W 263 0 min 0,000 mm 0,5 UV-I 119 W/m -1,0 C -8,2 C 27,4 km/h (4 Bft) 100,00 %
01.03.2016 12:34 1,1 C 86 % 1018,9 hPa 0,0 l/m 16,7 km/h (3 Bft) W-SW 250 0 min 0,000 mm 0,5 UV-I 120 W/m -1,0 C -6,6 C 27,4 km/h (4 Bft) 96,30 %
01.03.2016 12:35 1,1 C 86 % 1018,9 hPa 0,0 l/m 16,8 km/h (3 Bft) NW 320 0 min 0,000 mm 0,6 UV-I 126 W/m -1,0 C -6,6 C 29,0 km/h (5 Bft) 100,00 %
01.03.2016 12:36 1,1 C 86 % 1018,8 hPa 0,0 l/m 19,6 km/h (3 Bft) W 271 0 min 0,000 mm 0,6 UV-I 128 W/m -1,0 C -8,0 C 29,0 km/h (5 Bft) 93,33 %
01.03.2016 12:37 1,1 C 86 % 1018,8 hPa 0,0 l/m 25,0 km/h (4 Bft) W 260 0 min 0,000 mm 0,7 UV-I 144 W/m -1,0 C -10,2 C 35,4 km/h (5 Bft) 96,15 %
01.03.2016 12:38 1,1 C 85 % 1018,9 hPa 0,0 l/m 17,2 km/h (3 Bft) SW 231 0 min 0,000 mm 0,7 UV-I 159 W/m -1,1 C -6,9 C 20,9 km/h (4 Bft) 100,00 %
01.03.2016 12:39 1,1 C 85 % 1018,9 hPa 0,0 l/m 21,3 km/h (4 Bft) W-SW 256 0 min 0,000 mm 0,9 UV-I 161 W/m -1,1 C -8,8 C 38,6 km/h (5 Bft) 91,30 %
01.03.2016 12:40 1,2 C 84 % 1018,8 hPa 0,0 l/m 23,7 km/h (4 Bft) SW 236 0 min 0,000 mm 0,9 UV-I 160 W/m -1,2 C -9,6 C 35,4 km/h (5 Bft) 100,00 %
01.03.2016 12:41 1,2 C 85 % 1018,9 hPa 0,0 l/m 16,9 km/h (3 Bft) W-SW 252 0 min 0,000 mm 0,8 UV-I 156 W/m -1,0 C -6,6 C 22,5 km/h (4 Bft) 96,55 %
01.03.2016 12:42 1,2 C 85 % 1018,9 hPa 0,0 l/m 18,8 km/h (3 Bft) W 264 0 min 0,000 mm 0,8 UV-I 152 W/m -1,0 C -7,5 C 27,4 km/h (4 Bft) 100,00 %
01.03.2016 12:43 1,2 C 85 % 1018,9 hPa 0,0 l/m 18,7 km/h (3 Bft) W-SW 248 0 min 0,000 mm 0,7 UV-I 131 W/m -1,0 C -7,5 C 27,4 km/h (4 Bft) 96,15 %
01.03.2016 12:44 1,2 C 85 % 1018,9 hPa 0,0 l/m 14,3 km/h (3 Bft) W-SW 248 0 min 0,000 mm 0,6 UV-I 108 W/m -1,0 C -5,1 C 19,3 km/h (3 Bft) 100,00 %
01.03.2016 12:45 1,2 C 85 % 1018,9 hPa 0,0 l/m 15,6 km/h (3 Bft) W-SW 240 0 min 0,000 mm 0,5 UV-I 95 W/m -1,0 C -5,9 C 22,5 km/h (4 Bft) 95,83 %
01.03.2016 12:46 1,2 C 84 % 1018,9 hPa 0,0 l/m 20,2 km/h (4 Bft) W-NW 288 0 min 0,000 mm 0,2 UV-I 86 W/m -1,2 C -8,2 C 29,0 km/h (5 Bft) 100,00 %
01.03.2016 12:47 1,2 C 84 % 1018,9 hPa 0,0 l/m 18,2 km/h (3 Bft) W-NW 287 0 min 0,000 mm 0,0 UV-I 74 W/m -1,2 C -7,2 C 22,5 km/h (4 Bft) 100,00 %
01.03.2016 12:48 1,2 C 84 % 1018,8 hPa 0,0 l/m 22,9 km/h (4 Bft) W 277 0 min 0,000 mm 0,0 UV-I 65 W/m -1,2 C -9,3 C 29,0 km/h (5 Bft) 96,55 %
01.03.2016 12:49 1,2 C 84 % 1018,8 hPa 0,0 l/m 17,1 km/h (3 Bft) N-NW 342 0 min 0,000 mm 0,0 UV-I 60 W/m -1,2 C -6,7 C 22,5 km/h (4 Bft) 100,00 %
01.03.2016 12:50 1,2 C 84 % 1018,8 hPa 0,0 l/m 10,7 km/h (2 Bft) W-SW 246 0 min 0,000 mm 0,0 UV-I 57 W/m -1,2 C -2,7 C 14,5 km/h (3 Bft) 100,00 %
01.03.2016 12:51 1,2 C 85 % 1018,9 hPa 0,0 l/m 12,1 km/h (2 Bft) W-NW 285 0 min 0,000 mm 0,0 UV-I 52 W/m -1,0 C -3,7 C 17,7 km/h (3 Bft) 100,00 %
01.03.2016 12:52 1,2 C 84 % 1018,8 hPa 0,0 l/m 16,1 km/h (3 Bft) W 267 0 min 0,000 mm 0,0 UV-I 48 W/m -1,2 C -6,1 C 29,0 km/h (5 Bft) 95,65 %
01.03.2016 12:53 1,2 C 84 % 1018,7 hPa 0,0 l/m 21,6 km/h (4 Bft) W 277 0 min 0,000 mm 0,0 UV-I 45 W/m -1,2 C -8,8 C 27,4 km/h (4 Bft) 100,00 %
01.03.2016 12:54 1,1 C 84 % 1018,8 hPa 0,0 l/m 14,6 km/h (3 Bft) NW 316 0 min 0,000 mm 0,0 UV-I 40 W/m -1,3 C -5,4 C 25,7 km/h (4 Bft) 100,00 %
01.03.2016 12:55 1,1 C 84 % 1018,8 hPa 0,0 l/m 9,3 km/h (2 Bft) W-SW 242 0 min 0,000 mm 0,0 UV-I 40 W/m -1,3 C -1,7 C 12,9 km/h (3 Bft) 100,00 %
01.03.2016 12:56 1,1 C 85 % 1018,8 hPa 0,0 l/m 12,8 km/h (3 Bft) W-SW 237 0 min 0,000 mm 0,0 UV-I 36 W/m -1,1 C -4,3 C 22,5 km/h (4 Bft) 100,00 %
01.03.2016 12:57 1,1 C 85 % 1018,8 hPa 0,0 l/m 16,9 km/h (3 Bft) NW 307 0 min 0,000 mm 0,0 UV-I 33 W/m -1,1 C -6,7 C 24,1 km/h (4 Bft) 100,00 %
01.03.2016 12:58 1,1 C 85 % 1018,8 hPa 0,0 l/m 14,6 km/h (3 Bft) W 275 0 min 0,000 mm 0,0 UV-I 32 W/m -1,1 C -5,4 C 27,4 km/h (4 Bft) 97,37 %
01.03.2016 12:59 1,1 C 85 % 1018,8 hPa 0,0 l/m 11,0 km/h (2 Bft) W 259 0 min 0,000 mm 0,0 UV-I 32 W/m -1,1 C -3,0 C 17,7 km/h (3 Bft) 100,00 %
01.03.2016 13:00 1,1 C 85 % 1018,8 hPa 0,0 l/m 13,6 km/h (3 Bft) S-SW 209 0 min 0,000 mm 0,0 UV-I 30 W/m -1,1 C -4,8 C 17,7 km/h (3 Bft) 98,53 %
01.03.2016 13:01 1,0 C 85 % 1018,8 hPa 0,0 l/m 14,2 km/h (3 Bft) W 275 0 min 0,051 mm 0,0 UV-I 30 W/m -1,2 C -5,3 C 20,9 km/h (4 Bft) 100,00 %
01.03.2016 13:02 1,0 C 85 % 1018,8 hPa 0,0 l/m 13,8 km/h (3 Bft) W 277 0 min 0,000 mm 0,0 UV-I 30 W/m -1,2 C -5,0 C 20,9 km/h (4 Bft) 100,00 %
01.03.2016 13:03 1,0 C 85 % 1018,8 hPa 0,0 l/m 14,6 km/h (3 Bft) NW 304 0 min 0,000 mm 0,0 UV-I 30 W/m -1,2 C -5,5 C 20,9 km/h (4 Bft) 100,00 %
01.03.2016 13:04 1,0 C 86 % 1018,8 hPa 0,0 l/m 16,8 km/h (3 Bft) W 277 0 min 0,000 mm 0,0 UV-I 30 W/m -1,1 C -6,8 C 32,2 km/h (5 Bft) 100,00 %
01.03.2016 13:05 1,0 C 86 % 1018,8 hPa 0,0 l/m 19,8 km/h (3 Bft) W-NW 296 0 min 0,000 mm 0,0 UV-I 30 W/m -1,1 C -8,2 C 25,7 km/h (4 Bft) 100,00 %
01.03.2016 13:06 0,9 C 85 % 1018,8 hPa 0,0 l/m 22,1 km/h (4 Bft) W-SW 246 0 min 0,000 mm 0,0 UV-I 30 W/m -1,3 C -9,4 C 35,4 km/h (5 Bft) 96,15 %
01.03.2016 13:07 0,9 C 86 % 1018,7 hPa 0,0 l/m 18,4 km/h (3 Bft) W 281 0 min 0,000 mm 0,0 UV-I 30 W/m -1,2 C -7,7 C 30,6 km/h (5 Bft) 100,00 %
01.03.2016 13:08 0,9 C 86 % 1018,8 hPa 0,0 l/m 16,6 km/h (3 Bft) W-SW 243 0 min 0,000 mm 0,0 UV-I 30 W/m -1,2 C -6,8 C 22,5 km/h (4 Bft) 98,55 %
01.03.2016 13:09 0,9 C 86 % 1018,8 hPa 0,0 l/m 14,2 km/h (3 Bft) W-SW 247 0 min 0,000 mm 0,0 UV-I 30 W/m -1,2 C -5,4 C 24,1 km/h (4 Bft) 97,56 %
01.03.2016 13:10 0,9 C 86 % 1018,8 hPa 0,0 l/m 18,8 km/h (3 Bft) W 268 0 min 0,000 mm 0,0 UV-I 30 W/m -1,2 C -7,9 C 25,7 km/h (4 Bft) 100,00 %
01.03.2016 13:11 0,9 C 86 % 1018,8 hPa 0,0 l/m 13,6 km/h (3 Bft) W 261 0 min 0,000 mm 0,0 UV-I 32 W/m -1,2 C -5,0 C 22,5 km/h (4 Bft) 100,00 %
01.03.2016 13:12 0,9 C 86 % 1018,8 hPa 0,0 l/m 19,1 km/h (3 Bft) W 267 0 min 0,000 mm 0,0 UV-I 32 W/m -1,2 C -8,1 C 27,4 km/h (4 Bft) 100,00 %
01.03.2016 13:13 0,8 C 86 % 1018,8 hPa 0,0 l/m 17,5 km/h (3 Bft) W 261 0 min 0,000 mm 0,0 UV-I 34 W/m -1,3 C -7,4 C 27,4 km/h (4 Bft) 100,00 %
01.03.2016 13:14 0,9 C 86 % 1018,7 hPa 0,0 l/m 18,4 km/h (3 Bft) W-SW 249 0 min 0,000 mm 0,0 UV-I 35 W/m -1,2 C -7,7 C 29,0 km/h (5 Bft) 100,00 %
01.03.2016 13:15 0,8 C 85 % 1018,7 hPa 0,0 l/m 16,6 km/h (3 Bft) W-SW 255 0 min 0,000 mm 0,0 UV-I 35 W/m -1,4 C -6,9 C 25,7 km/h (4 Bft) 100,00 %
01.03.2016 13:16 0,8 C 85 % 1018,7 hPa 0,0 l/m 17,1 km/h (3 Bft) W-NW 294 0 min 0,000 mm 0,0 UV-I 33 W/m -1,4 C -7,2 C 24,1 km/h (4 Bft) 100,00 %
01.03.2016 13:17 0,8 C 85 % 1018,8 hPa 0,0 l/m 15,8 km/h (3 Bft) W 277 0 min 0,000 mm 0,0 UV-I 33 W/m -1,4 C -6,5 C 20,9 km/h (4 Bft) 100,00 %
01.03.2016 13:18 0,8 C 86 % 1018,7 hPa 0,0 l/m 23,0 km/h (4 Bft) SW 223 0 min 0,000 mm 0,0 UV-I 35 W/m -1,3 C -9,9 C 35,4 km/h (5 Bft) 100,00 %
01.03.2016 13:19 0,8 C 85 % 1018,7 hPa 0,0 l/m 17,1 km/h (3 Bft) W-NW 295 0 min 0,000 mm 0,0 UV-I 33 W/m -1,4 C -7,2 C 24,1 km/h (4 Bft) 100,00 %
01.03.2016 13:20 0,8 C 85 % 1018,7 hPa 0,0 l/m 13,3 km/h (3 Bft) W-SW 254 0 min 0,000 mm 0,0 UV-I 33 W/m -1,4 C -5,0 C 17,7 km/h (3 Bft) 100,00 %
01.03.2016 13:21 0,8 C 85 % 1018,8 hPa 0,0 l/m 17,0 km/h (3 Bft) W-SW 252 0 min 0,000 mm 0,0 UV-I 33 W/m -1,4 C -7,1 C 24,1 km/h (4 Bft) 100,00 %
01.03.2016 13:22 0,8 C 85 % 1018,8 hPa 0,0 l/m 14,7 km/h (3 Bft) W-SW 257 0 min 0,000 mm 0,0 UV-I 32 W/m -1,4 C -5,8 C 24,1 km/h (4 Bft) 100,00 %
01.03.2016 13:23 0,8 C 85 % 1018,8 hPa 0,0 l/m 19,0 km/h (3 Bft) W-SW 252 0 min 0,000 mm 0,0 UV-I 32 W/m -1,4 C -8,1 C 22,5 km/h (4 Bft) 96,15 %
01.03.2016 13:24 0,8 C 85 % 1018,8 hPa 0,0 l/m 20,7 km/h (4 Bft) W-NW 284 0 min 0,000 mm 0,0 UV-I 32 W/m -1,4 C -8,9 C 25,7 km/h (4 Bft) 100,00 %
01.03.2016 13:25 0,8 C 85 % 1018,8 hPa 0,0 l/m 16,3 km/h (3 Bft) W-SW 241 0 min 0,000 mm 0,0 UV-I 32 W/m -1,4 C -6,8 C 24,1 km/h (4 Bft) 100,00 %
01.03.2016 13:26 0,8 C 85 % 1018,8 hPa 0,0 l/m 13,2 km/h (3 Bft) W 267 0 min 0,000 mm 0,0 UV-I 29 W/m -1,4 C -4,9 C 20,9 km/h (4 Bft) 100,00 %
01.03.2016 13:27 0,8 C 85 % 1018,8 hPa 0,0 l/m 14,7 km/h (3 Bft) W 274 0 min 0,000 mm 0,0 UV-I 28 W/m -1,4 C -5,8 C 19,3 km/h (3 Bft) 100,00 %
01.03.2016 13:28 0,8 C 85 % 1018,8 hPa 0,0 l/m 16,8 km/h (3 Bft) W 264 0 min 0,000 mm 0,0 UV-I 28 W/m -1,4 C -7,0 C 27,4 km/h (4 Bft) 100,00 %
01.03.2016 13:29 0,8 C 85 % 1018,8 hPa 0,0 l/m 16,5 km/h (3 Bft) W 270 0 min 0,000 mm 0,0 UV-I 31 W/m -1,4 C -6,9 C 29,0 km/h (5 Bft) 100,00 %
01.03.2016 13:30 0,8 C 85 % 1018,8 hPa 0,0 l/m 17,1 km/h (3 Bft) W-NW 286 0 min 0,000 mm 0,0 UV-I 34 W/m -1,4 C -7,2 C 22,5 km/h (4 Bft) 100,00 %
01.03.2016 13:31 0,8 C 85 % 1018,8 hPa 0,0 l/m 12,1 km/h (2 Bft) W 268 0 min 0,000 mm 0,0 UV-I 38 W/m -1,4 C -4,2 C 16,1 km/h (3 Bft) 100,00 %
01.03.2016 13:32 0,8 C 85 % 1018,8 hPa 0,0 l/m 15,0 km/h (3 Bft) W-SW 249 0 min 0,000 mm 0,0 UV-I 39 W/m -1,4 C -6,0 C 20,9 km/h (4 Bft) 100,00 %
01.03.2016 13:33 0,8 C 85 % 1018,8 hPa 0,0 l/m 11,7 km/h (2 Bft) W-SW 251 0 min 0,000 mm 0,0 UV-I 41 W/m -1,4 C -3,9 C 22,5 km/h (4 Bft) 100,00 %
01.03.2016 13:34 0,8 C 85 % 1018,8 hPa 0,0 l/m 21,5 km/h (4 Bft) W 261 0 min 0,000 mm 0,0 UV-I 50 W/m -1,4 C -9,3 C 32,2 km/h (5 Bft) 100,00 %
01.03.2016 13:35 0,9 C 85 % 1018,8 hPa 0,0 l/m 15,7 km/h (3 Bft) W 273 0 min 0,000 mm 0,0 UV-I 66 W/m -1,3 C -6,3 C 20,9 km/h (4 Bft) 96,30 %
01.03.2016 13:36 0,9 C 85 % 1018,8 hPa 0,0 l/m 16,9 km/h (3 Bft) W-SW 246 0 min 0,000 mm 0,0 UV-I 68 W/m -1,3 C -6,9 C 20,9 km/h (4 Bft) 94,12 %
01.03.2016 13:37 0,9 C 85 % 1018,8 hPa 0,0 l/m 13,4 km/h (3 Bft) W-SW 247 0 min 0,000 mm 0,0 UV-I 65 W/m -1,3 C -4,9 C 17,7 km/h (3 Bft) 100,00 %
01.03.2016 13:38 0,9 C 85 % 1018,8 hPa 0,0 l/m 12,8 km/h (3 Bft) W-SW 238 0 min 0,000 mm 0,0 UV-I 60 W/m -1,3 C -4,5 C 17,7 km/h (3 Bft) 100,00 %
01.03.2016 13:39 0,9 C 85 % 1018,9 hPa 0,0 l/m 14,5 km/h (3 Bft) W-NW 287 0 min 0,000 mm 0,0 UV-I 55 W/m -1,3 C -5,6 C 19,3 km/h (3 Bft) 100,00 %
01.03.2016 13:40 0,9 C 85 % 1018,8 hPa 0,0 l/m 15,2 km/h (3 Bft) W 272 0 min 0,000 mm 0,0 UV-I 57 W/m -1,3 C -6,0 C 20,9 km/h (4 Bft) 91,30 %
01.03.2016 13:41 0,9 C 85 % 1018,7 hPa 0,0 l/m 13,4 km/h (3 Bft) W 278 0 min 0,000 mm 0,0 UV-I 54 W/m -1,3 C -4,9 C 20,9 km/h (4 Bft) 100,00 %
01.03.2016 13:42 0,9 C 85 % 1018,8 hPa 0,0 l/m 14,0 km/h (3 Bft) W 259 0 min 0,000 mm 0,0 UV-I 49 W/m -1,3 C -5,3 C 19,3 km/h (3 Bft) 100,00 %
01.03.2016 13:43 0,9 C 85 % 1018,7 hPa 0,0 l/m 13,1 km/h (3 Bft) W-SW 250 0 min 0,000 mm 0,0 UV-I 50 W/m -1,3 C -4,7 C 14,5 km/h (3 Bft) 100,00 %
01.03.2016 13:44 1,0 C 85 % 1018,7 hPa 0,0 l/m 15,1 km/h (3 Bft) W-SW 250 0 min 0,000 mm 0,0 UV-I 49 W/m -1,2 C -5,8 C 17,7 km/h (3 Bft) 100,00 %
01.03.2016 13:45 0,9 C 84 % 1018,7 hPa 0,0 l/m 13,7 km/h (3 Bft) W 264 0 min 0,000 mm 0,0 UV-I 43 W/m -1,5 C -5,1 C 17,7 km/h (3 Bft) 100,00 %
01.03.2016 13:46 1,0 C 85 % 1018,7 hPa 0,0 l/m 14,2 km/h (3 Bft) W-SW 243 0 min 0,000 mm 0,0 UV-I 40 W/m -1,2 C -5,3 C 17,7 km/h (3 Bft) 100,00 %
01.03.2016 13:47 1,0 C 85 % 1018,8 hPa 0,2 l/m 15,2 km/h (3 Bft) W 259 0 min 0,000 mm 0,0 UV-I 39 W/m -1,2 C -5,9 C 24,1 km/h (4 Bft) 100,00 %
01.03.2016 13:48 1,0 C 85 % 1018,7 hPa 0,0 l/m 8,2 km/h (2 Bft) W 281 0 min 0,000 mm 0,0 UV-I 39 W/m -1,2 C -0,8 C 14,5 km/h (3 Bft) 100,00 %
01.03.2016 13:49 1,0 C 85 % 1018,7 hPa 0,0 l/m 10,4 km/h (2 Bft) SW 229 0 min 0,000 mm 0,0 UV-I 42 W/m -1,2 C -2,7 C 14,5 km/h (3 Bft) 100,00 %
01.03.2016 13:50 1,0 C 85 % 1018,7 hPa 0,0 l/m 9,7 km/h (2 Bft) W 259 0 min 0,000 mm 0,0 UV-I 41 W/m -1,2 C -2,1 C 12,9 km/h (3 Bft) 100,00 %
01.03.2016 13:51 1,0 C 85 % 1018,7 hPa 0,0 l/m 13,1 km/h (3 Bft) W 272 0 min 0,000 mm 0,0 UV-I 38 W/m -1,2 C -4,6 C 16,1 km/h (3 Bft) 95,65 %
01.03.2016 13:52 1,0 C 85 % 1018,7 hPa 0,0 l/m 9,2 km/h (2 Bft) W-SW 248 0 min 0,000 mm 0,0 UV-I 35 W/m -1,2 C -1,7 C 16,1 km/h (3 Bft) 100,00 %
01.03.2016 13:53 1,0 C 85 % 1018,7 hPa 0,0 l/m 16,3 km/h (3 Bft) W 272 0 min 0,000 mm 0,0 UV-I 37 W/m -1,2 C -6,5 C 20,9 km/h (4 Bft) 100,00 %
01.03.2016 13:54 1,0 C 85 % 1018,6 hPa 0,0 l/m 18,1 km/h (3 Bft) W 263 0 min 0,000 mm 0,0 UV-I 44 W/m -1,2 C -7,4 C 27,4 km/h (4 Bft) 100,00 %
01.03.2016 13:55 1,0 C 85 % 1018,5 hPa 0,0 l/m 18,8 km/h (3 Bft) W 267 0 min 0,000 mm 0,0 UV-I 41 W/m -1,2 C -7,8 C 25,7 km/h (4 Bft) 100,00 %
01.03.2016 13:56 1,0 C 85 % 1018,6 hPa 0,0 l/m 16,0 km/h (3 Bft) W-SW 237 0 min 0,000 mm 0,0 UV-I 40 W/m -1,2 C -6,3 C 20,9 km/h (4 Bft) 96,30 %
01.03.2016 13:57 1,0 C 84 % 1018,7 hPa 0,0 l/m 13,8 km/h (3 Bft) W-SW 241 0 min 0,000 mm 0,0 UV-I 39 W/m -1,4 C -5,0 C 19,3 km/h (3 Bft) 100,00 %
01.03.2016 13:58 1,0 C 84 % 1018,7 hPa 0,0 l/m 14,9 km/h (3 Bft) W-SW 250 0 min 0,000 mm 0,0 UV-I 43 W/m -1,4 C -5,7 C 22,5 km/h (4 Bft) 100,00 %
01.03.2016 13:59 1,0 C 84 % 1018,6 hPa 0,0 l/m 20,3 km/h (4 Bft) W-SW 250 0 min 0,000 mm 0,0 UV-I 48 W/m -1,4 C -8,5 C 29,0 km/h (5 Bft) 95,65 %
01.03.2016 14:00 1,0 C 84 % 1018,6 hPa 0,0 l/m 13,3 km/h (3 Bft) W 259 0 min 0,000 mm 0,0 UV-I 52 W/m -1,4 C -4,7 C 22,5 km/h (4 Bft) 100,00 %
01.03.2016 14:01 1,0 C 85 % 1018,6 hPa 0,0 l/m 11,3 km/h (2 Bft) W 269 0 min 0,026 mm 0,0 UV-I 53 W/m -1,2 C -3,3 C 16,1 km/h (3 Bft) 96,15 %
01.03.2016 14:02 1,0 C 85 % 1018,5 hPa 0,0 l/m 7,4 km/h (2 Bft) W 268 0 min 0,000 mm 0,0 UV-I 50 W/m -1,2 C -0,0 C 12,9 km/h (3 Bft) 100,00 %
01.03.2016 14:03 1,0 C 85 % 1018,5 hPa 0,0 l/m 17,0 km/h (3 Bft) W 262 0 min 0,000 mm 0,0 UV-I 43 W/m -1,2 C -6,9 C 27,4 km/h (4 Bft) 100,00 %
01.03.2016 14:04 1,0 C 85 % 1018,5 hPa 0,0 l/m 14,4 km/h (3 Bft) W 279 0 min 0,000 mm 0,0 UV-I 40 W/m -1,2 C -5,4 C 17,7 km/h (3 Bft) 100,00 %
01.03.2016 14:05 1,0 C 85 % 1018,5 hPa 0,0 l/m 9,8 km/h (2 Bft) W 273 0 min 0,000 mm 0,0 UV-I 42 W/m -1,2 C -2,2 C 17,7 km/h (3 Bft) 100,00 %
01.03.2016 14:06 1,0 C 85 % 1018,5 hPa 0,0 l/m 18,5 km/h (3 Bft) W 271 0 min 0,000 mm 0,0 UV-I 41 W/m -1,2 C -7,6 C 29,0 km/h (5 Bft) 100,00 %
01.03.2016 14:07 1,0 C 85 % 1018,5 hPa 0,0 l/m 12,2 km/h (2 Bft) W 272 0 min 0,000 mm 0,0 UV-I 40 W/m -1,2 C -4,0 C 19,3 km/h (3 Bft) 100,00 %
01.03.2016 14:08 1,0 C 85 % 1018,5 hPa 0,0 l/m 14,1 km/h (3 Bft) W 259 0 min 0,000 mm 0,0 UV-I 39 W/m -1,2 C -5,2 C 17,7 km/h (3 Bft) 98,62 %
01.03.2016 14:09 1,0 C 85 % 1018,5 hPa 0,0 l/m 11,3 km/h (2 Bft) W 281 0 min 0,000 mm 0,0 UV-I 36 W/m -1,2 C -3,3 C 14,5 km/h (3 Bft) 100,00 %
01.03.2016 14:10 1,0 C 85 % 1018,5 hPa 0,0 l/m 12,2 km/h (2 Bft) W 276 0 min 0,000 mm 0,0 UV-I 35 W/m -1,2 C -4,0 C 24,1 km/h (4 Bft) 96,15 %
01.03.2016 14:11 1,0 C 85 % 1018,4 hPa 0,0 l/m 14,4 km/h (3 Bft) W 261 0 min 0,000 mm 0,0 UV-I 37 W/m -1,2 C -5,4 C 19,3 km/h (3 Bft) 100,00 %
01.03.2016 14:12 0,9 C 85 % 1018,4 hPa 0,0 l/m 14,9 km/h (3 Bft) W-SW 252 0 min 0,000 mm 0,0 UV-I 38 W/m -1,3 C -5,8 C 17,7 km/h (3 Bft) 100,00 %
01.03.2016 14:13 0,9 C 86 % 1018,3 hPa 0,0 l/m 11,8 km/h (2 Bft) W-NW 284 0 min 0,000 mm 0,0 UV-I 39 W/m -1,2 C -3,8 C 16,1 km/h (3 Bft) 100,00 %
01.03.2016 14:14 0,9 C 86 % 1018,4 hPa 0,0 l/m 6,4 km/h (2 Bft) W-NW 283 0 min 0,000 mm 0,0 UV-I 41 W/m -1,2 C 0,9 C 12,9 km/h (3 Bft) 100,00 %
01.03.2016 14:15 0,9 C 86 % 1018,3 hPa 0,0 l/m 12,5 km/h (3 Bft) W 265 0 min 0,000 mm 0,0 UV-I 42 W/m -1,2 C -4,3 C 19,3 km/h (3 Bft) 100,00 %
01.03.2016 14:16 0,9 C 86 % 1018,4 hPa 0,0 l/m 19,4 km/h (3 Bft) W-SW 247 0 min 0,000 mm 0,0 UV-I 39 W/m -1,2 C -8,2 C 30,6 km/h (5 Bft) 100,00 %
01.03.2016 14:17 0,9 C 86 % 1018,4 hPa 0,0 l/m 16,6 km/h (3 Bft) W-SW 247 0 min 0,000 mm 0,0 UV-I 40 W/m -1,2 C -6,8 C 27,4 km/h (4 Bft) 100,00 %
01.03.2016 14:18 0,9 C 86 % 1018,3 hPa 0,0 l/m 13,8 km/h (3 Bft) W 263 0 min 0,000 mm 0,0 UV-I 40 W/m -1,2 C -5,2 C 22,5 km/h (4 Bft) 100,00 %
01.03.2016 14:19 0,9 C 85 % 1018,3 hPa 0,0 l/m 14,2 km/h (3 Bft) W 279 0 min 0,000 mm 0,0 UV-I 42 W/m -1,3 C -5,4 C 20,9 km/h (4 Bft) 100,00 %
01.03.2016 14:20 0,9 C 86 % 1018,2 hPa 0,0 l/m 13,6 km/h (3 Bft) W-SW 250 0 min 0,000 mm 0,0 UV-I 46 W/m -1,2 C -5,0 C 17,7 km/h (3 Bft) 100,00 %
01.03.2016 14:21 1,0 C 86 % 1018,3 hPa 0,0 l/m 19,8 km/h (3 Bft) W 270 0 min 0,000 mm 0,0 UV-I 42 W/m -1,1 C -8,2 C 22,5 km/h (4 Bft) 96,30 %
01.03.2016 14:22 1,0 C 86 % 1018,3 hPa 0,0 l/m 16,7 km/h (3 Bft) W 259 0 min 0,000 mm 0,0 UV-I 39 W/m -1,1 C -6,7 C 22,5 km/h (4 Bft) 100,00 %
01.03.2016 14:23 1,0 C 86 % 1018,4 hPa 0,0 l/m 12,8 km/h (3 Bft) W 271 0 min 0,000 mm 0,0 UV-I 37 W/m -1,1 C -4,4 C 16,1 km/h (3 Bft) 96,15 %
01.03.2016 14:24 1,0 C 86 % 1018,3 hPa 0,0 l/m 14,2 km/h (3 Bft) W-SW 246 0 min 0,000 mm 0,0 UV-I 37 W/m -1,1 C -5,3 C 22,5 km/h (4 Bft) 100,00 %
01.03.2016 14:25 1,0 C 86 % 1018,3 hPa 0,0 l/m 12,4 km/h (3 Bft) W-SW 241 0 min 0,000 mm 0,0 UV-I 34 W/m -1,1 C -4,1 C 16,1 km/h (3 Bft) 96,77 %
01.03.2016 14:26 1,0 C 86 % 1018,3 hPa 0,0 l/m 9,4 km/h (2 Bft) W-SW 239 0 min 0,000 mm 0,0 UV-I 33 W/m -1,1 C -1,9 C 14,5 km/h (3 Bft) 92,59 %
01.03.2016 14:27 1,0 C 86 % 1018,3 hPa 0,0 l/m 7,2 km/h (2 Bft) SW 220 0 min 0,000 mm 0,0 UV-I 33 W/m -1,1 C 0,2 C 11,3 km/h (2 Bft) 95,65 %
01.03.2016 14:28 1,0 C 86 % 1018,3 hPa 0,0 l/m 5,9 km/h (2 Bft) W-SW 254 0 min 0,000 mm 0,0 UV-I 33 W/m -1,1 C 1,0 C 9,7 km/h (2 Bft) 100,00 %
01.03.2016 14:29 1,0 C 86 % 1018,3 hPa 0,0 l/m 6,2 km/h (2 Bft) W-SW 252 0 min 0,000 mm 0,0 UV-I 33 W/m -1,1 C 1,0 C 11,3 km/h (2 Bft) 91,30 %
01.03.2016 14:30 1,0 C 87 % 1018,3 hPa 0,0 l/m 11,3 km/h (2 Bft) W-SW 257 0 min 0,000 mm 0,0 UV-I 35 W/m -0,9 C -3,3 C 19,3 km/h (3 Bft) 91,67 %
01.03.2016 14:31 1,0 C 86 % 1018,3 hPa 0,0 l/m 13,9 km/h (3 Bft) W-SW 253 0 min 0,000 mm 0,0 UV-I 34 W/m -1,1 C -5,1 C 19,3 km/h (3 Bft) 100,00 %
01.03.2016 14:32 1,0 C 86 % 1018,3 hPa 0,0 l/m 16,3 km/h (3 Bft) W-SW 251 0 min 0,000 mm 0,0 UV-I 31 W/m -1,1 C -6,5 C 19,3 km/h (3 Bft) 96,30 %
01.03.2016 14:33 1,0 C 86 % 1018,3 hPa 0,0 l/m 11,7 km/h (2 Bft) W-SW 246 0 min 0,000 mm 0,0 UV-I 28 W/m -1,1 C -3,6 C 16,1 km/h (3 Bft) 100,00 %
01.03.2016 14:34 1,0 C 86 % 1018,3 hPa 0,0 l/m 13,0 km/h (3 Bft) W-NW 283 0 min 0,000 mm 0,0 UV-I 28 W/m -1,1 C -4,5 C 16,1 km/h (3 Bft) 96,67 %
01.03.2016 14:35 1,0 C 86 % 1018,3 hPa 0,0 l/m 7,7 km/h (2 Bft) SW 234 0 min 0,000 mm 0,0 UV-I 28 W/m -1,1 C -0,3 C 14,5 km/h (3 Bft) 100,00 %
01.03.2016 14:36 1,0 C 86 % 1018,3 hPa 0,0 l/m 11,0 km/h (2 Bft) SW 227 0 min 0,000 mm 0,0 UV-I 28 W/m -1,1 C -3,1 C 14,5 km/h (3 Bft) 100,00 %
01.03.2016 14:37 1,0 C 86 % 1018,3 hPa 0,0 l/m 10,6 km/h (2 Bft) W 263 0 min 0,000 mm 0,0 UV-I 27 W/m -1,1 C -2,8 C 16,1 km/h (3 Bft) 96,55 %
01.03.2016 14:38 1,0 C 86 % 1018,3 hPa 0,0 l/m 11,3 km/h (2 Bft) W 275 0 min 0,000 mm 0,0 UV-I 25 W/m -1,1 C -3,3 C 12,9 km/h (3 Bft) 96,30 %
01.03.2016 14:39 1,0 C 86 % 1018,4 hPa 0,0 l/m 7,1 km/h (2 Bft) W 281 0 min 0,000 mm 0,0 UV-I 26 W/m -1,1 C 0,3 C 16,1 km/h (3 Bft) 96,15 %
01.03.2016 14:40 1,0 C 86 % 1018,4 hPa 0,0 l/m 15,0 km/h (3 Bft) W-SW 245 0 min 0,000 mm 0,0 UV-I 30 W/m -1,1 C -5,8 C 22,5 km/h (4 Bft) 100,00 %
01.03.2016 14:41 0,9 C 86 % 1018,3 hPa 0,0 l/m 14,4 km/h (3 Bft) W 265 0 min 0,000 mm 0,0 UV-I 33 W/m -1,2 C -5,5 C 25,7 km/h (4 Bft) 95,65 %
01.03.2016 14:42 0,9 C 86 % 1018,2 hPa 0,0 l/m 17,1 km/h (3 Bft) W-SW 257 0 min 0,000 mm 0,0 UV-I 36 W/m -1,2 C -7,1 C 24,1 km/h (4 Bft) 100,00 %
01.03.2016 14:43 0,9 C 86 % 1018,2 hPa 0,0 l/m 12,6 km/h (3 Bft) W-SW 239 0 min 0,000 mm 0,0 UV-I 44 W/m -1,2 C -4,4 C 17,7 km/h (3 Bft) 88,46 %
01.03.2016 14:44 0,9 C 86 % 1018,3 hPa 0,0 l/m 20,9 km/h (4 Bft) W-NW 293 0 min 0,000 mm 0,0 UV-I 43 W/m -1,2 C -8,9 C 27,4 km/h (4 Bft) 100,00 %
01.03.2016 14:45 0,9 C 86 % 1018,2 hPa 0,0 l/m 15,5 km/h (3 Bft) W 267 0 min 0,000 mm 0,0 UV-I 40 W/m -1,2 C -6,2 C 20,9 km/h (4 Bft) 92,31 %
01.03.2016 14:46 0,9 C 86 % 1018,3 hPa 0,0 l/m 11,4 km/h (2 Bft) W-SW 255 0 min 0,000 mm 0,0 UV-I 39 W/m -1,2 C -3,5 C 24,1 km/h (4 Bft) 95,83 %
01.03.2016 14:47 0,9 C 86 % 1018,3 hPa 0,0 l/m 13,6 km/h (3 Bft) W 274 0 min 0,000 mm 0,0 UV-I 41 W/m -1,2 C -5,0 C 29,0 km/h (5 Bft) 100,00 %
01.03.2016 14:48 0,9 C 86 % 1018,3 hPa 0,0 l/m 14,2 km/h (3 Bft) W-SW 245 0 min 0,000 mm 0,0 UV-I 44 W/m -1,2 C -5,4 C 20,9 km/h (4 Bft) 93,33 %
01.03.2016 14:49 0,9 C 86 % 1018,2 hPa 0,0 l/m 16,0 km/h (3 Bft) W-SW 258 0 min 0,000 mm 0,0 UV-I 46 W/m -1,2 C -6,5 C 20,9 km/h (4 Bft) 100,00 %
01.03.2016 14:50 0,9 C 86 % 1018,3 hPa 0,0 l/m 14,6 km/h (3 Bft) W 261 0 min 0,000 mm 0,0 UV-I 49 W/m -1,2 C -5,7 C 17,7 km/h (3 Bft) 92,31 %
01.03.2016 14:51 0,9 C 86 % 1018,2 hPa 0,0 l/m 10,5 km/h (2 Bft) W-SW 250 0 min 0,000 mm 0,0 UV-I 51 W/m -1,2 C -2,9 C 12,9 km/h (3 Bft) 100,00 %
01.03.2016 14:52 0,9 C 86 % 1018,2 hPa 0,0 l/m 15,3 km/h (3 Bft) SW 220 0 min 0,000 mm 0,0 UV-I 50 W/m -1,2 C -6,1 C 20,9 km/h (4 Bft) 92,86 %
01.03.2016 14:53 0,9 C 86 % 1018,2 hPa 0,0 l/m 12,4 km/h (3 Bft) W-SW 257 0 min 0,000 mm 0,0 UV-I 53 W/m -1,2 C -4,2 C 17,7 km/h (3 Bft) 100,00 %
01.03.2016 14:54 1,0 C 86 % 1018,1 hPa 0,0 l/m 9,2 km/h (2 Bft) W 260 0 min 0,000 mm 0,0 UV-I 51 W/m -1,1 C -1,7 C 14,5 km/h (3 Bft) 92,31 %
01.03.2016 14:55 1,0 C 86 % 1018,1 hPa 0,0 l/m 15,4 km/h (3 Bft) W-SW 257 0 min 0,000 mm 0,0 UV-I 50 W/m -1,1 C -6,0 C 19,3 km/h (3 Bft) 96,30 %
01.03.2016 14:56 1,0 C 86 % 1018,2 hPa 0,0 l/m 13,7 km/h (3 Bft) W-SW 243 0 min 0,000 mm 0,0 UV-I 49 W/m -1,1 C -5,0 C 16,1 km/h (3 Bft) 100,00 %
01.03.2016 14:57 1,0 C 86 % 1018,1 hPa 0,0 l/m 14,5 km/h (3 Bft) SW 227 0 min 0,000 mm 0,0 UV-I 49 W/m -1,1 C -5,5 C 17,7 km/h (3 Bft) 95,83 %
01.03.2016 14:58 1,0 C 86 % 1018,1 hPa 0,0 l/m 20,5 km/h (4 Bft) W-SW 244 0 min 0,000 mm 0,0 UV-I 48 W/m -1,1 C -8,6 C 25,7 km/h (4 Bft) 100,00 %
01.03.2016 14:59 1,0 C 86 % 1018,1 hPa 0,0 l/m 13,0 km/h (3 Bft) W-SW 245 0 min 0,000 mm 0,0 UV-I 49 W/m -1,1 C -4,5 C 20,9 km/h (4 Bft) 100,00 %
01.03.2016 15:00 1,0 C 86 % 1018,0 hPa 0,0 l/m 11,3 km/h (2 Bft) W-SW 255 0 min 0,000 mm 0,0 UV-I 48 W/m -1,1 C -3,3 C 19,3 km/h (3 Bft) 100,00 %
01.03.2016 15:01 1,0 C 86 % 1018,0 hPa 0,0 l/m 15,4 km/h (3 Bft) W-SW 254 0 min 0,025 mm 0,0 UV-I 44 W/m -1,1 C -6,0 C 20,9 km/h (4 Bft) 100,00 %
01.03.2016 15:02 1,0 C 87 % 1018,0 hPa 0,0 l/m 18,1 km/h (3 Bft) W-SW 251 0 min 0,000 mm 0,0 UV-I 40 W/m -0,9 C -7,4 C 24,1 km/h (4 Bft) 100,00 %
01.03.2016 15:03 1,1 C 87 % 1018,0 hPa 0,0 l/m 14,8 km/h (3 Bft) W-SW 240 0 min 0,000 mm 0,0 UV-I 42 W/m -0,8 C -5,5 C 20,9 km/h (4 Bft) 92,86 %
01.03.2016 15:04 1,1 C 87 % 1018,1 hPa 0,0 l/m 13,6 km/h (3 Bft) SW 231 0 min 0,000 mm 0,0 UV-I 47 W/m -0,8 C -4,8 C 16,1 km/h (3 Bft) 97,37 %
01.03.2016 15:05 1,1 C 87 % 1018,0 hPa 0,0 l/m 16,4 km/h (3 Bft) SW 221 0 min 0,000 mm 0,0 UV-I 46 W/m -0,8 C -6,4 C 24,1 km/h (4 Bft) 100,00 %
01.03.2016 15:06 1,1 C 87 % 1018,1 hPa 0,0 l/m 13,3 km/h (3 Bft) W-SW 249 0 min 0,000 mm 0,0 UV-I 47 W/m -0,8 C -4,6 C 20,9 km/h (4 Bft) 100,00 %
01.03.2016 15:07 1,1 C 87 % 1018,0 hPa 0,0 l/m 12,9 km/h (3 Bft) W 259 0 min 0,000 mm 0,0 UV-I 47 W/m -0,8 C -4,3 C 16,1 km/h (3 Bft) 100,00 %
01.03.2016 15:08 1,1 C 87 % 1018,0 hPa 0,0 l/m 10,4 km/h (2 Bft) SW 221 0 min 0,000 mm 0,0 UV-I 49 W/m -0,8 C -2,6 C 14,5 km/h (3 Bft) 95,83 %
01.03.2016 15:09 1,1 C 87 % 1018,0 hPa 0,0 l/m 13,1 km/h (3 Bft) SW 215 0 min 0,000 mm 0,0 UV-I 51 W/m -0,8 C -4,5 C 20,9 km/h (4 Bft) 100,00 %
01.03.2016 15:10 1,1 C 87 % 1018,0 hPa 0,2 l/m 14,5 km/h (3 Bft) SW 225 0 min 0,000 mm 0,0 UV-I 49 W/m -0,8 C -5,4 C 24,1 km/h (4 Bft) 96,49 %
01.03.2016 15:16 1,1 C 88 % 1018,0 hPa 0,0 l/m 15,9 km/h (3 Bft) S-SW 197 0 min 0,000 mm 0,0 UV-I 33 W/m -0,7 C -6,2 C 20,9 km/h (4 Bft) 100,00 %
01.03.2016 15:17 1,1 C 88 % 1018,0 hPa 0,0 l/m 17,3 km/h (3 Bft) SW 236 0 min 0,000 mm 0,0 UV-I 31 W/m -0,7 C -6,9 C 24,1 km/h (4 Bft) 97,56 %
01.03.2016 15:18 1,1 C 88 % 1018,0 hPa 0,0 l/m 14,9 km/h (3 Bft) SW 214 0 min 0,000 mm 0,0 UV-I 30 W/m -0,7 C -5,6 C 24,1 km/h (4 Bft) 100,00 %
01.03.2016 15:19 1,1 C 88 % 1018,0 hPa 0,0 l/m 12,7 km/h (3 Bft) SW 232 0 min 0,000 mm 0,0 UV-I 30 W/m -0,7 C -4,2 C 19,3 km/h (3 Bft) 100,00 %
01.03.2016 15:20 1,1 C 88 % 1018,0 hPa 0,0 l/m 12,6 km/h (3 Bft) W-SW 249 0 min 0,000 mm 0,0 UV-I 30 W/m -0,7 C -4,1 C 20,9 km/h (4 Bft) 100,00 %
01.03.2016 15:21 1,1 C 88 % 1018,0 hPa 0,0 l/m 15,5 km/h (3 Bft) SW 219 0 min 0,000 mm 0,0 UV-I 32 W/m -0,7 C -5,9 C 19,3 km/h (3 Bft) 100,00 %
01.03.2016 15:22 1,0 C 88 % 1018,0 hPa 0,0 l/m 15,4 km/h (3 Bft) SW 236 0 min 0,000 mm 0,0 UV-I 31 W/m -0,8 C -6,0 C 19,3 km/h (3 Bft) 100,00 %
01.03.2016 15:23 1,1 C 88 % 1018,0 hPa 0,0 l/m 15,9 km/h (3 Bft) W-SW 242 0 min 0,000 mm 0,0 UV-I 32 W/m -0,7 C -6,2 C 20,9 km/h (4 Bft) 100,00 %
01.03.2016 15:24 1,0 C 88 % 1018,0 hPa 0,0 l/m 12,7 km/h (3 Bft) W-SW 238 0 min 0,000 mm 0,0 UV-I 32 W/m -0,8 C -4,3 C 17,7 km/h (3 Bft) 100,00 %
01.03.2016 15:25 1,1 C 88 % 1018,0 hPa 0,0 l/m 14,1 km/h (3 Bft) W 259 0 min 0,000 mm 0,0 UV-I 32 W/m -0,7 C -5,1 C 16,1 km/h (3 Bft) 100,00 %
01.03.2016 15:26 1,1 C 88 % 1018,0 hPa 0,0 l/m 15,2 km/h (3 Bft) W 263 0 min 0,000 mm 0,0 UV-I 33 W/m -0,7 C -5,8 C 19,3 km/h (3 Bft) 100,00 %
01.03.2016 15:27 1,0 C 88 % 1018,0 hPa 0,0 l/m 16,0 km/h (3 Bft) W-SW 241 0 min 0,000 mm 0,0 UV-I 33 W/m -0,8 C -6,3 C 22,5 km/h (4 Bft) 100,00 %
01.03.2016 15:28 1,0 C 88 % 1018,0 hPa 0,0 l/m 14,3 km/h (3 Bft) W-SW 238 0 min 0,000 mm 0,0 UV-I 33 W/m -0,8 C -5,4 C 19,3 km/h (3 Bft) 100,00 %
01.03.2016 15:29 1,0 C 88 % 1018,0 hPa 0,0 l/m 14,2 km/h (3 Bft) SW 234 0 min 0,000 mm 0,0 UV-I 36 W/m -0,8 C -5,3 C 22,5 km/h (4 Bft) 100,00 %
01.03.2016 15:30 1,0 C 88 % 1017,9 hPa 0,0 l/m 17,0 km/h (3 Bft) W 261 0 min 0,000 mm 0,0 UV-I 36 W/m -0,8 C -6,9 C 22,5 km/h (4 Bft) 100,00 %
01.03.2016 15:31 1,0 C 88 % 1018,0 hPa 0,0 l/m 14,6 km/h (3 Bft) W-SW 250 0 min 0,000 mm 0,0 UV-I 35 W/m -0,8 C -5,5 C 19,3 km/h (3 Bft) 100,00 %
01.03.2016 15:32 1,0 C 88 % 1018,0 hPa 0,0 l/m 13,2 km/h (3 Bft) SW 236 0 min 0,000 mm 0,0 UV-I 35 W/m -0,8 C -4,7 C 19,3 km/h (3 Bft) 100,00 %
01.03.2016 15:33 1,0 C 88 % 1018,0 hPa 0,0 l/m 17,6 km/h (3 Bft) W-SW 244 0 min 0,000 mm 0,0 UV-I 31 W/m -0,8 C -7,2 C 25,7 km/h (4 Bft) 100,00 %
01.03.2016 15:34 1,1 C 88 % 1017,9 hPa 0,0 l/m 22,2 km/h (4 Bft) SW 222 0 min 0,000 mm 0,0 UV-I 29 W/m -0,7 C -9,2 C 25,7 km/h (4 Bft) 100,00 %
01.03.2016 15:35 1,0 C 88 % 1017,9 hPa 0,0 l/m 20,8 km/h (4 Bft) W-SW 240 0 min 0,000 mm 0,0 UV-I 30 W/m -0,8 C -8,7 C 25,7 km/h (4 Bft) 96,67 %
01.03.2016 15:36 1,0 C 88 % 1017,9 hPa 0,0 l/m 14,3 km/h (3 Bft) W-SW 254 0 min 0,000 mm 0,0 UV-I 31 W/m -0,8 C -5,4 C 22,5 km/h (4 Bft) 100,00 %
01.03.2016 15:37 1,0 C 88 % 1018,0 hPa 0,0 l/m 10,3 km/h (2 Bft) SW 221 0 min 0,000 mm 0,0 UV-I 33 W/m -0,8 C -2,6 C 14,5 km/h (3 Bft) 100,00 %
01.03.2016 15:38 1,0 C 89 % 1018,0 hPa 0,0 l/m 13,4 km/h (3 Bft) W-SW 250 0 min 0,000 mm 0,0 UV-I 33 W/m -0,6 C -4,8 C 22,5 km/h (4 Bft) 96,15 %
01.03.2016 15:39 1,0 C 89 % 1018,0 hPa 0,0 l/m 18,8 km/h (3 Bft) W-SW 258 0 min 0,000 mm 0,0 UV-I 32 W/m -0,6 C -7,8 C 22,5 km/h (4 Bft) 100,00 %
01.03.2016 15:40 1,0 C 89 % 1018,0 hPa 0,0 l/m 13,7 km/h (3 Bft) W-SW 254 0 min 0,000 mm 0,0 UV-I 30 W/m -0,6 C -5,0 C 17,7 km/h (3 Bft) 96,15 %
01.03.2016 15:41 1,0 C 89 % 1018,0 hPa 0,0 l/m 17,7 km/h (3 Bft) W-SW 242 0 min 0,000 mm 0,0 UV-I 29 W/m -0,6 C -7,2 C 25,7 km/h (4 Bft) 100,00 %
01.03.2016 15:42 1,0 C 88 % 1018,0 hPa 0,0 l/m 14,2 km/h (3 Bft) W 266 0 min 0,000 mm 0,0 UV-I 28 W/m -0,8 C -5,3 C 17,7 km/h (3 Bft) 100,00 %
01.03.2016 15:43 1,0 C 89 % 1018,0 hPa 0,0 l/m 20,2 km/h (4 Bft) W-SW 244 0 min 0,000 mm 0,0 UV-I 28 W/m -0,6 C -8,4 C 25,7 km/h (4 Bft) 100,00 %
01.03.2016 15:44 1,0 C 88 % 1018,0 hPa 0,0 l/m 15,1 km/h (3 Bft) W-SW 250 0 min 0,000 mm 0,0 UV-I 26 W/m -0,8 C -5,8 C 19,3 km/h (3 Bft) 100,00 %
01.03.2016 15:45 1,0 C 89 % 1018,0 hPa 0,0 l/m 15,2 km/h (3 Bft) SW 232 0 min 0,000 mm 0,0 UV-I 25 W/m -0,6 C -5,9 C 22,5 km/h (4 Bft) 100,00 %
01.03.2016 15:46 1,0 C 89 % 1018,0 hPa 0,0 l/m 14,1 km/h (3 Bft) W 271 0 min 0,000 mm 0,0 UV-I 24 W/m -0,6 C -5,2 C 17,7 km/h (3 Bft) 100,00 %
01.03.2016 15:47 1,0 C 89 % 1018,0 hPa 0,0 l/m 13,6 km/h (3 Bft) S-SW 212 0 min 0,000 mm 0,0 UV-I 22 W/m -0,6 C -4,9 C 19,3 km/h (3 Bft) 100,00 %
01.03.2016 15:48 1,0 C 89 % 1018,0 hPa 0,0 l/m 13,6 km/h (3 Bft) SW 223 0 min 0,000 mm 0,0 UV-I 22 W/m -0,6 C -4,9 C 16,1 km/h (3 Bft) 100,00 %
01.03.2016 15:49 1,0 C 89 % 1018,0 hPa 0,0 l/m 15,2 km/h (3 Bft) S-SW 200 0 min 0,000 mm 0,0 UV-I 23 W/m -0,6 C -5,9 C 20,9 km/h (4 Bft) 100,00 %
01.03.2016 15:50 1,0 C 89 % 1018,0 hPa 0,0 l/m 16,1 km/h (3 Bft) W-SW 246 0 min 0,000 mm 0,0 UV-I 25 W/m -0,6 C -6,4 C 20,9 km/h (4 Bft) 93,33 %
01.03.2016 15:51 1,0 C 89 % 1017,9 hPa 0,0 l/m 16,3 km/h (3 Bft) W-SW 247 0 min 0,000 mm 0,0 UV-I 30 W/m -0,6 C -6,5 C 20,9 km/h (4 Bft) 100,00 %
01.03.2016 15:52 0,9 C 89 % 1018,0 hPa 0,0 l/m 14,5 km/h (3 Bft) W-SW 239 0 min 0,000 mm 0,0 UV-I 32 W/m -0,7 C -5,6 C 20,9 km/h (4 Bft) 100,00 %
01.03.2016 15:53 1,0 C 88 % 1017,9 hPa 0,0 l/m 14,1 km/h (3 Bft) W-SW 250 0 min 0,000 mm 0,0 UV-I 33 W/m -0,8 C -5,2 C 20,9 km/h (4 Bft) 100,00 %
01.03.2016 15:54 1,0 C 88 % 1017,9 hPa 0,0 l/m 16,3 km/h (3 Bft) W-SW 254 0 min 0,000 mm 0,0 UV-I 35 W/m -0,8 C -6,5 C 24,1 km/h (4 Bft) 100,00 %
01.03.2016 15:55 1,0 C 88 % 1017,9 hPa 0,0 l/m 18,4 km/h (3 Bft) W 264 0 min 0,000 mm 0,0 UV-I 39 W/m -0,8 C -7,6 C 24,1 km/h (4 Bft) 100,00 %
01.03.2016 15:56 1,0 C 88 % 1017,9 hPa 0,0 l/m 13,8 km/h (3 Bft) W-SW 238 0 min 0,000 mm 0,0 UV-I 39 W/m -0,8 C -5,0 C 17,7 km/h (3 Bft) 100,00 %
01.03.2016 15:57 1,0 C 88 % 1017,9 hPa 0,0 l/m 12,3 km/h (3 Bft) SW 225 0 min 0,000 mm 0,0 UV-I 42 W/m -0,8 C -4,1 C 17,7 km/h (3 Bft) 100,00 %
01.03.2016 15:58 1,0 C 88 % 1017,9 hPa 0,0 l/m 14,2 km/h (3 Bft) W-SW 250 0 min 0,000 mm 0,0 UV-I 42 W/m -0,8 C -5,3 C 17,7 km/h (3 Bft) 100,00 %
01.03.2016 15:59 1,1 C 88 % 1017,9 hPa 0,0 l/m 18,9 km/h (3 Bft) SW 233 0 min 0,000 mm 0,0 UV-I 41 W/m -0,7 C -7,7 C 25,7 km/h (4 Bft) 100,00 %
01.03.2016 16:00 1,1 C 88 % 1017,9 hPa 0,0 l/m 16,3 km/h (3 Bft) W-SW 258 0 min 0,025 mm 0,0 UV-I 39 W/m -0,7 C -6,4 C 22,5 km/h (4 Bft) 96,30 %
01.03.2016 16:01 1,1 C 88 % 1017,9 hPa 0,0 l/m 15,1 km/h (3 Bft) SW 234 0 min 0,000 mm 0,0 UV-I 39 W/m -0,7 C -5,7 C 19,3 km/h (3 Bft) 95,65 %
01.03.2016 16:02 1,1 C 88 % 1017,9 hPa 0,0 l/m 14,0 km/h (3 Bft) W 260 0 min 0,000 mm 0,0 UV-I 39 W/m -0,7 C -5,0 C 16,1 km/h (3 Bft) 100,00 %
01.03.2016 16:03 1,1 C 88 % 1018,0 hPa 0,0 l/m 14,8 km/h (3 Bft) SW 231 0 min 0,000 mm 0,0 UV-I 37 W/m -0,7 C -5,5 C 20,9 km/h (4 Bft) 96,30 %
01.03.2016 16:04 1,1 C 88 % 1017,9 hPa 0,0 l/m 16,1 km/h (3 Bft) W 264 0 min 0,000 mm 0,0 UV-I 34 W/m -0,7 C -6,3 C 22,5 km/h (4 Bft) 100,00 %
01.03.2016 16:05 1,1 C 88 % 1018,0 hPa 0,0 l/m 14,6 km/h (3 Bft) W 264 0 min 0,000 mm 0,0 UV-I 32 W/m -0,7 C -5,4 C 19,3 km/h (3 Bft) 100,00 %
01.03.2016 16:06 1,1 C 88 % 1018,0 hPa 0,0 l/m 19,3 km/h (3 Bft) W-SW 252 0 min 0,000 mm 0,0 UV-I 31 W/m -0,7 C -7,9 C 25,7 km/h (4 Bft) 100,00 %
01.03.2016 16:07 1,1 C 88 % 1018,0 hPa 0,0 l/m 16,4 km/h (3 Bft) SW 217 0 min 0,000 mm 0,0 UV-I 30 W/m -0,7 C -6,4 C 22,5 km/h (4 Bft) 100,00 %
01.03.2016 16:08 1,1 C 88 % 1018,0 hPa 0,0 l/m 14,5 km/h (3 Bft) W-SW 257 0 min 0,000 mm 0,0 UV-I 28 W/m -0,7 C -5,4 C 19,3 km/h (3 Bft) 100,00 %
01.03.2016 16:09 1,1 C 88 % 1018,0 hPa 0,0 l/m 17,1 km/h (3 Bft) W-SW 256 0 min 0,000 mm 0,0 UV-I 30 W/m -0,7 C -6,8 C 22,5 km/h (4 Bft) 100,00 %
01.03.2016 16:10 1,1 C 88 % 1018,0 hPa 0,0 l/m 16,7 km/h (3 Bft) W-SW 248 0 min 0,000 mm 0,0 UV-I 32 W/m -0,7 C -6,6 C 22,5 km/h (4 Bft) 100,00 %
01.03.2016 16:11 1,1 C 88 % 1018,0 hPa 0,0 l/m 20,8 km/h (4 Bft) W-SW 240 0 min 0,000 mm 0,0 UV-I 33 W/m -0,7 C -8,6 C 25,7 km/h (4 Bft) 100,00 %
01.03.2016 16:12 1,1 C 88 % 1018,0 hPa 0,0 l/m 13,3 km/h (3 Bft) W 269 0 min 0,000 mm 0,0 UV-I 32 W/m -0,7 C -4,6 C 20,9 km/h (4 Bft) 92,86 %
01.03.2016 16:13 1,1 C 88 % 1018,0 hPa 0,0 l/m 15,1 km/h (3 Bft) W 259 0 min 0,000 mm 0,0 UV-I 28 W/m -0,7 C -5,7 C 20,9 km/h (4 Bft) 100,00 %
01.03.2016 16:14 1,1 C 88 % 1018,0 hPa 0,0 l/m 16,8 km/h (3 Bft) W-SW 250 0 min 0,000 mm 0,0 UV-I 26 W/m -0,7 C -6,6 C 25,7 km/h (4 Bft) 96,55 %
01.03.2016 16:15 1,1 C 88 % 1018,0 hPa 0,0 l/m 18,6 km/h (3 Bft) W 261 0 min 0,000 mm 0,0 UV-I 24 W/m -0,7 C -7,6 C 25,7 km/h (4 Bft) 93,33 %
01.03.2016 16:16 1,1 C 88 % 1018,1 hPa 0,0 l/m 14,2 km/h (3 Bft) W-SW 257 0 min 0,000 mm 0,0 UV-I 22 W/m -0,7 C -5,2 C 24,1 km/h (4 Bft) 100,00 %
01.03.2016 16:17 1,1 C 88 % 1018,1 hPa 0,0 l/m 18,9 km/h (3 Bft) W-SW 254 0 min 0,000 mm 0,0 UV-I 20 W/m -0,7 C -7,7 C 25,7 km/h (4 Bft) 100,00 %
01.03.2016 16:18 1,1 C 88 % 1018,0 hPa 0,0 l/m 15,7 km/h (3 Bft) W-NW 292 0 min 0,000 mm 0,0 UV-I 19 W/m -0,7 C -6,0 C 19,3 km/h (3 Bft) 100,00 %
01.03.2016 16:19 1,1 C 88 % 1018,0 hPa 0,0 l/m 14,5 km/h (3 Bft) W 259 0 min 0,000 mm 0,0 UV-I 18 W/m -0,7 C -5,4 C 17,7 km/h (3 Bft) 100,00 %
01.03.2016 16:20 1,1 C 88 % 1018,1 hPa 0,0 l/m 15,3 km/h (3 Bft) W-SW 246 0 min 0,000 mm 0,0 UV-I 17 W/m -0,7 C -5,8 C 19,3 km/h (3 Bft) 100,00 %
01.03.2016 16:21 1,1 C 88 % 1018,1 hPa 0,0 l/m 14,0 km/h (3 Bft) SW 228 0 min 0,000 mm 0,0 UV-I 18 W/m -0,7 C -5,0 C 17,7 km/h (3 Bft) 100,00 %
01.03.2016 16:22 1,1 C 88 % 1018,1 hPa 0,0 l/m 8,7 km/h (2 Bft) S-SW 208 0 min 0,000 mm 0,0 UV-I 18 W/m -0,7 C -1,1 C 12,9 km/h (3 Bft) 100,00 %
01.03.2016 16:23 1,1 C 88 % 1018,2 hPa 0,0 l/m 12,4 km/h (3 Bft) W-SW 253 0 min 0,000 mm 0,0 UV-I 17 W/m -0,7 C -4,0 C 19,3 km/h (3 Bft) 100,00 %
01.03.2016 16:24 1,1 C 88 % 1018,3 hPa 0,0 l/m 12,3 km/h (3 Bft) SW 235 0 min 0,000 mm 0,0 UV-I 16 W/m -0,7 C -3,9 C 17,7 km/h (3 Bft) 100,00 %
01.03.2016 16:25 1,1 C 88 % 1018,3 hPa 0,0 l/m 9,8 km/h (2 Bft) W-SW 253 0 min 0,000 mm 0,0 UV-I 16 W/m -0,7 C -2,1 C 17,7 km/h (3 Bft) 100,00 %
01.03.2016 16:26 1,0 C 89 % 1018,2 hPa 0,0 l/m 17,3 km/h (3 Bft) W-SW 238 0 min 0,000 mm 0,0 UV-I 14 W/m -0,6 C -7,0 C 20,9 km/h (4 Bft) 96,15 %
01.03.2016 16:27 1,0 C 88 % 1018,3 hPa 0,0 l/m 10,8 km/h (2 Bft) SW 218 0 min 0,000 mm 0,0 UV-I 12 W/m -0,8 C -3,0 C 14,5 km/h (3 Bft) 100,00 %
01.03.2016 16:28 1,0 C 89 % 1018,3 hPa 0,0 l/m 16,2 km/h (3 Bft) W-SW 244 0 min 0,000 mm 0,0 UV-I 12 W/m -0,6 C -6,4 C 20,9 km/h (4 Bft) 100,00 %
01.03.2016 16:29 1,0 C 88 % 1018,3 hPa 0,0 l/m 12,3 km/h (3 Bft) W-SW 252 0 min 0,000 mm 0,0 UV-I 12 W/m -0,8 C -4,1 C 17,7 km/h (3 Bft) 86,96 %
01.03.2016 16:30 1,0 C 89 % 1018,3 hPa 0,0 l/m 17,4 km/h (3 Bft) W 269 0 min 0,000 mm 0,0 UV-I 11 W/m -0,6 C -7,1 C 22,5 km/h (4 Bft) 95,83 %
01.03.2016 16:31 0,9 C 89 % 1018,3 hPa 0,0 l/m 15,8 km/h (3 Bft) W-SW 257 0 min 0,000 mm 0,0 UV-I 11 W/m -0,7 C -6,4 C 24,1 km/h (4 Bft) 100,00 %
01.03.2016 16:32 0,9 C 89 % 1018,4 hPa 0,0 l/m 11,7 km/h (2 Bft) S-SW 207 0 min 0,000 mm 0,0 UV-I 11 W/m -0,7 C -3,8 C 16,1 km/h (3 Bft) 96,30 %
01.03.2016 16:33 0,9 C 89 % 1018,3 hPa 0,0 l/m 14,8 km/h (3 Bft) W-SW 248 0 min 0,000 mm 0,0 UV-I 11 W/m -0,7 C -5,8 C 22,5 km/h (4 Bft) 96,15 %
01.03.2016 16:34 0,9 C 89 % 1018,4 hPa 0,0 l/m 15,6 km/h (3 Bft) SW 223 0 min 0,000 mm 0,0 UV-I 11 W/m -0,7 C -6,2 C 19,3 km/h (3 Bft) 96,67 %
01.03.2016 16:35 0,9 C 89 % 1018,4 hPa 0,0 l/m 12,6 km/h (3 Bft) W-SW 250 0 min 0,000 mm 0,0 UV-I 11 W/m -0,7 C -4,4 C 14,5 km/h (3 Bft) 100,00 %
01.03.2016 16:36 0,9 C 89 % 1018,4 hPa 0,0 l/m 8,9 km/h (2 Bft) W-SW 247 0 min 0,000 mm 0,0 UV-I 11 W/m -0,7 C -1,5 C 12,9 km/h (3 Bft) 96,30 %
01.03.2016 16:37 0,9 C 89 % 1018,4 hPa 0,0 l/m 13,0 km/h (3 Bft) W-SW 238 0 min 0,000 mm 0,0 UV-I 11 W/m -0,7 C -4,6 C 17,7 km/h (3 Bft) 100,00 %
01.03.2016 16:38 0,9 C 89 % 1018,4 hPa 0,0 l/m 13,6 km/h (3 Bft) SW 228 0 min 0,000 mm 0,0 UV-I 11 W/m -0,7 C -5,0 C 19,3 km/h (3 Bft) 96,30 %
01.03.2016 16:39 0,9 C 89 % 1018,5 hPa 0,0 l/m 13,2 km/h (3 Bft) W-SW 250 0 min 0,000 mm 0,0 UV-I 11 W/m -0,7 C -4,8 C 19,3 km/h (3 Bft) 90,91 %
01.03.2016 16:40 0,9 C 89 % 1018,5 hPa 0,0 l/m 10,5 km/h (2 Bft) W-SW 246 0 min 0,000 mm 0,0 UV-I 10 W/m -0,7 C -2,9 C 16,1 km/h (3 Bft) 96,67 %
01.03.2016 16:41 0,9 C 89 % 1018,5 hPa 0,0 l/m 10,9 km/h (2 Bft) W-SW 251 0 min 0,000 mm 0,0 UV-I 9 W/m -0,7 C -3,2 C 16,1 km/h (3 Bft) 92,31 %
01.03.2016 16:42 0,9 C 89 % 1018,5 hPa 0,0 l/m 11,1 km/h (2 Bft) W-SW 245 0 min 0,000 mm 0,0 UV-I 9 W/m -0,7 C -3,3 C 17,7 km/h (3 Bft) 100,00 %
01.03.2016 16:43 0,9 C 89 % 1018,5 hPa 0,0 l/m 12,9 km/h (3 Bft) W-SW 237 0 min 0,000 mm 0,0 UV-I 9 W/m -0,7 C -4,6 C 16,1 km/h (3 Bft) 92,86 %
01.03.2016 16:44 0,8 C 89 % 1018,4 hPa 0,0 l/m 14,8 km/h (3 Bft) W-SW 254 0 min 0,000 mm 0,0 UV-I 9 W/m -0,8 C -5,9 C 17,7 km/h (3 Bft) 92,59 %
01.03.2016 16:45 0,8 C 89 % 1018,4 hPa 0,0 l/m 11,1 km/h (2 Bft) S-SW 212 0 min 0,000 mm 0,0 UV-I 9 W/m -0,8 C -3,4 C 17,7 km/h (3 Bft) 95,65 %
01.03.2016 16:46 0,8 C 89 % 1018,4 hPa 0,0 l/m 12,7 km/h (3 Bft) W 261 0 min 0,000 mm 0,0 UV-I 9 W/m -0,8 C -4,6 C 19,3 km/h (3 Bft) 100,00 %
01.03.2016 16:47 0,8 C 89 % 1018,4 hPa 0,0 l/m 9,1 km/h (2 Bft) W-SW 238 0 min 0,000 mm 0,0 UV-I 8 W/m -0,8 C -1,8 C 11,3 km/h (2 Bft) 95,83 %
01.03.2016 16:48 0,8 C 89 % 1018,6 hPa 0,0 l/m 14,2 km/h (3 Bft) W-SW 257 0 min 0,000 mm 0,0 UV-I 7 W/m -0,8 C -5,5 C 17,7 km/h (3 Bft) 95,65 %
01.03.2016 16:51 0,8 C 89 % 1018,5 hPa 0,0 l/m 12,6 km/h (3 Bft) W 261 0 min 0,000 mm 0,0 UV-I 7 W/m -0,8 C -4,5 C 14,5 km/h (3 Bft) 97,33 %
01.03.2016 16:52 0,8 C 89 % 1018,5 hPa 0,0 l/m 9,6 km/h (2 Bft) SW 236 0 min 0,000 mm 0,0 UV-I 7 W/m -0,8 C -2,2 C 12,9 km/h (3 Bft) 92,86 %
01.03.2016 16:53 0,8 C 90 % 1018,5 hPa 0,0 l/m 14,1 km/h (3 Bft) W 262 0 min 0,000 mm 0,0 UV-I 7 W/m -0,6 C -5,5 C 19,3 km/h (3 Bft) 100,00 %
01.03.2016 16:54 0,8 C 90 % 1018,5 hPa 0,0 l/m 11,3 km/h (2 Bft) SW 234 0 min 0,000 mm 0,0 UV-I 7 W/m -0,6 C -3,6 C 16,1 km/h (3 Bft) 95,65 %
01.03.2016 16:55 0,8 C 90 % 1018,4 hPa 0,0 l/m 9,8 km/h (2 Bft) W 259 0 min 0,000 mm 0,0 UV-I 7 W/m -0,6 C -2,4 C 12,9 km/h (3 Bft) 100,00 %
01.03.2016 16:56 0,8 C 90 % 1018,4 hPa 0,0 l/m 11,0 km/h (2 Bft) SW 227 0 min 0,000 mm 0,0 UV-I 7 W/m -0,6 C -3,3 C 17,7 km/h (3 Bft) 95,65 %
01.03.2016 16:58 0,8 C 90 % 1018,4 hPa 0,0 l/m 9,2 km/h (2 Bft) SW 235 0 min 0,000 mm 0,0 UV-I 6 W/m -0,6 C -1,9 C 14,5 km/h (3 Bft) 98,00 %
01.03.2016 16:59 0,8 C 90 % 1018,5 hPa 0,0 l/m 10,6 km/h (2 Bft) W-SW 258 0 min 0,000 mm 0,0 UV-I 5 W/m -0,6 C -3,0 C 14,5 km/h (3 Bft) 100,00 %
01.03.2016 17:00 0,8 C 90 % 1018,4 hPa 0,0 l/m 11,4 km/h (2 Bft) W-SW 243 0 min 0,000 mm 0,0 UV-I 5 W/m -0,6 C -3,6 C 14,5 km/h (3 Bft) 84,62 %
01.03.2016 17:01 0,8 C 90 % 1018,4 hPa 0,0 l/m 12,5 km/h (3 Bft) W 271 0 min 0,026 mm 0,0 UV-I 5 W/m -0,6 C -4,4 C 17,7 km/h (3 Bft) 70,37 %
01.03.2016 17:02 0,8 C 90 % 1018,5 hPa 0,0 l/m 9,5 km/h (2 Bft) W 261 0 min 0,000 mm 0,0 UV-I 5 W/m -0,6 C -2,2 C 14,5 km/h (3 Bft) 96,15 %
01.03.2016 17:03 0,8 C 90 % 1018,5 hPa 0,0 l/m 10,7 km/h (2 Bft) W-SW 238 0 min 0,000 mm 0,0 UV-I 5 W/m -0,6 C -3,1 C 14,5 km/h (3 Bft) 87,50 %
01.03.2016 17:04 0,8 C 90 % 1018,5 hPa 0,0 l/m 10,2 km/h (2 Bft) W-SW 240 0 min 0,000 mm 0,0 UV-I 5 W/m -0,6 C -2,7 C 17,7 km/h (3 Bft) 100,00 %
01.03.2016 17:05 0,8 C 90 % 1018,5 hPa 0,0 l/m 11,3 km/h (2 Bft) W-SW 240 0 min 0,000 mm 0,0 UV-I 5 W/m -0,6 C -3,6 C 17,7 km/h (3 Bft) 100,00 %
01.03.2016 17:06 0,8 C 90 % 1018,5 hPa 0,0 l/m 14,3 km/h (3 Bft) W-SW 250 0 min 0,000 mm 0,0 UV-I 7 W/m -0,6 C -5,6 C 17,7 km/h (3 Bft) 100,00 %
01.03.2016 17:07 0,8 C 90 % 1018,5 hPa 0,0 l/m 15,9 km/h (3 Bft) W-SW 246 0 min 0,000 mm 0,0 UV-I 7 W/m -0,6 C -6,5 C 20,9 km/h (4 Bft) 100,00 %
01.03.2016 17:08 0,8 C 90 % 1018,5 hPa 0,0 l/m 13,5 km/h (3 Bft) W 259 0 min 0,000 mm 0,0 UV-I 6 W/m -0,6 C -5,1 C 17,7 km/h (3 Bft) 96,15 %
01.03.2016 17:09 0,8 C 90 % 1018,4 hPa 0,0 l/m 10,3 km/h (2 Bft) W-SW 247 0 min 0,000 mm 0,0 UV-I 5 W/m -0,6 C -2,8 C 14,5 km/h (3 Bft) 100,00 %
01.03.2016 17:10 0,8 C 90 % 1018,5 hPa 0,0 l/m 9,7 km/h (2 Bft) W-SW 241 0 min 0,000 mm 0,0 UV-I 5 W/m -0,6 C -2,3 C 12,9 km/h (3 Bft) 100,00 %
01.03.2016 17:11 0,8 C 90 % 1018,4 hPa 0,0 l/m 10,4 km/h (2 Bft) W-SW 242 0 min 0,000 mm 0,0 UV-I 5 W/m -0,6 C -2,9 C 14,5 km/h (3 Bft) 100,00 %
01.03.2016 17:12 0,8 C 90 % 1018,4 hPa 0,0 l/m 13,0 km/h (3 Bft) SW 219 0 min 0,000 mm 0,0 UV-I 5 W/m -0,6 C -4,8 C 16,1 km/h (3 Bft) 100,00 %
01.03.2016 17:13 0,8 C 90 % 1018,4 hPa 0,0 l/m 10,5 km/h (2 Bft) W-SW 257 0 min 0,000 mm 0,0 UV-I 5 W/m -0,6 C -3,0 C 12,9 km/h (3 Bft) 96,15 %
01.03.2016 17:14 0,8 C 90 % 1018,5 hPa 0,0 l/m 9,7 km/h (2 Bft) W 267 0 min 0,000 mm 0,0 UV-I 5 W/m -0,6 C -2,3 C 14,5 km/h (3 Bft) 96,15 %
01.03.2016 17:15 0,8 C 90 % 1018,5 hPa 0,0 l/m 9,3 km/h (2 Bft) W-SW 242 0 min 0,000 mm 0,0 UV-I 5 W/m -0,6 C -2,0 C 12,9 km/h (3 Bft) 100,00 %
01.03.2016 17:16 0,8 C 90 % 1018,4 hPa 0,0 l/m 9,9 km/h (2 Bft) W-SW 238 0 min 0,000 mm 0,0 UV-I 2 W/m -0,6 C -2,5 C 12,9 km/h (3 Bft) 100,00 %
01.03.2016 17:17 0,8 C 90 % 1018,4 hPa 0,0 l/m 10,4 km/h (2 Bft) W-SW 255 0 min 0,000 mm 0,0 UV-I 0 W/m -0,6 C -2,9 C 16,1 km/h (3 Bft) 96,55 %
01.03.2016 17:18 0,8 C 90 % 1018,5 hPa 0,0 l/m 9,2 km/h (2 Bft) SW 220 0 min 0,000 mm 0,0 UV-I 0 W/m -0,6 C -1,9 C 12,9 km/h (3 Bft) 100,00 %
01.03.2016 17:19 0,8 C 90 % 1018,5 hPa 0,0 l/m 11,4 km/h (2 Bft) SW 232 0 min 0,000 mm 0,0 UV-I 0 W/m -0,6 C -3,6 C 16,1 km/h (3 Bft) 95,83 %
01.03.2016 17:20 0,8 C 90 % 1018,5 hPa 0,0 l/m 12,4 km/h (3 Bft) S-SW 210 0 min 0,000 mm 0,0 UV-I 0 W/m -0,6 C -4,4 C 16,1 km/h (3 Bft) 100,00 %
01.03.2016 17:21 0,8 C 90 % 1018,5 hPa 0,0 l/m 10,1 km/h (2 Bft) W-SW 240 0 min 0,000 mm 0,0 UV-I 0 W/m -0,6 C -2,6 C 14,5 km/h (3 Bft) 100,00 %
01.03.2016 17:22 0,8 C 90 % 1018,4 hPa 0,0 l/m 9,6 km/h (2 Bft) SW 225 0 min 0,000 mm 0,0 UV-I 0 W/m -0,6 C -2,2 C 16,1 km/h (3 Bft) 100,00 %
01.03.2016 17:23 0,8 C 90 % 1018,5 hPa 0,0 l/m 10,9 km/h (2 Bft) W-SW 257 0 min 0,000 mm 0,0 UV-I 0 W/m -0,6 C -3,3 C 14,5 km/h (3 Bft) 100,00 %
01.03.2016 17:24 0,8 C 90 % 1018,5 hPa 0,0 l/m 9,3 km/h (2 Bft) W 261 0 min 0,000 mm 0,0 UV-I 0 W/m -0,6 C -2,0 C 12,9 km/h (3 Bft) 100,00 %
01.03.2016 17:25 0,8 C 90 % 1018,5 hPa 0,0 l/m 6,3 km/h (2 Bft) W-SW 237 0 min 0,000 mm 0,0 UV-I 0 W/m -0,6 C 0,8 C 9,7 km/h (2 Bft) 100,00 %
01.03.2016 17:26 0,8 C 90 % 1018,5 hPa 0,0 l/m 10,1 km/h (2 Bft) W-SW 240 0 min 0,000 mm 0,0 UV-I 0 W/m -0,6 C -2,6 C 14,5 km/h (3 Bft) 100,00 %
01.03.2016 17:27 0,8 C 90 % 1018,5 hPa 0,0 l/m 8,1 km/h (2 Bft) W 264 0 min 0,000 mm 0,0 UV-I 0 W/m -0,6 C -0,9 C 14,5 km/h (3 Bft) 96,55 %
01.03.2016 17:28 0,9 C 90 % 1018,5 hPa 0,0 l/m 10,0 km/h (2 Bft) W 267 0 min 0,000 mm 0,0 UV-I 0 W/m -0,6 C -2,5 C 14,5 km/h (3 Bft) 100,00 %
01.03.2016 17:29 0,8 C 90 % 1018,5 hPa 0,0 l/m 8,3 km/h (2 Bft) W-SW 237 0 min 0,000 mm 0,0 UV-I 0 W/m -0,6 C -1,1 C 12,9 km/h (3 Bft) 100,00 %
01.03.2016 17:30 0,9 C 90 % 1018,4 hPa 0,0 l/m 8,9 km/h (2 Bft) W-SW 248 0 min 0,000 mm 0,0 UV-I 0 W/m -0,6 C -1,5 C 14,5 km/h (3 Bft) 100,00 %
01.03.2016 17:31 0,9 C 90 % 1018,4 hPa 0,0 l/m 7,8 km/h (2 Bft) W-SW 239 0 min 0,000 mm 0,0 UV-I 0 W/m -0,6 C -0,5 C 11,3 km/h (2 Bft) 100,00 %
01.03.2016 17:32 0,9 C 90 % 1018,4 hPa 0,0 l/m 9,8 km/h (2 Bft) W-SW 248 0 min 0,000 mm 0,0 UV-I 0 W/m -0,6 C -2,3 C 14,5 km/h (3 Bft) 100,00 %
01.03.2016 17:33 0,9 C 90 % 1018,4 hPa 0,0 l/m 8,7 km/h (2 Bft) W-SW 247 0 min 0,000 mm 0,0 UV-I 0 W/m -0,6 C -1,3 C 14,5 km/h (3 Bft) 94,74 %
01.03.2016 17:34 0,8 C 90 % 1018,4 hPa 0,0 l/m 11,3 km/h (2 Bft) W-SW 258 0 min 0,000 mm 0,0 UV-I 0 W/m -0,6 C -3,6 C 16,1 km/h (3 Bft) 100,00 %
01.03.2016 17:35 0,9 C 90 % 1018,4 hPa 0,0 l/m 10,9 km/h (2 Bft) W-SW 241 0 min 0,000 mm 0,0 UV-I 0 W/m -0,6 C -3,2 C 16,1 km/h (3 Bft) 98,47 %
01.03.2016 17:36 0,9 C 90 % 1018,4 hPa 0,0 l/m 10,7 km/h (2 Bft) W-SW 255 0 min 0,000 mm 0,0 UV-I 0 W/m -0,6 C -3,0 C 14,5 km/h (3 Bft) 97,73 %
01.03.2016 17:37 0,9 C 90 % 1018,4 hPa 0,0 l/m 9,2 km/h (2 Bft) SW 234 0 min 0,000 mm 0,0 UV-I 0 W/m -0,6 C -1,8 C 12,9 km/h (3 Bft) 100,00 %
01.03.2016 17:38 0,9 C 90 % 1018,4 hPa 0,0 l/m 8,0 km/h (2 Bft) SW 228 0 min 0,000 mm 0,0 UV-I 0 W/m -0,6 C -0,7 C 11,3 km/h (2 Bft) 100,00 %
01.03.2016 17:39 0,9 C 90 % 1018,4 hPa 0,0 l/m 9,3 km/h (2 Bft) W-SW 256 0 min 0,000 mm 0,0 UV-I 0 W/m -0,6 C -1,9 C 12,9 km/h (3 Bft) 100,00 %
01.03.2016 17:40 0,9 C 90 % 1018,5 hPa 0,0 l/m 11,2 km/h (2 Bft) W-SW 256 0 min 0,000 mm 0,0 UV-I 0 W/m -0,6 C -3,4 C 16,1 km/h (3 Bft) 100,00 %
01.03.2016 17:41 0,9 C 90 % 1018,5 hPa 0,0 l/m 8,0 km/h (2 Bft) SW 232 0 min 0,000 mm 0,0 UV-I 0 W/m -0,6 C -0,7 C 11,3 km/h (2 Bft) 100,00 %
01.03.2016 17:42 0,9 C 90 % 1018,4 hPa 0,0 l/m 8,3 km/h (2 Bft) W-SW 238 0 min 0,000 mm 0,0 UV-I 0 W/m -0,6 C -1,0 C 12,9 km/h (3 Bft) 100,00 %
01.03.2016 17:43 0,8 C 90 % 1018,4 hPa 0,0 l/m 9,6 km/h (2 Bft) SW 228 0 min 0,000 mm 0,0 UV-I 0 W/m -0,6 C -2,2 C 12,9 km/h (3 Bft) 100,00 %
01.03.2016 17:44 0,8 C 90 % 1018,5 hPa 0,0 l/m 8,9 km/h (2 Bft) W-SW 240 0 min 0,000 mm 0,0 UV-I 0 W/m -0,6 C -1,6 C 11,3 km/h (2 Bft) 100,00 %
01.03.2016 17:45 0,8 C 90 % 1018,5 hPa 0,0 l/m 7,8 km/h (2 Bft) SW 225 0 min 0,000 mm 0,0 UV-I 0 W/m -0,6 C -0,6 C 9,7 km/h (2 Bft) 100,00 %
01.03.2016 17:46 0,8 C 90 % 1018,5 hPa 0,0 l/m 11,1 km/h (2 Bft) SW 231 0 min 0,000 mm 0,0 UV-I 0 W/m -0,6 C -3,4 C 16,1 km/h (3 Bft) 100,00 %
01.03.2016 17:47 0,8 C 90 % 1018,5 hPa 0,0 l/m 7,2 km/h (2 Bft) S-SW 211 0 min 0,000 mm 0,0 UV-I 0 W/m -0,6 C -0,0 C 11,3 km/h (2 Bft) 100,00 %
01.03.2016 17:48 0,8 C 90 % 1018,5 hPa 0,0 l/m 7,2 km/h (2 Bft) SW 236 0 min 0,000 mm 0,0 UV-I 0 W/m -0,6 C -0,0 C 11,3 km/h (2 Bft) 95,65 %
01.03.2016 17:49 0,8 C 90 % 1018,5 hPa 0,0 l/m 9,3 km/h (2 Bft) W-SW 245 0 min 0,000 mm 0,0 UV-I 0 W/m -0,6 C -2,0 C 12,9 km/h (3 Bft) 100,00 %
01.03.2016 17:50 0,8 C 90 % 1018,5 hPa 0,0 l/m 9,4 km/h (2 Bft) SW 236 0 min 0,000 mm 0,0 UV-I 0 W/m -0,6 C -2,1 C 12,9 km/h (3 Bft) 100,00 %
01.03.2016 17:51 0,8 C 90 % 1018,5 hPa 0,0 l/m 9,9 km/h (2 Bft) W-SW 244 0 min 0,000 mm 0,0 UV-I 0 W/m -0,6 C -2,5 C 12,9 km/h (3 Bft) 100,00 %
01.03.2016 17:52 0,8 C 90 % 1018,5 hPa 0,0 l/m 8,4 km/h (2 Bft) W-SW 238 0 min 0,000 mm 0,0 UV-I 0 W/m -0,6 C -1,2 C 11,3 km/h (2 Bft) 100,00 %
01.03.2016 17:53 0,8 C 90 % 1018,5 hPa 0,0 l/m 5,4 km/h (1 Bft) SW 218 0 min 0,000 mm 0,0 UV-I 0 W/m -0,6 C 0,8 C 8,0 km/h (2 Bft) 100,00 %
01.03.2016 17:54 0,8 C 91 % 1018,5 hPa 0,0 l/m 8,7 km/h (2 Bft) W-SW 248 0 min 0,000 mm 0,0 UV-I 0 W/m -0,5 C -1,5 C 12,9 km/h (3 Bft) 100,00 %
01.03.2016 17:55 0,8 C 91 % 1018,5 hPa 0,0 l/m 6,9 km/h (2 Bft) W-SW 248 0 min 0,000 mm 0,0 UV-I 0 W/m -0,5 C 0,3 C 9,7 km/h (2 Bft) 100,00 %
01.03.2016 17:56 0,8 C 91 % 1018,6 hPa 0,0 l/m 6,0 km/h (2 Bft) SW 227 0 min 0,000 mm 0,0 UV-I 0 W/m -0,5 C 0,8 C 8,0 km/h (2 Bft) 100,00 %
01.03.2016 17:57 0,8 C 91 % 1018,6 hPa 0,0 l/m 7,2 km/h (2 Bft) SW 216 0 min 0,000 mm 0,0 UV-I 0 W/m -0,5 C -0,0 C 9,7 km/h (2 Bft) 100,00 %
01.03.2016 17:58 0,8 C 91 % 1018,6 hPa 0,0 l/m 9,4 km/h (2 Bft) W-SW 239 0 min 0,000 mm 0,0 UV-I 0 W/m -0,5 C -2,1 C 14,5 km/h (3 Bft) 100,00 %
01.03.2016 17:59 0,8 C 91 % 1018,7 hPa 0,0 l/m 13,2 km/h (3 Bft) W-SW 254 0 min 0,000 mm 0,0 UV-I 0 W/m -0,5 C -4,9 C 16,1 km/h (3 Bft) 100,00 %
01.03.2016 18:00 0,8 C 91 % 1018,6 hPa 0,0 l/m 11,5 km/h (2 Bft) SW 216 0 min 0,000 mm 0,0 UV-I 0 W/m -0,5 C -3,7 C 16,1 km/h (3 Bft) 100,00 %
01.03.2016 18:01 0,8 C 91 % 1018,6 hPa 0,0 l/m 11,2 km/h (2 Bft) S-SW 213 0 min 0,000 mm 0,0 UV-I 0 W/m -0,5 C -3,5 C 17,7 km/h (3 Bft) 100,00 %
01.03.2016 18:02 0,8 C 91 % 1018,6 hPa 0,0 l/m 9,1 km/h (2 Bft) SW 216 0 min 0,000 mm 0,0 UV-I 0 W/m -0,5 C -1,8 C 17,7 km/h (3 Bft) 100,00 %
01.03.2016 18:03 0,8 C 91 % 1018,6 hPa 0,0 l/m 11,2 km/h (2 Bft) W-SW 254 0 min 0,000 mm 0,0 UV-I 0 W/m -0,5 C -3,5 C 19,3 km/h (3 Bft) 95,65 %
01.03.2016 18:04 0,8 C 91 % 1018,7 hPa 0,0 l/m 10,6 km/h (2 Bft) SW 221 0 min 0,000 mm 0,0 UV-I 0 W/m -0,5 C -3,0 C 14,5 km/h (3 Bft) 100,00 %
01.03.2016 18:05 0,8 C 91 % 1018,7 hPa 0,0 l/m 10,8 km/h (2 Bft) W 260 0 min 0,000 mm 0,0 UV-I 0 W/m -0,5 C -3,2 C 14,5 km/h (3 Bft) 98,51 %
01.03.2016 18:06 0,8 C 91 % 1018,7 hPa 0,0 l/m 10,1 km/h (2 Bft) W 270 0 min 0,000 mm 0,0 UV-I 0 W/m -0,5 C -2,6 C 12,9 km/h (3 Bft) 100,00 %
01.03.2016 18:07 0,8 C 91 % 1018,6 hPa 0,0 l/m 12,7 km/h (3 Bft) S-SW 205 0 min 0,000 mm 0,0 UV-I 0 W/m -0,5 C -4,6 C 17,7 km/h (3 Bft) 96,15 %
01.03.2016 18:08 0,8 C 91 % 1018,7 hPa 0,0 l/m 12,0 km/h (2 Bft) SW 221 0 min 0,000 mm 0,0 UV-I 0 W/m -0,5 C -4,1 C 16,1 km/h (3 Bft) 100,00 %
01.03.2016 18:09 0,8 C 91 % 1018,7 hPa 0,0 l/m 17,1 km/h (3 Bft) W-SW 257 0 min 0,000 mm 0,0 UV-I 0 W/m -0,5 C -7,2 C 22,5 km/h (4 Bft) 100,00 %
01.03.2016 18:10 0,8 C 91 % 1018,7 hPa 0,0 l/m 13,5 km/h (3 Bft) SW 223 0 min 0,000 mm 0,0 UV-I 0 W/m -0,5 C -5,1 C 19,3 km/h (3 Bft) 100,00 %
01.03.2016 18:11 0,8 C 91 % 1018,7 hPa 0,0 l/m 9,9 km/h (2 Bft) SW 223 0 min 0,000 mm 0,0 UV-I 0 W/m -0,5 C -2,5 C 16,1 km/h (3 Bft) 100,00 %
01.03.2016 18:12 0,8 C 91 % 1018,7 hPa 0,0 l/m 13,2 km/h (3 Bft) W 265 0 min 0,000 mm 0,0 UV-I 0 W/m -0,5 C -4,9 C 16,1 km/h (3 Bft) 100,00 %
01.03.2016 18:13 0,7 C 91 % 1018,7 hPa 0,0 l/m 12,4 km/h (3 Bft) W-SW 246 0 min 0,000 mm 0,0 UV-I 0 W/m -0,6 C -4,5 C 17,7 km/h (3 Bft) 96,15 %
01.03.2016 18:14 0,7 C 92 % 1018,7 hPa 0,0 l/m 13,8 km/h (3 Bft) W-SW 242 0 min 0,000 mm 0,0 UV-I 0 W/m -0,4 C -5,4 C 19,3 km/h (3 Bft) 100,00 %
01.03.2016 18:15 0,7 C 92 % 1018,7 hPa 0,0 l/m 11,5 km/h (2 Bft) SW 228 0 min 0,000 mm 0,0 UV-I 0 W/m -0,4 C -3,8 C 16,1 km/h (3 Bft) 100,00 %
01.03.2016 18:16 0,7 C 92 % 1018,7 hPa 0,0 l/m 14,6 km/h (3 Bft) W-SW 248 0 min 0,000 mm 0,0 UV-I 0 W/m -0,4 C -5,9 C 17,7 km/h (3 Bft) 100,00 %
01.03.2016 18:17 0,7 C 92 % 1018,7 hPa 0,0 l/m 15,0 km/h (3 Bft) SW 232 0 min 0,000 mm 0,0 UV-I 0 W/m -0,4 C -6,1 C 17,7 km/h (3 Bft) 100,00 %
01.03.2016 18:18 0,7 C 92 % 1018,7 hPa 0,0 l/m 10,2 km/h (2 Bft) W-SW 242 0 min 0,000 mm 0,0 UV-I 0 W/m -0,4 C -2,8 C 12,9 km/h (3 Bft) 100,00 %
01.03.2016 18:19 0,7 C 92 % 1018,7 hPa 0,0 l/m 10,0 km/h (2 Bft) W-SW 250 0 min 0,000 mm 0,0 UV-I 0 W/m -0,4 C -2,7 C 16,1 km/h (3 Bft) 100,00 %
01.03.2016 18:20 0,7 C 92 % 1018,7 hPa 0,0 l/m 15,0 km/h (3 Bft) W 263 0 min 0,000 mm 0,0 UV-I 0 W/m -0,4 C -6,1 C 19,3 km/h (3 Bft) 93,33 %
01.03.2016 18:21 0,7 C 92 % 1018,7 hPa 0,0 l/m 12,3 km/h (3 Bft) W 266 0 min 0,000 mm 0,0 UV-I 0 W/m -0,4 C -4,4 C 14,5 km/h (3 Bft) 100,00 %
01.03.2016 18:22 0,7 C 93 % 1018,8 hPa 0,0 l/m 13,2 km/h (3 Bft) W-SW 246 0 min 0,000 mm 0,0 UV-I 0 W/m -0,3 C -5,0 C 20,9 km/h (4 Bft) 95,65 %
01.03.2016 18:23 0,7 C 93 % 1018,7 hPa 0,0 l/m 13,7 km/h (3 Bft) W 273 0 min 0,000 mm 0,0 UV-I 0 W/m -0,3 C -5,3 C 17,7 km/h (3 Bft) 100,00 %
01.03.2016 18:24 0,7 C 93 % 1018,7 hPa 0,0 l/m 15,4 km/h (3 Bft) W-SW 252 0 min 0,000 mm 0,0 UV-I 0 W/m -0,3 C -6,4 C 19,3 km/h (3 Bft) 92,86 %
01.03.2016 18:25 0,7 C 93 % 1018,8 hPa 0,0 l/m 8,2 km/h (2 Bft) W-SW 257 0 min 0,000 mm 0,0 UV-I 0 W/m -0,3 C -1,1 C 12,9 km/h (3 Bft) 100,00 %
01.03.2016 18:26 0,7 C 93 % 1018,7 hPa 0,0 l/m 15,3 km/h (3 Bft) W-SW 254 0 min 0,000 mm 0,0 UV-I 0 W/m -0,3 C -6,3 C 17,7 km/h (3 Bft) 100,00 %
01.03.2016 18:27 0,7 C 93 % 1018,7 hPa 0,0 l/m 15,2 km/h (3 Bft) W 267 0 min 0,000 mm 0,0 UV-I 0 W/m -0,3 C -6,3 C 19,3 km/h (3 Bft) 100,00 %
01.03.2016 18:28 0,7 C 93 % 1018,8 hPa 0,0 l/m 10,8 km/h (2 Bft) SW 221 0 min 0,000 mm 0,0 UV-I 0 W/m -0,3 C -3,3 C 14,5 km/h (3 Bft) 100,00 %
01.03.2016 18:29 0,7 C 93 % 1018,8 hPa 0,0 l/m 15,2 km/h (3 Bft) W 262 0 min 0,000 mm 0,0 UV-I 0 W/m -0,3 C -6,3 C 20,9 km/h (4 Bft) 100,00 %
01.03.2016 18:30 0,7 C 93 % 1018,7 hPa 0,0 l/m 15,0 km/h (3 Bft) W-SW 256 0 min 0,000 mm 0,0 UV-I 0 W/m -0,3 C -6,1 C 19,3 km/h (3 Bft) 100,00 %
01.03.2016 18:31 0,7 C 93 % 1018,7 hPa 0,0 l/m 14,1 km/h (3 Bft) W-NW 284 0 min 0,000 mm 0,0 UV-I 0 W/m -0,3 C -5,6 C 17,7 km/h (3 Bft) 100,00 %
01.03.2016 18:32 0,7 C 93 % 1018,7 hPa 0,0 l/m 11,1 km/h (2 Bft) W 267 0 min 0,000 mm 0,0 UV-I 0 W/m -0,3 C -3,5 C 14,5 km/h (3 Bft) 95,65 %
01.03.2016 18:33 0,7 C 93 % 1018,7 hPa 0,0 l/m 11,3 km/h (2 Bft) W-SW 244 0 min 0,000 mm 0,0 UV-I 0 W/m -0,3 C -3,7 C 16,1 km/h (3 Bft) 100,00 %
01.03.2016 18:34 0,7 C 93 % 1018,8 hPa 0,0 l/m 12,3 km/h (3 Bft) W-SW 248 0 min 0,000 mm 0,0 UV-I 0 W/m -0,3 C -4,4 C 20,9 km/h (4 Bft) 100,00 %
01.03.2016 18:35 0,7 C 93 % 1018,8 hPa 0,0 l/m 16,3 km/h (3 Bft) W-SW 249 0 min 0,000 mm 0,0 UV-I 0 W/m -0,3 C -6,9 C 20,9 km/h (4 Bft) 100,00 %
01.03.2016 18:36 0,7 C 93 % 1018,8 hPa 0,0 l/m 12,4 km/h (3 Bft) W 270 0 min 0,000 mm 0,0 UV-I 0 W/m -0,3 C -4,5 C 19,3 km/h (3 Bft) 100,00 %
01.03.2016 18:37 0,7 C 93 % 1018,9 hPa 0,0 l/m 13,5 km/h (3 Bft) W-SW 241 0 min 0,000 mm 0,0 UV-I 0 W/m -0,3 C -5,2 C 17,7 km/h (3 Bft) 100,00 %
01.03.2016 18:38 0,7 C 93 % 1018,8 hPa 0,0 l/m 14,2 km/h (3 Bft) W-SW 244 0 min 0,000 mm 0,0 UV-I 0 W/m -0,3 C -5,7 C 17,7 km/h (3 Bft) 96,15 %
01.03.2016 18:39 0,7 C 93 % 1018,8 hPa 0,0 l/m 9,7 km/h (2 Bft) W-SW 252 0 min 0,000 mm 0,0 UV-I 0 W/m -0,3 C -2,4 C 12,9 km/h (3 Bft) 96,30 %
01.03.2016 18:40 0,7 C 93 % 1018,8 hPa 0,0 l/m 15,6 km/h (3 Bft) W-SW 251 0 min 0,000 mm 0,0 UV-I 0 W/m -0,3 C -6,5 C 19,3 km/h (3 Bft) 100,00 %
01.03.2016 18:41 0,7 C 93 % 1018,8 hPa 0,0 l/m 12,2 km/h (2 Bft) W-SW 240 0 min 0,000 mm 0,0 UV-I 0 W/m -0,3 C -4,3 C 16,1 km/h (3 Bft) 100,00 %
01.03.2016 18:42 0,7 C 93 % 1018,8 hPa 0,0 l/m 14,8 km/h (3 Bft) W 281 0 min 0,000 mm 0,0 UV-I 0 W/m -0,3 C -6,0 C 22,5 km/h (4 Bft) 96,30 %
01.03.2016 18:43 0,7 C 93 % 1018,8 hPa 0,0 l/m 13,1 km/h (3 Bft) W-SW 239 0 min 0,000 mm 0,0 UV-I 0 W/m -0,3 C -4,9 C 20,9 km/h (4 Bft) 95,65 %
01.03.2016 18:44 0,7 C 93 % 1018,8 hPa 0,0 l/m 10,5 km/h (2 Bft) W-SW 244 0 min 0,000 mm 0,0 UV-I 0 W/m -0,3 C -3,1 C 14,5 km/h (3 Bft) 100,00 %
01.03.2016 18:45 0,8 C 93 % 1018,8 hPa 0,0 l/m 10,2 km/h (2 Bft) W-SW 243 0 min 0,000 mm 0,0 UV-I 0 W/m -0,2 C -2,7 C 16,1 km/h (3 Bft) 97,56 %
01.03.2016 18:46 0,8 C 93 % 1018,8 hPa 0,0 l/m 12,1 km/h (2 Bft) W 267 0 min 0,000 mm 0,0 UV-I 0 W/m -0,2 C -4,2 C 16,1 km/h (3 Bft) 100,00 %
01.03.2016 18:47 0,8 C 92 % 1018,8 hPa 0,0 l/m 10,1 km/h (2 Bft) SW 224 0 min 0,000 mm 0,0 UV-I 0 W/m -0,3 C -2,6 C 14,5 km/h (3 Bft) 92,86 %
01.03.2016 18:48 0,8 C 92 % 1018,8 hPa 0,0 l/m 10,1 km/h (2 Bft) W-SW 244 0 min 0,000 mm 0,0 UV-I 0 W/m -0,3 C -2,6 C 14,5 km/h (3 Bft) 100,00 %
01.03.2016 18:49 0,8 C 92 % 1018,9 hPa 0,0 l/m 13,4 km/h (3 Bft) W-SW 240 0 min 0,000 mm 0,0 UV-I 0 W/m -0,3 C -5,0 C 17,7 km/h (3 Bft) 96,15 %
01.03.2016 18:50 0,8 C 92 % 1018,8 hPa 0,0 l/m 14,0 km/h (3 Bft) W-SW 256 0 min 0,000 mm 0,0 UV-I 0 W/m -0,3 C -5,4 C 17,7 km/h (3 Bft) 95,83 %
01.03.2016 18:51 0,8 C 92 % 1018,8 hPa 0,0 l/m 11,1 km/h (2 Bft) W-SW 244 0 min 0,000 mm 0,0 UV-I 0 W/m -0,3 C -3,4 C 12,9 km/h (3 Bft) 100,00 %
01.03.2016 18:52 0,8 C 92 % 1018,8 hPa 0,0 l/m 15,2 km/h (3 Bft) W-SW 256 0 min 0,000 mm 0,0 UV-I 0 W/m -0,3 C -6,1 C 20,9 km/h (4 Bft) 96,30 %
01.03.2016 18:53 0,8 C 92 % 1018,8 hPa 0,0 l/m 10,2 km/h (2 Bft) W-SW 252 0 min 0,000 mm 0,0 UV-I 0 W/m -0,3 C -2,7 C 14,5 km/h (3 Bft) 100,00 %
01.03.2016 18:54 0,8 C 92 % 1018,8 hPa 0,0 l/m 12,2 km/h (2 Bft) W-SW 241 0 min 0,000 mm 0,0 UV-I 0 W/m -0,3 C -4,2 C 16,1 km/h (3 Bft) 96,15 %
01.03.2016 18:55 0,8 C 92 % 1018,8 hPa 0,0 l/m 12,2 km/h (2 Bft) W-SW 249 0 min 0,000 mm 0,0 UV-I 0 W/m -0,3 C -4,2 C 16,1 km/h (3 Bft) 100,00 %
01.03.2016 18:56 0,8 C 92 % 1018,8 hPa 0,0 l/m 12,9 km/h (3 Bft) W-SW 246 0 min 0,000 mm 0,0 UV-I 0 W/m -0,3 C -4,7 C 22,5 km/h (4 Bft) 93,10 %
01.03.2016 18:57 0,8 C 92 % 1018,8 hPa 0,0 l/m 13,9 km/h (3 Bft) W-SW 238 0 min 0,000 mm 0,0 UV-I 0 W/m -0,3 C -5,3 C 19,3 km/h (3 Bft) 100,00 %
01.03.2016 18:58 0,8 C 92 % 1018,8 hPa 0,0 l/m 12,8 km/h (3 Bft) W-SW 242 0 min 0,000 mm 0,0 UV-I 0 W/m -0,3 C -4,6 C 16,1 km/h (3 Bft) 91,30 %
01.03.2016 18:59 0,9 C 92 % 1018,8 hPa 0,0 l/m 12,9 km/h (3 Bft) W-SW 254 0 min 0,000 mm 0,0 UV-I 0 W/m -0,2 C -4,6 C 16,1 km/h (3 Bft) 95,83 %
01.03.2016 19:00 0,9 C 92 % 1018,8 hPa 0,0 l/m 14,1 km/h (3 Bft) W 260 0 min 0,000 mm 0,0 UV-I 0 W/m -0,2 C -5,3 C 16,1 km/h (3 Bft) 100,00 %
01.03.2016 19:01 0,9 C 92 % 1018,7 hPa 0,0 l/m 12,4 km/h (3 Bft) SW 225 0 min 0,000 mm 0,0 UV-I 0 W/m -0,2 C -4,2 C 17,7 km/h (3 Bft) 95,83 %
01.03.2016 19:02 0,9 C 92 % 1018,7 hPa 0,0 l/m 12,2 km/h (2 Bft) W 259 0 min 0,000 mm 0,0 UV-I 0 W/m -0,2 C -4,1 C 17,7 km/h (3 Bft) 100,00 %
01.03.2016 19:03 0,9 C 92 % 1018,7 hPa 0,0 l/m 8,7 km/h (2 Bft) W-SW 256 0 min 0,000 mm 0,0 UV-I 0 W/m -0,2 C -1,3 C 17,7 km/h (3 Bft) 91,67 %
01.03.2016 19:04 0,9 C 92 % 1018,8 hPa 0,0 l/m 16,3 km/h (3 Bft) W-SW 244 0 min 0,000 mm 0,0 UV-I 0 W/m -0,2 C -6,6 C 19,3 km/h (3 Bft) 100,00 %
01.03.2016 19:05 0,9 C 92 % 1018,7 hPa 0,0 l/m 14,5 km/h (3 Bft) W-SW 239 0 min 0,000 mm 0,0 UV-I 0 W/m -0,2 C -5,6 C 19,3 km/h (3 Bft) 92,59 %
01.03.2016 19:06 0,9 C 92 % 1018,7 hPa 0,0 l/m 14,6 km/h (3 Bft) W 261 0 min 0,000 mm 0,0 UV-I 0 W/m -0,2 C -5,7 C 20,9 km/h (4 Bft) 96,15 %
01.03.2016 19:07 0,9 C 92 % 1018,7 hPa 0,0 l/m 12,9 km/h (3 Bft) W-SW 244 0 min 0,000 mm 0,0 UV-I 0 W/m -0,2 C -4,6 C 19,3 km/h (3 Bft) 100,00 %
01.03.2016 19:10 0,9 C 92 % 1018,7 hPa 0,0 l/m 12,9 km/h (3 Bft) W-SW 247 0 min 0,000 mm 0,0 UV-I 0 W/m -0,2 C -4,6 C 20,9 km/h (4 Bft) 100,00 %
01.03.2016 19:15 0,9 C 92 % 1018,7 hPa 0,0 l/m 11,3 km/h (2 Bft) W-SW 247 0 min 0,000 mm 0,0 UV-I 0 W/m -0,2 C -3,5 C 19,3 km/h (3 Bft) 97,37 %
01.03.2016 19:16 0,9 C 92 % 1018,7 hPa 0,0 l/m 9,7 km/h (2 Bft) W-SW 243 0 min 0,000 mm 0,0 UV-I 0 W/m -0,2 C -2,2 C 14,5 km/h (3 Bft) 98,53 %
01.03.2016 19:17 0,9 C 92 % 1018,8 hPa 0,0 l/m 10,2 km/h (2 Bft) SW 216 0 min 0,000 mm 0,0 UV-I 0 W/m -0,2 C -2,6 C 12,9 km/h (3 Bft) 100,00 %
01.03.2016 19:18 0,9 C 92 % 1018,7 hPa 0,0 l/m 8,6 km/h (2 Bft) SW 231 0 min 0,000 mm 0,0 UV-I 0 W/m -0,2 C -1,3 C 9,7 km/h (2 Bft) 100,00 %
01.03.2016 19:19 0,9 C 92 % 1018,7 hPa 0,0 l/m 9,5 km/h (2 Bft) SW 234 0 min 0,000 mm 0,0 UV-I 0 W/m -0,2 C -2,0 C 14,5 km/h (3 Bft) 100,00 %
01.03.2016 19:20 0,9 C 92 % 1018,7 hPa 0,0 l/m 11,6 km/h (2 Bft) SW 225 0 min 0,000 mm 0,0 UV-I 0 W/m -0,2 C -3,7 C 14,5 km/h (3 Bft) 100,00 %
01.03.2016 19:21 0,9 C 92 % 1018,7 hPa 0,0 l/m 8,0 km/h (2 Bft) SW 222 0 min 0,000 mm 0,0 UV-I 0 W/m -0,2 C -0,7 C 11,3 km/h (2 Bft) 100,00 %
01.03.2016 19:25 1,0 C 92 % 1018,7 hPa 0,0 l/m 8,0 km/h (2 Bft) SW 225 0 min 0,000 mm 0,0 UV-I 0 W/m -0,2 C -0,6 C 14,5 km/h (3 Bft) 97,37 %
01.03.2016 19:30 1,1 C 92 % 1018,7 hPa 0,0 l/m 8,0 km/h (2 Bft) SW 225 0 min 0,000 mm 0,0 UV-I 0 W/m -0,1 C -0,5 C 14,5 km/h (3 Bft) 97,37 %
01.03.2016 19:35 1,1 C 92 % 1018,5 hPa 0,0 l/m 9,7 km/h (2 Bft) W-SW 247 0 min 0,000 mm 0,0 UV-I 0 W/m -0,1 C -2,0 C 14,5 km/h (3 Bft) 97,37 %
01.03.2016 19:37 1,1 C 91 % 1018,5 hPa 0,0 l/m 7,2 km/h (2 Bft) W 259 0 min 0,000 mm 0,0 UV-I 0 W/m -0,2 C 0,3 C 11,3 km/h (2 Bft) 98,15 %
01.03.2016 19:38 1,1 C 91 % 1018,5 hPa 0,0 l/m 7,4 km/h (2 Bft) SW 234 0 min 0,000 mm 0,0 UV-I 0 W/m -0,2 C 0,1 C 11,3 km/h (2 Bft) 100,00 %
01.03.2016 19:39 1,1 C 91 % 1018,5 hPa 0,0 l/m 6,4 km/h (2 Bft) W-SW 240 0 min 0,000 mm 0,0 UV-I 0 W/m -0,2 C 1,1 C 11,3 km/h (2 Bft) 100,00 %
01.03.2016 19:40 1,2 C 91 % 1018,5 hPa 0,0 l/m 7,8 km/h (2 Bft) S-SW 193 0 min 0,000 mm 0,0 UV-I 0 W/m -0,1 C -0,2 C 11,3 km/h (2 Bft) 100,00 %
01.03.2016 19:41 1,1 C 91 % 1018,6 hPa 0,0 l/m 5,8 km/h (2 Bft) W-SW 250 0 min 0,000 mm 0,0 UV-I 0 W/m -0,2 C 1,1 C 9,7 km/h (2 Bft) 100,00 %
01.03.2016 19:42 1,2 C 91 % 1018,5 hPa 0,0 l/m 6,9 km/h (2 Bft) W-SW 250 0 min 0,000 mm 0,0 UV-I 0 W/m -0,1 C 0,7 C 12,9 km/h (3 Bft) 100,00 %
01.03.2016 19:43 1,2 C 91 % 1018,5 hPa 0,0 l/m 10,4 km/h (2 Bft) W 269 0 min 0,000 mm 0,0 UV-I 0 W/m -0,1 C -2,4 C 12,9 km/h (3 Bft) 100,00 %
01.03.2016 19:44 1,2 C 91 % 1018,5 hPa 0,0 l/m 6,8 km/h (2 Bft) W-NW 287 0 min 0,000 mm 0,0 UV-I 0 W/m -0,1 C 0,8 C 11,3 km/h (2 Bft) 100,00 %
01.03.2016 19:45 1,2 C 91 % 1018,5 hPa 0,0 l/m 3,8 km/h (1 Bft) W 268 0 min 0,000 mm 0,0 UV-I 0 W/m -0,1 C 1,2 C 6,4 km/h (2 Bft) 95,65 %
01.03.2016 19:46 1,2 C 91 % 1018,5 hPa 0,0 l/m 5,3 km/h (1 Bft) W 261 0 min 0,000 mm 0,0 UV-I 0 W/m -0,1 C 1,2 C 9,7 km/h (2 Bft) 100,00 %
01.03.2016 19:47 1,2 C 91 % 1018,4 hPa 0,0 l/m 4,9 km/h (1 Bft) W-SW 239 0 min 0,000 mm 0,0 UV-I 0 W/m -0,1 C 1,2 C 8,0 km/h (2 Bft) 100,00 %
01.03.2016 19:48 1,2 C 91 % 1018,4 hPa 0,0 l/m 6,6 km/h (2 Bft) NW 324 0 min 0,000 mm 0,0 UV-I 0 W/m -0,1 C 1,0 C 9,7 km/h (2 Bft) 98,51 %
01.03.2016 19:49 1,2 C 91 % 1018,4 hPa 0,0 l/m 6,1 km/h (2 Bft) W-SW 244 0 min 0,000 mm 0,0 UV-I 0 W/m -0,1 C 1,2 C 11,3 km/h (2 Bft) 100,00 %
01.03.2016 19:50 1,2 C 91 % 1018,4 hPa 0,0 l/m 9,1 km/h (2 Bft) W 265 0 min 0,000 mm 0,0 UV-I 0 W/m -0,1 C -1,4 C 12,9 km/h (3 Bft) 100,00 %
01.03.2016 19:51 1,2 C 91 % 1018,4 hPa 0,0 l/m 8,2 km/h (2 Bft) W 266 0 min 0,000 mm 0,0 UV-I 0 W/m -0,1 C -0,6 C 11,3 km/h (2 Bft) 100,00 %
01.03.2016 19:52 1,2 C 91 % 1018,4 hPa 0,0 l/m 6,9 km/h (2 Bft) W-SW 241 0 min 0,000 mm 0,0 UV-I 0 W/m -0,1 C 0,7 C 11,3 km/h (2 Bft) 100,00 %
01.03.2016 19:53 1,2 C 91 % 1018,3 hPa 0,0 l/m 8,3 km/h (2 Bft) W-SW 248 0 min 0,000 mm 0,0 UV-I 0 W/m -0,1 C -0,7 C 11,3 km/h (2 Bft) 100,00 %
01.03.2016 19:54 1,2 C 91 % 1018,3 hPa 0,0 l/m 8,7 km/h (2 Bft) W-SW 250 0 min 0,000 mm 0,0 UV-I 0 W/m -0,1 C -1,0 C 11,3 km/h (2 Bft) 100,00 %
01.03.2016 19:55 1,2 C 91 % 1018,4 hPa 0,0 l/m 9,3 km/h (2 Bft) W 267 0 min 0,000 mm 0,0 UV-I 0 W/m -0,1 C -1,5 C 12,9 km/h (3 Bft) 100,00 %
01.03.2016 19:56 1,2 C 91 % 1018,3 hPa 0,0 l/m 7,0 km/h (2 Bft) W-SW 250 0 min 0,000 mm 0,0 UV-I 0 W/m -0,1 C 0,6 C 9,7 km/h (2 Bft) 96,15 %
01.03.2016 19:57 1,2 C 91 % 1018,4 hPa 0,0 l/m 5,8 km/h (2 Bft) W-SW 257 0 min 0,000 mm 0,0 UV-I 0 W/m -0,1 C 1,2 C 8,0 km/h (2 Bft) 100,00 %
01.03.2016 19:58 1,2 C 91 % 1018,4 hPa 0,0 l/m 9,4 km/h (2 Bft) W 267 0 min 0,000 mm 0,0 UV-I 0 W/m -0,1 C -1,6 C 14,5 km/h (3 Bft) 100,00 %
01.03.2016 19:59 1,2 C 91 % 1018,3 hPa 0,0 l/m 9,5 km/h (2 Bft) W 260 0 min 0,000 mm 0,0 UV-I 0 W/m -0,1 C -1,7 C 12,9 km/h (3 Bft) 100,00 %
01.03.2016 20:00 1,2 C 91 % 1018,3 hPa 0,0 l/m 5,5 km/h (1 Bft) W-SW 248 0 min 0,000 mm 0,0 UV-I 0 W/m -0,1 C 1,2 C 6,4 km/h (2 Bft) 100,00 %
01.03.2016 20:01 1,2 C 91 % 1018,3 hPa 0,0 l/m 3,7 km/h (1 Bft) W-SW 238 0 min 0,000 mm 0,0 UV-I 0 W/m -0,1 C 1,2 C 4,8 km/h (1 Bft) 100,00 %
01.03.2016 20:02 1,2 C 91 % 1018,3 hPa 0,0 l/m 5,4 km/h (1 Bft) W 270 0 min 0,000 mm 0,0 UV-I 0 W/m -0,1 C 1,2 C 6,4 km/h (2 Bft) 100,00 %
01.03.2016 20:03 1,2 C 91 % 1018,3 hPa 0,0 l/m 6,9 km/h (2 Bft) W-SW 242 0 min 0,000 mm 0,0 UV-I 0 W/m -0,1 C 0,7 C 9,7 km/h (2 Bft) 100,00 %
01.03.2016 20:04 1,2 C 91 % 1018,3 hPa 0,0 l/m 7,5 km/h (2 Bft) W 260 0 min 0,000 mm 0,0 UV-I 0 W/m -0,1 C 0,1 C 9,7 km/h (2 Bft) 100,00 %
01.03.2016 20:05 1,2 C 91 % 1018,2 hPa 0,0 l/m 4,8 km/h (1 Bft) W-NW 286 0 min 0,000 mm 0,0 UV-I 0 W/m -0,1 C 1,2 C 6,4 km/h (2 Bft) 100,00 %
01.03.2016 20:06 1,2 C 91 % 1018,2 hPa 0,0 l/m 6,8 km/h (2 Bft) W 272 0 min 0,000 mm 0,0 UV-I 0 W/m -0,1 C 0,8 C 11,3 km/h (2 Bft) 100,00 %
01.03.2016 20:07 1,3 C 91 % 1018,2 hPa 0,0 l/m 5,1 km/h (1 Bft) W 259 0 min 0,000 mm 0,0 UV-I 0 W/m -0,0 C 1,3 C 6,4 km/h (2 Bft) 100,00 %
01.03.2016 20:08 1,2 C 91 % 1018,2 hPa 0,0 l/m 3,9 km/h (1 Bft) W 277 0 min 0,000 mm 0,0 UV-I 0 W/m -0,1 C 1,2 C 4,8 km/h (1 Bft) 100,00 %
01.03.2016 20:09 1,3 C 91 % 1018,2 hPa 0,0 l/m 4,1 km/h (1 Bft) W 275 0 min 0,000 mm 0,0 UV-I 0 W/m -0,0 C 1,3 C 9,7 km/h (2 Bft) 100,00 %
01.03.2016 20:10 1,3 C 91 % 1018,2 hPa 0,0 l/m 5,8 km/h (2 Bft) W 277 0 min 0,000 mm 0,0 UV-I 0 W/m -0,0 C 1,3 C 11,3 km/h (2 Bft) 100,00 %
01.03.2016 20:11 1,2 C 91 % 1018,2 hPa 0,0 l/m 6,2 km/h (2 Bft) W 281 0 min 0,000 mm 0,0 UV-I 0 W/m -0,1 C 1,2 C 9,7 km/h (2 Bft) 100,00 %
01.03.2016 20:12 1,2 C 91 % 1018,2 hPa 0,0 l/m 9,1 km/h (2 Bft) W 264 0 min 0,000 mm 0,0 UV-I 0 W/m -0,1 C -1,4 C 12,9 km/h (3 Bft) 100,00 %
01.03.2016 20:13 1,3 C 91 % 1018,2 hPa 0,0 l/m 6,4 km/h (2 Bft) W-SW 243 0 min 0,000 mm 0,0 UV-I 0 W/m -0,0 C 1,3 C 11,3 km/h (2 Bft) 100,00 %
01.03.2016 20:14 1,3 C 91 % 1018,2 hPa 0,0 l/m 4,6 km/h (1 Bft) W 263 0 min 0,000 mm 0,0 UV-I 0 W/m -0,0 C 1,3 C 8,0 km/h (2 Bft) 100,00 %
01.03.2016 20:15 1,3 C 91 % 1018,2 hPa 0,0 l/m 5,9 km/h (2 Bft) W-SW 252 0 min 0,000 mm 0,0 UV-I 0 W/m -0,0 C 1,3 C 8,0 km/h (2 Bft) 100,00 %
01.03.2016 20:16 1,3 C 91 % 1018,2 hPa 0,0 l/m 4,6 km/h (1 Bft) W-SW 244 0 min 0,000 mm 0,0 UV-I 0 W/m -0,0 C 1,3 C 6,4 km/h (2 Bft) 100,00 %
01.03.2016 20:17 1,3 C 91 % 1018,2 hPa 0,0 l/m 6,1 km/h (2 Bft) W-SW 238 0 min 0,000 mm 0,0 UV-I 0 W/m -0,0 C 1,3 C 8,0 km/h (2 Bft) 96,55 %
01.03.2016 20:18 1,3 C 91 % 1018,2 hPa 0,0 l/m 6,1 km/h (2 Bft) W-SW 252 0 min 0,000 mm 0,0 UV-I 0 W/m -0,0 C 1,3 C 8,0 km/h (2 Bft) 100,00 %
01.03.2016 20:19 1,3 C 91 % 1018,2 hPa 0,0 l/m 7,2 km/h (2 Bft) W 266 0 min 0,000 mm 0,0 UV-I 0 W/m -0,0 C 0,5 C 12,9 km/h (3 Bft) 100,00 %
01.03.2016 20:20 1,3 C 91 % 1018,2 hPa 0,0 l/m 8,6 km/h (2 Bft) W-SW 253 0 min 0,000 mm 0,0 UV-I 0 W/m -0,0 C -0,8 C 11,3 km/h (2 Bft) 100,00 %
01.03.2016 20:21 1,3 C 91 % 1018,2 hPa 0,0 l/m 5,1 km/h (1 Bft) W-SW 255 0 min 0,000 mm 0,0 UV-I 0 W/m -0,0 C 1,3 C 6,4 km/h (2 Bft) 100,00 %
01.03.2016 20:22 1,3 C 91 % 1018,2 hPa 0,0 l/m 6,4 km/h (2 Bft) W-SW 245 0 min 0,000 mm 0,0 UV-I 0 W/m -0,0 C 1,3 C 11,3 km/h (2 Bft) 100,00 %
01.03.2016 20:23 1,3 C 91 % 1018,2 hPa 0,0 l/m 9,4 km/h (2 Bft) W-SW 239 0 min 0,000 mm 0,0 UV-I 0 W/m -0,0 C -1,5 C 19,3 km/h (3 Bft) 100,00 %
01.03.2016 20:24 1,3 C 91 % 1018,2 hPa 0,0 l/m 13,4 km/h (3 Bft) W-SW 251 0 min 0,000 mm 0,0 UV-I 0 W/m -0,0 C -4,4 C 16,1 km/h (3 Bft) 100,00 %
01.03.2016 20:25 1,3 C 91 % 1018,2 hPa 0,0 l/m 8,7 km/h (2 Bft) W-SW 244 0 min 0,000 mm 0,0 UV-I 0 W/m -0,0 C -0,9 C 14,5 km/h (3 Bft) 100,00 %
01.03.2016 20:26 1,3 C 91 % 1018,1 hPa 0,0 l/m 10,5 km/h (2 Bft) W-SW 244 0 min 0,000 mm 0,0 UV-I 0 W/m -0,0 C -2,4 C 17,7 km/h (3 Bft) 95,83 %
01.03.2016 20:27 1,4 C 91 % 1018,1 hPa 0,0 l/m 8,8 km/h (2 Bft) SW 236 0 min 0,000 mm 0,0 UV-I 0 W/m 0,1 C -0,9 C 12,9 km/h (3 Bft) 100,00 %
01.03.2016 20:28 1,4 C 90 % 1018,1 hPa 0,0 l/m 9,1 km/h (2 Bft) SW 230 0 min 0,000 mm 0,0 UV-I 0 W/m -0,1 C -1,2 C 12,9 km/h (3 Bft) 100,00 %
01.03.2016 20:29 1,4 C 90 % 1018,0 hPa 0,0 l/m 8,9 km/h (2 Bft) W-SW 254 0 min 0,000 mm 0,0 UV-I 0 W/m -0,1 C -1,0 C 12,9 km/h (3 Bft) 100,00 %
01.03.2016 20:30 1,4 C 90 % 1018,1 hPa 0,0 l/m 10,0 km/h (2 Bft) W-SW 248 0 min 0,000 mm 0,0 UV-I 0 W/m -0,1 C -1,9 C 14,5 km/h (3 Bft) 100,00 %
01.03.2016 20:31 1,4 C 90 % 1018,1 hPa 0,0 l/m 9,8 km/h (2 Bft) W 267 0 min 0,000 mm 0,0 UV-I 0 W/m -0,1 C -1,7 C 14,5 km/h (3 Bft) 100,00 %
01.03.2016 20:32 1,4 C 90 % 1018,1 hPa 0,0 l/m 8,2 km/h (2 Bft) W-SW 252 0 min 0,000 mm 0,0 UV-I 0 W/m -0,1 C -0,4 C 12,9 km/h (3 Bft) 100,00 %
01.03.2016 20:33 1,4 C 90 % 1018,0 hPa 0,0 l/m 7,6 km/h (2 Bft) W-SW 248 0 min 0,000 mm 0,0 UV-I 0 W/m -0,1 C 0,2 C 12,9 km/h (3 Bft) 100,00 %
01.03.2016 20:34 1,4 C 90 % 1018,0 hPa 0,0 l/m 9,9 km/h (2 Bft) W 267 0 min 0,000 mm 0,0 UV-I 0 W/m -0,1 C -1,8 C 14,5 km/h (3 Bft) 100,00 %
01.03.2016 20:35 1,4 C 90 % 1018,0 hPa 0,0 l/m 10,3 km/h (2 Bft) SW 232 0 min 0,000 mm 0,0 UV-I 0 W/m -0,1 C -2,1 C 14,5 km/h (3 Bft) 100,00 %
01.03.2016 20:36 1,4 C 90 % 1018,0 hPa 0,0 l/m 6,8 km/h (2 Bft) SW 229 0 min 0,000 mm 0,0 UV-I 0 W/m -0,1 C 1,0 C 9,7 km/h (2 Bft) 100,00 %
01.03.2016 20:37 1,4 C 90 % 1018,0 hPa 0,0 l/m 5,6 km/h (1 Bft) W-SW 246 0 min 0,000 mm 0,0 UV-I 0 W/m -0,1 C 1,4 C 9,7 km/h (2 Bft) 100,00 %
01.03.2016 20:38 1,4 C 90 % 1018,0 hPa 0,0 l/m 9,9 km/h (2 Bft) W-SW 249 0 min 0,000 mm 0,0 UV-I 0 W/m -0,1 C -1,8 C 12,9 km/h (3 Bft) 100,00 %
01.03.2016 20:39 1,4 C 90 % 1018,0 hPa 0,0 l/m 10,1 km/h (2 Bft) W 266 0 min 0,000 mm 0,0 UV-I 0 W/m -0,1 C -2,0 C 14,5 km/h (3 Bft) 95,83 %
01.03.2016 20:40 1,5 C 90 % 1018,0 hPa 0,0 l/m 12,5 km/h (3 Bft) W-SW 254 0 min 0,000 mm 0,0 UV-I 0 W/m 0,0 C -3,6 C 14,5 km/h (3 Bft) 100,00 %
01.03.2016 20:41 1,5 C 90 % 1018,0 hPa 0,0 l/m 10,2 km/h (2 Bft) W-SW 248 0 min 0,000 mm 0,0 UV-I 0 W/m 0,0 C -2,0 C 12,9 km/h (3 Bft) 100,00 %
01.03.2016 20:42 1,5 C 90 % 1018,0 hPa 0,0 l/m 7,9 km/h (2 Bft) W 261 0 min 0,000 mm 0,0 UV-I 0 W/m 0,0 C 0,0 C 11,3 km/h (2 Bft) 100,00 %
01.03.2016 20:43 1,5 C 90 % 1018,0 hPa 0,0 l/m 11,1 km/h (2 Bft) W-SW 248 0 min 0,000 mm 0,0 UV-I 0 W/m 0,0 C -2,6 C 14,5 km/h (3 Bft) 100,00 %
01.03.2016 20:44 1,4 C 90 % 1018,0 hPa 0,0 l/m 10,9 km/h (2 Bft) W-SW 258 0 min 0,000 mm 0,0 UV-I 0 W/m -0,1 C -2,6 C 16,1 km/h (3 Bft) 100,00 %
01.03.2016 20:45 1,4 C 90 % 1018,0 hPa 0,0 l/m 11,0 km/h (2 Bft) W-SW 248 0 min 0,000 mm 0,0 UV-I 0 W/m -0,1 C -2,7 C 16,1 km/h (3 Bft) 96,30 %
01.03.2016 20:46 1,4 C 90 % 1018,0 hPa 0,0 l/m 12,0 km/h (2 Bft) W-SW 249 0 min 0,000 mm 0,0 UV-I 0 W/m -0,1 C -3,4 C 17,7 km/h (3 Bft) 100,00 %
01.03.2016 20:47 1,5 C 90 % 1017,9 hPa 0,0 l/m 8,7 km/h (2 Bft) W-SW 248 0 min 0,000 mm 0,0 UV-I 0 W/m 0,0 C -0,7 C 14,5 km/h (3 Bft) 97,62 %
01.03.2016 20:48 1,5 C 90 % 1017,9 hPa 0,0 l/m 8,9 km/h (2 Bft) W-SW 258 0 min 0,000 mm 0,0 UV-I 0 W/m 0,0 C -0,9 C 17,7 km/h (3 Bft) 100,00 %
01.03.2016 20:49 1,5 C 90 % 1018,0 hPa 0,0 l/m 12,7 km/h (3 Bft) SW 233 0 min 0,000 mm 0,0 UV-I 0 W/m 0,0 C -3,7 C 16,1 km/h (3 Bft) 93,33 %
01.03.2016 20:50 1,5 C 90 % 1018,0 hPa 0,0 l/m 10,1 km/h (2 Bft) W 259 0 min 0,000 mm 0,0 UV-I 0 W/m 0,0 C -1,9 C 12,9 km/h (3 Bft) 95,12 %
01.03.2016 20:51 1,5 C 90 % 1017,9 hPa 0,0 l/m 8,1 km/h (2 Bft) W 267 0 min 0,000 mm 0,0 UV-I 0 W/m 0,0 C -0,2 C 11,3 km/h (2 Bft) 100,00 %
01.03.2016 20:52 1,5 C 90 % 1018,0 hPa 0,0 l/m 9,2 km/h (2 Bft) W 259 0 min 0,000 mm 0,0 UV-I 0 W/m 0,0 C -1,1 C 12,9 km/h (3 Bft) 95,65 %
01.03.2016 20:53 1,4 C 90 % 1017,9 hPa 0,0 l/m 9,9 km/h (2 Bft) W 267 0 min 0,000 mm 0,0 UV-I 0 W/m -0,1 C -1,8 C 12,9 km/h (3 Bft) 100,00 %
01.03.2016 20:54 1,4 C 90 % 1017,9 hPa 0,0 l/m 7,2 km/h (2 Bft) W 262 0 min 0,000 mm 0,0 UV-I 0 W/m -0,1 C 0,6 C 14,5 km/h (3 Bft) 92,86 %
01.03.2016 20:55 1,4 C 90 % 1017,9 hPa 0,0 l/m 11,0 km/h (2 Bft) W-SW 256 0 min 0,000 mm 0,0 UV-I 0 W/m -0,1 C -2,7 C 12,9 km/h (3 Bft) 100,00 %
01.03.2016 20:56 1,4 C 90 % 1017,9 hPa 0,0 l/m 11,9 km/h (2 Bft) W 266 0 min 0,000 mm 0,0 UV-I 0 W/m -0,1 C -3,3 C 16,1 km/h (3 Bft) 95,83 %
01.03.2016 20:57 1,4 C 90 % 1017,9 hPa 0,0 l/m 9,4 km/h (2 Bft) W-SW 240 0 min 0,000 mm 0,0 UV-I 0 W/m -0,1 C -1,4 C 14,5 km/h (3 Bft) 95,65 %
01.03.2016 20:58 1,4 C 90 % 1017,9 hPa 0,0 l/m 11,6 km/h (2 Bft) W-SW 252 0 min 0,000 mm 0,0 UV-I 0 W/m -0,1 C -3,1 C 14,5 km/h (3 Bft) 96,30 %
01.03.2016 20:59 1,4 C 90 % 1017,9 hPa 0,0 l/m 12,6 km/h (3 Bft) W-SW 249 0 min 0,000 mm 0,0 UV-I 0 W/m -0,1 C -3,8 C 14,5 km/h (3 Bft) 96,55 %
01.03.2016 21:00 1,4 C 90 % 1017,9 hPa 0,0 l/m 12,1 km/h (2 Bft) W-SW 254 0 min 0,000 mm 0,0 UV-I 0 W/m -0,1 C -3,5 C 16,1 km/h (3 Bft) 100,00 %
01.03.2016 21:01 1,5 C 90 % 1017,9 hPa 0,0 l/m 8,9 km/h (2 Bft) W 259 0 min 0,000 mm 0,0 UV-I 0 W/m 0,0 C -0,9 C 12,9 km/h (3 Bft) 96,15 %
01.03.2016 21:02 1,5 C 90 % 1017,8 hPa 0,0 l/m 9,5 km/h (2 Bft) SW 236 0 min 0,000 mm 0,0 UV-I 0 W/m 0,0 C -1,4 C 12,9 km/h (3 Bft) 100,00 %
01.03.2016 21:03 1,5 C 90 % 1017,8 hPa 0,0 l/m 7,7 km/h (2 Bft) W-SW 258 0 min 0,000 mm 0,0 UV-I 0 W/m 0,0 C 0,2 C 11,3 km/h (2 Bft) 92,86 %
01.03.2016 21:04 1,5 C 90 % 1017,9 hPa 0,0 l/m 6,7 km/h (2 Bft) W-SW 246 0 min 0,000 mm 0,0 UV-I 0 W/m 0,0 C 1,2 C 11,3 km/h (2 Bft) 100,00 %
01.03.2016 21:05 1,5 C 90 % 1017,8 hPa 0,0 l/m 11,3 km/h (2 Bft) W-SW 251 0 min 0,000 mm 0,0 UV-I 0 W/m 0,0 C -2,8 C 14,5 km/h (3 Bft) 95,65 %
01.03.2016 21:06 1,5 C 90 % 1017,8 hPa 0,0 l/m 11,8 km/h (2 Bft) W-SW 257 0 min 0,000 mm 0,0 UV-I 0 W/m 0,0 C -3,1 C 14,5 km/h (3 Bft) 100,00 %
01.03.2016 21:07 1,5 C 90 % 1017,8 hPa 0,0 l/m 8,3 km/h (2 Bft) W-SW 257 0 min 0,000 mm 0,0 UV-I 0 W/m 0,0 C -0,3 C 11,3 km/h (2 Bft) 95,65 %
01.03.2016 21:08 1,5 C 90 % 1017,9 hPa 0,0 l/m 7,0 km/h (2 Bft) W 263 0 min 0,000 mm 0,0 UV-I 0 W/m 0,0 C 0,9 C 9,7 km/h (2 Bft) 95,83 %
01.03.2016 21:09 1,5 C 90 % 1017,9 hPa 0,0 l/m 7,2 km/h (2 Bft) W-SW 257 0 min 0,000 mm 0,0 UV-I 0 W/m 0,0 C 0,7 C 9,7 km/h (2 Bft) 100,00 %
01.03.2016 21:10 1,5 C 90 % 1017,9 hPa 0,0 l/m 8,6 km/h (2 Bft) W-SW 247 0 min 0,000 mm 0,0 UV-I 0 W/m 0,0 C -0,6 C 12,9 km/h (3 Bft) 96,30 %
01.03.2016 21:11 1,5 C 90 % 1017,8 hPa 0,0 l/m 7,7 km/h (2 Bft) W-SW 247 0 min 0,000 mm 0,0 UV-I 0 W/m 0,0 C 0,2 C 12,9 km/h (3 Bft) 100,00 %
01.03.2016 21:12 1,5 C 90 % 1017,9 hPa 0,0 l/m 7,2 km/h (2 Bft) W 274 0 min 0,000 mm 0,0 UV-I 0 W/m 0,0 C 0,7 C 12,9 km/h (3 Bft) 91,67 %
01.03.2016 21:13 1,5 C 90 % 1017,8 hPa 0,0 l/m 6,4 km/h (2 Bft) W-SW 253 0 min 0,000 mm 0,0 UV-I 0 W/m 0,0 C 1,5 C 9,7 km/h (2 Bft) 100,00 %
01.03.2016 21:14 1,4 C 90 % 1017,8 hPa 0,0 l/m 7,0 km/h (2 Bft) W-SW 254 0 min 0,000 mm 0,0 UV-I 0 W/m -0,1 C 0,8 C 11,3 km/h (2 Bft) 96,30 %
01.03.2016 21:15 1,4 C 90 % 1017,7 hPa 0,0 l/m 9,3 km/h (2 Bft) W-SW 248 0 min 0,000 mm 0,0 UV-I 0 W/m -0,1 C -1,3 C 12,9 km/h (3 Bft) 100,00 %
01.03.2016 21:16 1,5 C 90 % 1017,7 hPa 0,0 l/m 8,7 km/h (2 Bft) W-SW 254 0 min 0,000 mm 0,0 UV-I 0 W/m 0,0 C -0,7 C 16,1 km/h (3 Bft) 96,67 %
01.03.2016 21:17 1,5 C 90 % 1017,7 hPa 0,0 l/m 11,6 km/h (2 Bft) W-SW 242 0 min 0,000 mm 0,0 UV-I 0 W/m 0,0 C -3,0 C 16,1 km/h (3 Bft) 95,65 %
01.03.2016 21:18 1,5 C 90 % 1017,7 hPa 0,0 l/m 10,2 km/h (2 Bft) W 274 0 min 0,000 mm 0,0 UV-I 0 W/m 0,0 C -2,0 C 16,1 km/h (3 Bft) 100,00 %
01.03.2016 21:19 1,5 C 90 % 1017,8 hPa 0,0 l/m 11,3 km/h (2 Bft) W 265 0 min 0,000 mm 0,0 UV-I 0 W/m 0,0 C -2,8 C 14,5 km/h (3 Bft) 96,30 %
01.03.2016 21:20 1,5 C 90 % 1017,7 hPa 0,0 l/m 10,7 km/h (2 Bft) W-SW 248 0 min 0,000 mm 0,0 UV-I 0 W/m 0,0 C -2,3 C 16,1 km/h (3 Bft) 100,00 %
01.03.2016 21:21 1,5 C 90 % 1017,7 hPa 0,0 l/m 9,9 km/h (2 Bft) W 275 0 min 0,000 mm 0,0 UV-I 0 W/m 0,0 C -1,7 C 12,9 km/h (3 Bft) 100,00 %
01.03.2016 21:22 1,5 C 90 % 1017,7 hPa 0,0 l/m 9,6 km/h (2 Bft) W-SW 254 0 min 0,000 mm 0,0 UV-I 0 W/m 0,0 C -1,5 C 12,9 km/h (3 Bft) 100,00 %
01.03.2016 21:23 1,5 C 90 % 1017,7 hPa 0,0 l/m 10,1 km/h (2 Bft) W-SW 246 0 min 0,000 mm 0,0 UV-I 0 W/m 0,0 C -1,9 C 12,9 km/h (3 Bft) 100,00 %
01.03.2016 21:24 1,5 C 90 % 1017,8 hPa 0,0 l/m 9,6 km/h (2 Bft) SW 219 0 min 0,000 mm 0,0 UV-I 0 W/m 0,0 C -1,5 C 16,1 km/h (3 Bft) 100,00 %
01.03.2016 21:25 1,6 C 90 % 1017,7 hPa 0,0 l/m 8,6 km/h (2 Bft) W-SW 239 0 min 0,000 mm 0,0 UV-I 0 W/m 0,1 C -0,5 C 11,3 km/h (2 Bft) 100,00 %
01.03.2016 21:26 1,6 C 90 % 1017,7 hPa 0,0 l/m 8,0 km/h (2 Bft) W-SW 257 0 min 0,000 mm 0,0 UV-I 0 W/m 0,1 C 0,0 C 11,3 km/h (2 Bft) 100,00 %
01.03.2016 21:27 1,6 C 90 % 1017,7 hPa 0,0 l/m 9,5 km/h (2 Bft) W 259 0 min 0,000 mm 0,0 UV-I 0 W/m 0,1 C -1,3 C 12,9 km/h (3 Bft) 100,00 %
01.03.2016 21:28 1,6 C 90 % 1017,7 hPa 0,0 l/m 9,0 km/h (2 Bft) W 263 0 min 0,000 mm 0,0 UV-I 0 W/m 0,1 C -0,9 C 11,3 km/h (2 Bft) 95,65 %
01.03.2016 21:29 1,6 C 90 % 1017,7 hPa 0,0 l/m 8,1 km/h (2 Bft) W-SW 252 0 min 0,000 mm 0,0 UV-I 0 W/m 0,1 C -0,1 C 12,9 km/h (3 Bft) 96,30 %
01.03.2016 21:30 1,6 C 90 % 1017,7 hPa 0,0 l/m 10,2 km/h (2 Bft) SW 224 0 min 0,000 mm 0,0 UV-I 0 W/m 0,1 C -1,8 C 12,9 km/h (3 Bft) 100,00 %
01.03.2016 21:31 1,6 C 90 % 1017,7 hPa 0,0 l/m 7,5 km/h (2 Bft) W-SW 257 0 min 0,000 mm 0,0 UV-I 0 W/m 0,1 C 0,5 C 11,3 km/h (2 Bft) 100,00 %
01.03.2016 21:32 1,6 C 90 % 1017,7 hPa 0,0 l/m 6,4 km/h (2 Bft) SW 221 0 min 0,000 mm 0,0 UV-I 0 W/m 0,1 C 1,6 C 9,7 km/h (2 Bft) 100,00 %
01.03.2016 21:33 1,6 C 90 % 1017,7 hPa 0,0 l/m 6,3 km/h (2 Bft) SW 234 0 min 0,000 mm 0,0 UV-I 0 W/m 0,1 C 1,6 C 8,0 km/h (2 Bft) 100,00 %
01.03.2016 21:34 1,6 C 90 % 1017,7 hPa 0,0 l/m 7,1 km/h (2 Bft) SW 229 0 min 0,000 mm 0,0 UV-I 0 W/m 0,1 C 0,9 C 9,7 km/h (2 Bft) 100,00 %
01.03.2016 21:35 1,6 C 90 % 1017,7 hPa 0,0 l/m 8,7 km/h (2 Bft) SW 223 0 min 0,000 mm 0,0 UV-I 0 W/m 0,1 C -0,6 C 14,5 km/h (3 Bft) 100,00 %
01.03.2016 21:36 1,6 C 90 % 1017,7 hPa 0,0 l/m 11,3 km/h (2 Bft) W-SW 239 0 min 0,000 mm 0,0 UV-I 0 W/m 0,1 C -2,7 C 14,5 km/h (3 Bft) 100,00 %
01.03.2016 21:37 1,6 C 90 % 1017,7 hPa 0,0 l/m 9,3 km/h (2 Bft) W-SW 241 0 min 0,000 mm 0,0 UV-I 0 W/m 0,1 C -1,1 C 14,5 km/h (3 Bft) 100,00 %
01.03.2016 21:38 1,6 C 90 % 1017,7 hPa 0,0 l/m 8,6 km/h (2 Bft) W-SW 240 0 min 0,000 mm 0,0 UV-I 0 W/m 0,1 C -0,5 C 14,5 km/h (3 Bft) 100,00 %
01.03.2016 21:39 1,6 C 90 % 1017,7 hPa 0,0 l/m 9,7 km/h (2 Bft) W-SW 241 0 min 0,000 mm 0,0 UV-I 0 W/m 0,1 C -1,4 C 14,5 km/h (3 Bft) 100,00 %
01.03.2016 21:40 1,7 C 90 % 1017,7 hPa 0,0 l/m 8,4 km/h (2 Bft) W-SW 238 0 min 0,000 mm 0,0 UV-I 0 W/m 0,2 C -0,2 C 11,3 km/h (2 Bft) 100,00 %
01.03.2016 21:41 1,7 C 89 % 1017,6 hPa 0,0 l/m 8,0 km/h (2 Bft) SW 233 0 min 0,000 mm 0,0 UV-I 0 W/m 0,1 C 0,1 C 12,9 km/h (3 Bft) 100,00 %
01.03.2016 21:42 1,7 C 89 % 1017,6 hPa 0,0 l/m 6,9 km/h (2 Bft) W-SW 244 0 min 0,000 mm 0,0 UV-I 0 W/m 0,1 C 1,2 C 9,7 km/h (2 Bft) 100,00 %
01.03.2016 21:43 1,7 C 89 % 1017,6 hPa 0,0 l/m 6,7 km/h (2 Bft) W-SW 247 0 min 0,000 mm 0,0 UV-I 0 W/m 0,1 C 1,4 C 11,3 km/h (2 Bft) 100,00 %
01.03.2016 21:44 1,7 C 89 % 1017,6 hPa 0,0 l/m 12,1 km/h (2 Bft) W-SW 254 0 min 0,000 mm 0,0 UV-I 0 W/m 0,1 C -3,1 C 16,1 km/h (3 Bft) 100,00 %
01.03.2016 21:45 1,7 C 90 % 1017,6 hPa 0,0 l/m 6,8 km/h (2 Bft) W-SW 250 0 min 0,000 mm 0,0 UV-I 0 W/m 0,2 C 1,3 C 11,3 km/h (2 Bft) 96,55 %
01.03.2016 21:46 1,7 C 90 % 1017,6 hPa 0,0 l/m 7,6 km/h (2 Bft) W-SW 242 0 min 0,000 mm 0,0 UV-I 0 W/m 0,2 C 0,5 C 12,9 km/h (3 Bft) 96,67 %
01.03.2016 21:47 1,7 C 89 % 1017,6 hPa 0,0 l/m 7,7 km/h (2 Bft) W 262 0 min 0,000 mm 0,0 UV-I 0 W/m 0,1 C 0,4 C 11,3 km/h (2 Bft) 100,00 %
01.03.2016 21:48 1,7 C 90 % 1017,6 hPa 0,2 l/m 11,4 km/h (2 Bft) W-SW 247 0 min 0,000 mm 0,0 UV-I 0 W/m 0,2 C -2,6 C 16,1 km/h (3 Bft) 100,00 %
01.03.2016 21:49 1,7 C 89 % 1017,5 hPa 0,0 l/m 10,7 km/h (2 Bft) W-SW 248 0 min 0,000 mm 0,0 UV-I 0 W/m 0,1 C -2,1 C 16,1 km/h (3 Bft) 100,00 %
01.03.2016 21:50 1,7 C 90 % 1017,5 hPa 0,0 l/m 9,5 km/h (2 Bft) W-SW 257 0 min 0,000 mm 0,0 UV-I 0 W/m 0,2 C -1,2 C 14,5 km/h (3 Bft) 100,00 %
01.03.2016 21:51 1,7 C 89 % 1017,5 hPa 0,0 l/m 11,7 km/h (2 Bft) W-SW 250 0 min 0,000 mm 0,0 UV-I 0 W/m 0,1 C -2,8 C 17,7 km/h (3 Bft) 100,00 %
01.03.2016 21:52 1,7 C 89 % 1017,5 hPa 0,0 l/m 10,8 km/h (2 Bft) W-SW 243 0 min 0,000 mm 0,0 UV-I 0 W/m 0,1 C -2,2 C 17,7 km/h (3 Bft) 100,00 %
01.03.2016 21:53 1,7 C 89 % 1017,4 hPa 0,0 l/m 12,1 km/h (2 Bft) W-SW 244 0 min 0,000 mm 0,0 UV-I 0 W/m 0,1 C -3,1 C 16,1 km/h (3 Bft) 100,00 %
01.03.2016 21:54 1,7 C 89 % 1017,5 hPa 0,0 l/m 12,8 km/h (3 Bft) W-SW 240 0 min 0,000 mm 0,0 UV-I 0 W/m 0,1 C -3,6 C 19,3 km/h (3 Bft) 100,00 %
01.03.2016 21:55 1,7 C 89 % 1017,5 hPa 0,0 l/m 12,0 km/h (2 Bft) W-SW 247 0 min 0,000 mm 0,0 UV-I 0 W/m 0,1 C -3,0 C 14,5 km/h (3 Bft) 100,00 %
01.03.2016 21:56 1,7 C 89 % 1017,5 hPa 0,0 l/m 14,0 km/h (3 Bft) S-SW 208 0 min 0,000 mm 0,0 UV-I 0 W/m 0,1 C -4,3 C 17,7 km/h (3 Bft) 100,00 %
01.03.2016 21:57 1,7 C 89 % 1017,5 hPa 0,0 l/m 12,3 km/h (3 Bft) W-SW 248 0 min 0,000 mm 0,0 UV-I 0 W/m 0,1 C -3,2 C 17,7 km/h (3 Bft) 100,00 %
01.03.2016 21:58 1,7 C 89 % 1017,5 hPa 0,0 l/m 11,0 km/h (2 Bft) SW 235 0 min 0,000 mm 0,0 UV-I 0 W/m 0,1 C -2,3 C 17,7 km/h (3 Bft) 100,00 %
01.03.2016 21:59 1,7 C 89 % 1017,4 hPa 0,0 l/m 13,6 km/h (3 Bft) W 279 0 min 0,000 mm 0,0 UV-I 0 W/m 0,1 C -4,1 C 17,7 km/h (3 Bft) 96,15 %
01.03.2016 22:00 1,7 C 89 % 1017,5 hPa 0,0 l/m 12,7 km/h (3 Bft) W-SW 253 0 min 0,000 mm 0,0 UV-I 0 W/m 0,1 C -3,5 C 16,1 km/h (3 Bft) 100,00 %
01.03.2016 22:01 1,8 C 89 % 1017,4 hPa 0,0 l/m 13,0 km/h (3 Bft) W 271 0 min 0,000 mm 0,0 UV-I 0 W/m 0,2 C -3,6 C 17,7 km/h (3 Bft) 96,30 %
01.03.2016 22:02 1,8 C 89 % 1017,4 hPa 0,0 l/m 10,6 km/h (2 Bft) S-SW 210 0 min 0,000 mm 0,0 UV-I 0 W/m 0,2 C -1,9 C 17,7 km/h (3 Bft) 100,00 %
01.03.2016 22:03 1,7 C 89 % 1017,4 hPa 0,0 l/m 10,3 km/h (2 Bft) W-SW 257 0 min 0,000 mm 0,0 UV-I 0 W/m 0,1 C -1,8 C 14,5 km/h (3 Bft) 96,30 %
01.03.2016 22:04 1,8 C 89 % 1017,4 hPa 0,0 l/m 9,1 km/h (2 Bft) W-SW 245 0 min 0,000 mm 0,0 UV-I 0 W/m 0,2 C -0,7 C 12,9 km/h (3 Bft) 100,00 %
01.03.2016 22:05 1,8 C 89 % 1017,4 hPa 0,0 l/m 12,2 km/h (2 Bft) W-SW 245 0 min 0,000 mm 0,0 UV-I 0 W/m 0,2 C -3,1 C 17,7 km/h (3 Bft) 100,00 %
01.03.2016 22:06 1,7 C 89 % 1017,4 hPa 0,0 l/m 14,1 km/h (3 Bft) W-SW 250 0 min 0,000 mm 0,0 UV-I 0 W/m 0,1 C -4,4 C 16,1 km/h (3 Bft) 95,65 %
01.03.2016 22:07 1,7 C 89 % 1017,4 hPa 0,0 l/m 12,1 km/h (2 Bft) W-SW 237 0 min 0,000 mm 0,0 UV-I 0 W/m 0,1 C -3,1 C 17,7 km/h (3 Bft) 100,00 %
01.03.2016 22:08 1,7 C 89 % 1017,4 hPa 0,0 l/m 10,1 km/h (2 Bft) W-SW 244 0 min 0,000 mm 0,0 UV-I 0 W/m 0,1 C -1,7 C 14,5 km/h (3 Bft) 100,00 %
01.03.2016 22:09 1,7 C 89 % 1017,4 hPa 0,0 l/m 12,5 km/h (3 Bft) W-SW 247 0 min 0,000 mm 0,0 UV-I 0 W/m 0,1 C -3,4 C 16,1 km/h (3 Bft) 100,00 %
01.03.2016 22:10 1,7 C 89 % 1017,4 hPa 0,0 l/m 11,5 km/h (2 Bft) W 268 0 min 0,000 mm 0,0 UV-I 0 W/m 0,1 C -2,7 C 16,1 km/h (3 Bft) 100,00 %
01.03.2016 22:11 1,7 C 89 % 1017,3 hPa 0,0 l/m 10,9 km/h (2 Bft) W-SW 256 0 min 0,000 mm 0,0 UV-I 0 W/m 0,1 C -2,3 C 14,5 km/h (3 Bft) 100,00 %
01.03.2016 22:12 1,7 C 89 % 1017,4 hPa 0,0 l/m 5,4 km/h (1 Bft) W 263 0 min 0,000 mm 0,0 UV-I 0 W/m 0,1 C 1,7 C 8,0 km/h (2 Bft) 100,00 %
01.03.2016 22:13 1,7 C 89 % 1017,4 hPa 0,0 l/m 10,9 km/h (2 Bft) W-SW 240 0 min 0,000 mm 0,0 UV-I 0 W/m 0,1 C -2,3 C 16,1 km/h (3 Bft) 100,00 %
01.03.2016 22:14 1,7 C 89 % 1017,3 hPa 0,0 l/m 11,6 km/h (2 Bft) SW 236 0 min 0,000 mm 0,0 UV-I 0 W/m 0,1 C -2,8 C 16,1 km/h (3 Bft) 100,00 %
01.03.2016 22:15 1,7 C 89 % 1017,3 hPa 0,0 l/m 10,2 km/h (2 Bft) SW 234 0 min 0,000 mm 0,0 UV-I 0 W/m 0,1 C -1,7 C 16,1 km/h (3 Bft) 100,00 %
01.03.2016 22:16 1,7 C 89 % 1017,3 hPa 0,0 l/m 11,7 km/h (2 Bft) SW 225 0 min 0,000 mm 0,0 UV-I 0 W/m 0,1 C -2,8 C 17,7 km/h (3 Bft) 100,00 %
01.03.2016 22:17 1,7 C 89 % 1017,3 hPa 0,0 l/m 8,9 km/h (2 Bft) W-SW 242 0 min 0,000 mm 0,0 UV-I 0 W/m 0,1 C -0,7 C 12,9 km/h (3 Bft) 100,00 %
01.03.2016 22:18 1,7 C 89 % 1017,3 hPa 0,0 l/m 10,2 km/h (2 Bft) W-SW 244 0 min 0,000 mm 0,0 UV-I 0 W/m 0,1 C -1,7 C 14,5 km/h (3 Bft) 100,00 %
01.03.2016 22:19 1,7 C 89 % 1017,3 hPa 0,0 l/m 10,4 km/h (2 Bft) W-SW 250 0 min 0,000 mm 0,0 UV-I 0 W/m 0,1 C -1,9 C 14,5 km/h (3 Bft) 100,00 %
01.03.2016 22:20 1,7 C 89 % 1017,3 hPa 0,0 l/m 12,6 km/h (3 Bft) W-SW 249 0 min 0,000 mm 0,0 UV-I 0 W/m 0,1 C -3,4 C 16,1 km/h (3 Bft) 100,00 %
01.03.2016 22:21 1,7 C 89 % 1017,3 hPa 0,0 l/m 12,1 km/h (2 Bft) W-SW 252 0 min 0,000 mm 0,0 UV-I 0 W/m 0,1 C -3,1 C 16,1 km/h (3 Bft) 95,65 %
01.03.2016 22:22 1,7 C 89 % 1017,3 hPa 0,0 l/m 12,0 km/h (2 Bft) W-SW 257 0 min 0,000 mm 0,0 UV-I 0 W/m 0,1 C -3,0 C 14,5 km/h (3 Bft) 100,00 %
01.03.2016 22:23 1,7 C 89 % 1017,3 hPa 0,0 l/m 11,8 km/h (2 Bft) W 263 0 min 0,000 mm 0,0 UV-I 0 W/m 0,1 C -2,9 C 14,5 km/h (3 Bft) 100,00 %
01.03.2016 22:24 1,7 C 89 % 1017,3 hPa 0,0 l/m 9,7 km/h (2 Bft) W-SW 244 0 min 0,000 mm 0,0 UV-I 0 W/m 0,1 C -1,3 C 12,9 km/h (3 Bft) 100,00 %
01.03.2016 22:25 1,7 C 89 % 1017,2 hPa 0,0 l/m 8,1 km/h (2 Bft) SW 224 0 min 0,000 mm 0,0 UV-I 0 W/m 0,1 C 0,0 C 11,3 km/h (2 Bft) 100,00 %
01.03.2016 22:26 1,7 C 89 % 1017,2 hPa 0,0 l/m 9,3 km/h (2 Bft) SW 223 0 min 0,000 mm 0,0 UV-I 0 W/m 0,1 C -1,0 C 14,5 km/h (3 Bft) 100,00 %
01.03.2016 22:27 1,7 C 89 % 1017,2 hPa 0,0 l/m 13,3 km/h (3 Bft) W 263 0 min 0,000 mm 0,0 UV-I 0 W/m 0,1 C -3,9 C 17,7 km/h (3 Bft) 96,55 %
01.03.2016 22:28 1,7 C 89 % 1017,1 hPa 0,0 l/m 8,4 km/h (2 Bft) W-SW 252 0 min 0,000 mm 0,0 UV-I 0 W/m 0,1 C -0,2 C 11,3 km/h (2 Bft) 100,00 %
01.03.2016 22:29 1,7 C 89 % 1017,1 hPa 0,0 l/m 8,7 km/h (2 Bft) W-SW 258 0 min 0,000 mm 0,0 UV-I 0 W/m 0,1 C -0,5 C 11,3 km/h (2 Bft) 100,00 %
01.03.2016 22:30 1,7 C 89 % 1017,1 hPa 0,0 l/m 9,8 km/h (2 Bft) W-SW 240 0 min 0,000 mm 0,0 UV-I 0 W/m 0,1 C -1,4 C 12,9 km/h (3 Bft) 100,00 %
01.03.2016 22:31 1,7 C 89 % 1017,1 hPa 0,0 l/m 11,7 km/h (2 Bft) W-SW 251 0 min 0,000 mm 0,0 UV-I 0 W/m 0,1 C -2,8 C 19,3 km/h (3 Bft) 100,00 %
01.03.2016 22:32 1,7 C 89 % 1017,1 hPa 0,0 l/m 9,6 km/h (2 Bft) W 263 0 min 0,000 mm 0,0 UV-I 0 W/m 0,1 C -1,3 C 12,9 km/h (3 Bft) 95,83 %
01.03.2016 22:33 1,7 C 89 % 1017,1 hPa 0,0 l/m 11,2 km/h (2 Bft) W-SW 252 0 min 0,000 mm 0,0 UV-I 0 W/m 0,1 C -2,5 C 14,5 km/h (3 Bft) 100,00 %
01.03.2016 22:34 1,7 C 89 % 1017,1 hPa 0,0 l/m 12,2 km/h (2 Bft) W-SW 239 0 min 0,000 mm 0,0 UV-I 0 W/m 0,1 C -3,2 C 17,7 km/h (3 Bft) 96,15 %
01.03.2016 22:35 1,7 C 89 % 1017,0 hPa 0,0 l/m 11,4 km/h (2 Bft) W-SW 255 0 min 0,000 mm 0,0 UV-I 0 W/m 0,1 C -2,6 C 14,5 km/h (3 Bft) 100,00 %
01.03.2016 22:36 1,7 C 89 % 1017,0 hPa 0,0 l/m 9,3 km/h (2 Bft) W 270 0 min 0,000 mm 0,0 UV-I 0 W/m 0,1 C -1,0 C 14,5 km/h (3 Bft) 100,00 %
01.03.2016 22:37 1,7 C 89 % 1017,0 hPa 0,0 l/m 9,8 km/h (2 Bft) W 264 0 min 0,000 mm 0,0 UV-I 0 W/m 0,1 C -1,4 C 14,5 km/h (3 Bft) 100,00 %
01.03.2016 22:38 1,7 C 89 % 1017,0 hPa 0,0 l/m 7,4 km/h (2 Bft) W-NW 282 0 min 0,000 mm 0,0 UV-I 0 W/m 0,1 C 0,7 C 9,7 km/h (2 Bft) 100,00 %
01.03.2016 22:39 1,7 C 89 % 1017,1 hPa 0,0 l/m 6,8 km/h (2 Bft) W-SW 256 0 min 0,000 mm 0,0 UV-I 0 W/m 0,1 C 1,3 C 9,7 km/h (2 Bft) 95,65 %
01.03.2016 22:40 1,7 C 89 % 1017,1 hPa 0,0 l/m 7,8 km/h (2 Bft) W-SW 248 0 min 0,000 mm 0,0 UV-I 0 W/m 0,1 C 0,3 C 11,3 km/h (2 Bft) 95,83 %
01.03.2016 22:41 1,7 C 89 % 1017,1 hPa 0,0 l/m 7,5 km/h (2 Bft) W-SW 248 0 min 0,000 mm 0,0 UV-I 0 W/m 0,1 C 0,6 C 12,9 km/h (3 Bft) 100,00 %
01.03.2016 22:42 1,7 C 89 % 1017,1 hPa 0,0 l/m 8,8 km/h (2 Bft) S-SW 195 0 min 0,000 mm 0,0 UV-I 0 W/m 0,1 C -0,6 C 12,9 km/h (3 Bft) 100,00 %
01.03.2016 22:43 1,7 C 89 % 1017,1 hPa 0,0 l/m 10,3 km/h (2 Bft) W-SW 254 0 min 0,000 mm 0,0 UV-I 0 W/m 0,1 C -1,8 C 14,5 km/h (3 Bft) 100,00 %
01.03.2016 22:44 1,7 C 89 % 1017,0 hPa 0,0 l/m 10,0 km/h (2 Bft) W 277 0 min 0,000 mm 0,0 UV-I 0 W/m 0,1 C -1,6 C 14,5 km/h (3 Bft) 100,00 %
01.03.2016 22:45 1,7 C 89 % 1017,0 hPa 0,0 l/m 8,7 km/h (2 Bft) W-SW 257 0 min 0,000 mm 0,0 UV-I 0 W/m 0,1 C -0,5 C 12,9 km/h (3 Bft) 100,00 %
01.03.2016 22:46 1,7 C 89 % 1017,0 hPa 0,0 l/m 9,9 km/h (2 Bft) W-SW 246 0 min 0,000 mm 0,0 UV-I 0 W/m 0,1 C -1,5 C 14,5 km/h (3 Bft) 100,00 %
01.03.2016 22:47 1,7 C 89 % 1017,1 hPa 0,0 l/m 6,9 km/h (2 Bft) W-SW 252 0 min 0,000 mm 0,0 UV-I 0 W/m 0,1 C 1,2 C 12,9 km/h (3 Bft) 96,97 %
01.03.2016 22:48 1,7 C 89 % 1017,1 hPa 0,0 l/m 13,2 km/h (3 Bft) W 267 0 min 0,000 mm 0,0 UV-I 0 W/m 0,1 C -3,8 C 16,1 km/h (3 Bft) 100,00 %
01.03.2016 22:49 1,7 C 89 % 1017,1 hPa 0,0 l/m 10,0 km/h (2 Bft) W-SW 248 0 min 0,000 mm 0,0 UV-I 0 W/m 0,1 C -1,6 C 12,9 km/h (3 Bft) 95,83 %
01.03.2016 22:50 1,7 C 89 % 1017,1 hPa 0,0 l/m 10,1 km/h (2 Bft) W-SW 244 0 min 0,000 mm 0,0 UV-I 0 W/m 0,1 C -1,7 C 14,5 km/h (3 Bft) 100,00 %
01.03.2016 22:51 1,7 C 89 % 1017,1 hPa 0,0 l/m 8,6 km/h (2 Bft) W 267 0 min 0,000 mm 0,0 UV-I 0 W/m 0,1 C -0,4 C 12,9 km/h (3 Bft) 91,67 %
01.03.2016 22:52 1,7 C 89 % 1017,1 hPa 0,0 l/m 7,8 km/h (2 Bft) SW 229 0 min 0,000 mm 0,0 UV-I 0 W/m 0,1 C 0,3 C 14,5 km/h (3 Bft) 92,31 %
01.03.2016 22:53 1,7 C 89 % 1017,0 hPa 0,0 l/m 12,2 km/h (2 Bft) W-SW 253 0 min 0,000 mm 0,0 UV-I 0 W/m 0,1 C -3,2 C 14,5 km/h (3 Bft) 100,00 %
01.03.2016 22:54 1,7 C 89 % 1017,1 hPa 0,0 l/m 8,7 km/h (2 Bft) W 277 0 min 0,000 mm 0,0 UV-I 0 W/m 0,1 C -0,5 C 12,9 km/h (3 Bft) 94,29 %
01.03.2016 22:55 1,7 C 89 % 1017,0 hPa 0,0 l/m 12,0 km/h (2 Bft) W-SW 252 0 min 0,000 mm 0,0 UV-I 0 W/m 0,1 C -3,0 C 16,1 km/h (3 Bft) 100,00 %
01.03.2016 22:56 1,7 C 89 % 1017,0 hPa 0,0 l/m 11,1 km/h (2 Bft) S-SW 205 0 min 0,000 mm 0,0 UV-I 0 W/m 0,1 C -2,4 C 16,1 km/h (3 Bft) 91,67 %
01.03.2016 22:57 1,7 C 89 % 1017,0 hPa 0,0 l/m 9,8 km/h (2 Bft) W 273 0 min 0,000 mm 0,0 UV-I 0 W/m 0,1 C -1,4 C 14,5 km/h (3 Bft) 100,00 %
01.03.2016 22:58 1,7 C 89 % 1017,0 hPa 0,0 l/m 9,3 km/h (2 Bft) W-SW 257 0 min 0,000 mm 0,0 UV-I 0 W/m 0,1 C -1,0 C 12,9 km/h (3 Bft) 96,15 %
01.03.2016 22:59 1,7 C 89 % 1017,0 hPa 0,0 l/m 10,8 km/h (2 Bft) W-SW 253 0 min 0,000 mm 0,0 UV-I 0 W/m 0,1 C -2,2 C 14,5 km/h (3 Bft) 100,00 %
01.03.2016 23:00 1,7 C 89 % 1017,0 hPa 0,0 l/m 9,7 km/h (2 Bft) W 274 0 min 0,000 mm 0,0 UV-I 0 W/m 0,1 C -1,3 C 14,5 km/h (3 Bft) 96,30 %
01.03.2016 23:01 1,6 C 90 % 1017,0 hPa 0,0 l/m 10,7 km/h (2 Bft) SW 230 0 min 0,000 mm 0,0 UV-I 0 W/m 0,1 C -2,2 C 16,1 km/h (3 Bft) 96,15 %
01.03.2016 23:02 1,6 C 90 % 1017,1 hPa 0,0 l/m 12,0 km/h (2 Bft) W 261 0 min 0,000 mm 0,0 UV-I 0 W/m 0,1 C -3,2 C 16,1 km/h (3 Bft) 100,00 %
01.03.2016 23:03 1,6 C 90 % 1017,1 hPa 0,0 l/m 13,3 km/h (3 Bft) W-SW 255 0 min 0,000 mm 0,0 UV-I 0 W/m 0,1 C -4,0 C 20,9 km/h (4 Bft) 92,86 %
01.03.2016 23:04 1,6 C 90 % 1017,0 hPa 0,0 l/m 12,6 km/h (3 Bft) W 265 0 min 0,000 mm 0,0 UV-I 0 W/m 0,1 C -3,6 C 16,1 km/h (3 Bft) 100,00 %
01.03.2016 23:05 1,6 C 90 % 1017,1 hPa 0,0 l/m 12,2 km/h (2 Bft) W-SW 250 0 min 0,000 mm 0,0 UV-I 0 W/m 0,1 C -3,3 C 16,1 km/h (3 Bft) 89,66 %
01.03.2016 23:06 1,6 C 90 % 1017,1 hPa 0,0 l/m 13,3 km/h (3 Bft) W 280 0 min 0,000 mm 0,0 UV-I 0 W/m 0,1 C -4,0 C 17,7 km/h (3 Bft) 100,00 %
01.03.2016 23:07 1,6 C 90 % 1017,1 hPa 0,0 l/m 10,7 km/h (2 Bft) W-SW 258 0 min 0,000 mm 0,0 UV-I 0 W/m 0,1 C -2,2 C 14,5 km/h (3 Bft) 96,55 %
01.03.2016 23:08 1,6 C 90 % 1017,1 hPa 0,0 l/m 13,0 km/h (3 Bft) W-SW 254 0 min 0,000 mm 0,0 UV-I 0 W/m 0,1 C -3,8 C 16,1 km/h (3 Bft) 96,30 %
01.03.2016 23:09 1,6 C 90 % 1017,0 hPa 0,0 l/m 13,7 km/h (3 Bft) W 263 0 min 0,000 mm 0,0 UV-I 0 W/m 0,1 C -4,3 C 16,1 km/h (3 Bft) 100,00 %
01.03.2016 23:10 1,6 C 90 % 1017,0 hPa 0,0 l/m 13,3 km/h (3 Bft) W-SW 253 0 min 0,000 mm 0,0 UV-I 0 W/m 0,1 C -4,0 C 16,1 km/h (3 Bft) 96,30 %
01.03.2016 23:11 1,6 C 90 % 1017,0 hPa 0,0 l/m 12,6 km/h (3 Bft) SW 227 0 min 0,000 mm 0,0 UV-I 0 W/m 0,1 C -3,6 C 16,1 km/h (3 Bft) 100,00 %
01.03.2016 23:12 1,6 C 89 % 1017,0 hPa 0,0 l/m 12,3 km/h (3 Bft) W 259 0 min 0,000 mm 0,0 UV-I 0 W/m -0,0 C -3,4 C 20,9 km/h (4 Bft) 93,33 %
01.03.2016 23:13 1,6 C 89 % 1017,0 hPa 0,0 l/m 10,6 km/h (2 Bft) W-SW 256 0 min 0,000 mm 0,0 UV-I 0 W/m -0,0 C -2,1 C 16,1 km/h (3 Bft) 96,15 %
01.03.2016 23:14 1,6 C 89 % 1016,9 hPa 0,0 l/m 12,7 km/h (3 Bft) W-SW 258 0 min 0,000 mm 0,0 UV-I 0 W/m -0,0 C -3,6 C 16,1 km/h (3 Bft) 96,30 %
01.03.2016 23:15 1,6 C 89 % 1017,0 hPa 0,0 l/m 11,6 km/h (2 Bft) W-SW 255 0 min 0,000 mm 0,0 UV-I 0 W/m -0,0 C -2,9 C 14,5 km/h (3 Bft) 100,00 %
01.03.2016 23:16 1,6 C 89 % 1016,9 hPa 0,0 l/m 13,9 km/h (3 Bft) SW 230 0 min 0,000 mm 0,0 UV-I 0 W/m -0,0 C -4,4 C 17,7 km/h (3 Bft) 94,29 %
01.03.2016 23:17 1,6 C 89 % 1016,9 hPa 0,0 l/m 8,3 km/h (2 Bft) W-SW 249 0 min 0,000 mm 0,0 UV-I 0 W/m -0,0 C -0,2 C 12,9 km/h (3 Bft) 98,54 %
01.03.2016 23:18 1,6 C 89 % 1016,9 hPa 0,0 l/m 12,4 km/h (3 Bft) W-SW 244 0 min 0,000 mm 0,0 UV-I 0 W/m -0,0 C -3,4 C 16,1 km/h (3 Bft) 97,37 %
01.03.2016 23:19 1,6 C 89 % 1016,8 hPa 0,0 l/m 8,4 km/h (2 Bft) W-SW 248 0 min 0,000 mm 0,0 UV-I 0 W/m -0,0 C -0,3 C 12,9 km/h (3 Bft) 96,30 %
01.03.2016 23:20 1,6 C 89 % 1016,9 hPa 0,0 l/m 9,0 km/h (2 Bft) W-SW 244 0 min 0,000 mm 0,0 UV-I 0 W/m -0,0 C -0,9 C 12,9 km/h (3 Bft) 100,00 %
01.03.2016 23:21 1,6 C 89 % 1016,8 hPa 0,0 l/m 7,9 km/h (2 Bft) W-SW 246 0 min 0,000 mm 0,0 UV-I 0 W/m -0,0 C 0,1 C 11,3 km/h (2 Bft) 96,30 %
01.03.2016 23:22 1,6 C 89 % 1016,8 hPa 0,0 l/m 8,1 km/h (2 Bft) SW 236 0 min 0,000 mm 0,0 UV-I 0 W/m -0,0 C -0,1 C 11,3 km/h (2 Bft) 92,86 %
01.03.2016 23:23 1,6 C 89 % 1016,8 hPa 0,0 l/m 6,9 km/h (2 Bft) W-SW 255 0 min 0,000 mm 0,0 UV-I 0 W/m -0,0 C 1,1 C 9,7 km/h (2 Bft) 96,30 %
01.03.2016 23:24 1,6 C 89 % 1016,8 hPa 0,0 l/m 8,0 km/h (2 Bft) W-SW 249 0 min 0,000 mm 0,0 UV-I 0 W/m -0,0 C 0,0 C 16,1 km/h (3 Bft) 100,00 %
01.03.2016 23:25 1,5 C 89 % 1016,8 hPa 0,0 l/m 10,9 km/h (2 Bft) W-SW 246 0 min 0,000 mm 0,0 UV-I 0 W/m -0,1 C -2,5 C 16,1 km/h (3 Bft) 95,83 %
01.03.2016 23:26 1,5 C 89 % 1016,7 hPa 0,0 l/m 8,0 km/h (2 Bft) W-SW 258 0 min 0,000 mm 0,0 UV-I 0 W/m -0,1 C -0,1 C 12,9 km/h (3 Bft) 100,00 %
01.03.2016 23:27 1,4 C 90 % 1016,7 hPa 0,0 l/m 10,8 km/h (2 Bft) W-SW 252 0 min 0,000 mm 0,0 UV-I 0 W/m -0,1 C -2,5 C 16,1 km/h (3 Bft) 100,00 %
01.03.2016 23:28 1,4 C 90 % 1016,7 hPa 0,0 l/m 10,7 km/h (2 Bft) W-SW 244 0 min 0,000 mm 0,0 UV-I 0 W/m -0,1 C -2,4 C 14,5 km/h (3 Bft) 100,00 %
01.03.2016 23:29 1,4 C 90 % 1016,7 hPa 0,0 l/m 7,1 km/h (2 Bft) W 264 0 min 0,000 mm 0,0 UV-I 0 W/m -0,1 C 0,7 C 9,7 km/h (2 Bft) 100,00 %
01.03.2016 23:30 1,4 C 90 % 1016,7 hPa 0,0 l/m 7,8 km/h (2 Bft) W-SW 242 0 min 0,000 mm 0,0 UV-I 0 W/m -0,1 C 0,0 C 12,9 km/h (3 Bft) 100,00 %
01.03.2016 23:31 1,4 C 90 % 1016,7 hPa 0,0 l/m 8,3 km/h (2 Bft) SW 232 0 min 0,000 mm 0,0 UV-I 0 W/m -0,1 C -0,5 C 11,3 km/h (2 Bft) 100,00 %
01.03.2016 23:32 1,3 C 90 % 1016,7 hPa 0,0 l/m 8,9 km/h (2 Bft) W-SW 243 0 min 0,000 mm 0,0 UV-I 0 W/m -0,2 C -1,1 C 12,9 km/h (3 Bft) 100,00 %
01.03.2016 23:33 1,3 C 90 % 1016,6 hPa 0,0 l/m 9,8 km/h (2 Bft) W-SW 257 0 min 0,000 mm 0,0 UV-I 0 W/m -0,2 C -1,9 C 12,9 km/h (3 Bft) 100,00 %
01.03.2016 23:34 1,3 C 90 % 1016,6 hPa 0,0 l/m 9,4 km/h (2 Bft) W-SW 254 0 min 0,000 mm 0,0 UV-I 0 W/m -0,2 C -1,5 C 14,5 km/h (3 Bft) 88,46 %
01.03.2016 23:35 1,3 C 90 % 1016,6 hPa 0,0 l/m 9,2 km/h (2 Bft) SW 236 0 min 0,000 mm 0,0 UV-I 0 W/m -0,2 C -1,4 C 12,9 km/h (3 Bft) 100,00 %
01.03.2016 23:36 1,3 C 90 % 1016,6 hPa 0,0 l/m 8,4 km/h (2 Bft) W-SW 251 0 min 0,000 mm 0,0 UV-I 0 W/m -0,2 C -0,7 C 11,3 km/h (2 Bft) 100,00 %
01.03.2016 23:37 1,3 C 90 % 1016,6 hPa 0,0 l/m 8,5 km/h (2 Bft) SW 234 0 min 0,000 mm 0,0 UV-I 0 W/m -0,2 C -0,7 C 12,9 km/h (3 Bft) 100,00 %
01.03.2016 23:38 1,3 C 90 % 1016,6 hPa 0,0 l/m 8,5 km/h (2 Bft) W 267 0 min 0,000 mm 0,0 UV-I 0 W/m -0,2 C -0,7 C 11,3 km/h (2 Bft) 100,00 %
01.03.2016 23:39 1,3 C 90 % 1016,6 hPa 0,0 l/m 11,1 km/h (2 Bft) W 265 0 min 0,000 mm 0,0 UV-I 0 W/m -0,2 C -2,9 C 14,5 km/h (3 Bft) 100,00 %
01.03.2016 23:40 1,2 C 90 % 1016,6 hPa 0,0 l/m 9,1 km/h (2 Bft) W-SW 250 0 min 0,000 mm 0,0 UV-I 0 W/m -0,3 C -1,4 C 12,9 km/h (3 Bft) 100,00 %
01.03.2016 23:41 1,2 C 90 % 1016,6 hPa 0,0 l/m 9,9 km/h (2 Bft) W-SW 254 0 min 0,000 mm 0,0 UV-I 0 W/m -0,3 C -2,0 C 12,9 km/h (3 Bft) 100,00 %
01.03.2016 23:42 1,2 C 90 % 1016,5 hPa 0,0 l/m 10,8 km/h (2 Bft) SW 227 0 min 0,000 mm 0,0 UV-I 0 W/m -0,3 C -2,7 C 14,5 km/h (3 Bft) 100,00 %
01.03.2016 23:43 1,2 C 91 % 1016,5 hPa 0,0 l/m 12,1 km/h (2 Bft) SW 223 0 min 0,000 mm 0,0 UV-I 0 W/m -0,1 C -3,7 C 16,1 km/h (3 Bft) 96,15 %
01.03.2016 23:44 1,2 C 90 % 1016,5 hPa 0,0 l/m 8,9 km/h (2 Bft) W-SW 239 0 min 0,000 mm 0,0 UV-I 0 W/m -0,3 C -1,2 C 14,5 km/h (3 Bft) 100,00 %
01.03.2016 23:45 1,2 C 90 % 1016,5 hPa 0,0 l/m 10,2 km/h (2 Bft) W-SW 246 0 min 0,000 mm 0,0 UV-I 0 W/m -0,3 C -2,3 C 14,5 km/h (3 Bft) 96,55 %
01.03.2016 23:46 1,2 C 91 % 1016,5 hPa 0,0 l/m 9,4 km/h (2 Bft) SW 223 0 min 0,000 mm 0,0 UV-I 0 W/m -0,1 C -1,6 C 16,1 km/h (3 Bft) 100,00 %
01.03.2016 23:47 1,2 C 91 % 1016,5 hPa 0,0 l/m 10,9 km/h (2 Bft) W-SW 240 0 min 0,000 mm 0,0 UV-I 0 W/m -0,1 C -2,8 C 16,1 km/h (3 Bft) 100,00 %
01.03.2016 23:48 1,2 C 90 % 1016,5 hPa 0,0 l/m 10,4 km/h (2 Bft) W-SW 245 0 min 0,000 mm 0,0 UV-I 0 W/m -0,3 C -2,4 C 14,5 km/h (3 Bft) 100,00 %
01.03.2016 23:49 1,3 C 90 % 1016,5 hPa 0,0 l/m 10,9 km/h (2 Bft) W-SW 239 0 min 0,000 mm 0,0 UV-I 0 W/m -0,2 C -2,7 C 19,3 km/h (3 Bft) 97,56 %
01.03.2016 23:50 1,3 C 90 % 1016,5 hPa 0,0 l/m 10,2 km/h (2 Bft) W-SW 238 0 min 0,000 mm 0,0 UV-I 0 W/m -0,2 C -2,2 C 14,5 km/h (3 Bft) 95,83 %
01.03.2016 23:51 1,3 C 90 % 1016,5 hPa 0,2 l/m 9,6 km/h (2 Bft) W 261 0 min 0,000 mm 0,0 UV-I 0 W/m -0,2 C -1,7 C 14,5 km/h (3 Bft) 100,00 %
01.03.2016 23:52 1,3 C 90 % 1016,5 hPa 0,0 l/m 10,7 km/h (2 Bft) W-SW 238 0 min 0,000 mm 0,0 UV-I 0 W/m -0,2 C -2,6 C 16,1 km/h (3 Bft) 100,00 %
01.03.2016 23:53 1,3 C 90 % 1016,5 hPa 0,0 l/m 12,4 km/h (3 Bft) SW 235 0 min 0,000 mm 0,0 UV-I 0 W/m -0,2 C -3,8 C 17,7 km/h (3 Bft) 100,00 %
01.03.2016 23:54 1,3 C 90 % 1016,4 hPa 0,0 l/m 11,8 km/h (2 Bft) W-SW 239 0 min 0,000 mm 0,0 UV-I 0 W/m -0,2 C -3,4 C 16,1 km/h (3 Bft) 100,00 %
01.03.2016 23:55 1,3 C 90 % 1016,4 hPa 0,0 l/m 10,2 km/h (2 Bft) SW 214 0 min 0,000 mm 0,0 UV-I 0 W/m -0,2 C -2,2 C 14,5 km/h (3 Bft) 100,00 %
01.03.2016 23:56 1,3 C 90 % 1016,4 hPa 0,0 l/m 13,7 km/h (3 Bft) SW 219 0 min 0,000 mm 0,0 UV-I 0 W/m -0,2 C -4,6 C 19,3 km/h (3 Bft) 100,00 %
01.03.2016 23:57 1,3 C 90 % 1016,4 hPa 0,0 l/m 13,2 km/h (3 Bft) SW 223 0 min 0,000 mm 0,0 UV-I 0 W/m -0,2 C -4,3 C 16,1 km/h (3 Bft) 96,67 %
01.03.2016 23:58 1,3 C 90 % 1016,4 hPa 0,0 l/m 10,4 km/h (2 Bft) W-SW 246 0 min 0,000 mm 0,0 UV-I 0 W/m -0,2 C -2,3 C 14,5 km/h (3 Bft) 100,00 %
01.03.2016 23:59 1,3 C 90 % 1016,3 hPa 0,0 l/m 10,2 km/h (2 Bft) SW 232 0 min 0,000 mm 0,0 UV-I 0 W/m -0,2 C -2,2 C 12,9 km/h (3 Bft) 98,54 %
_ Min-Zeit 06:58 12:40 00:00 - 20:01 - - - - - - 13:45 06:14 20:01 17:01
Minimum _ 0,1 C 84 % 1012,6 hPa - 3,7 km/h (1 Bft) - - - - - - -1,5 C -11,8 C 4,8 km/h (1 Bft) 70,37 %
_ Max-Zeit 00:00 00:00 12:17 00:37 04:54 - - 00:00 11:00 12:39 11:50 00:00 22:12 06:14 00:00
Maximum _ 2,1 C 94 % 1018,9 hPa 0,2 l/m 27,2 km/h
W-SW (4 Bft)
- - 0 min 0,051 mm 0,9 UV-I 161 W/m 1,2 C 1,7 C 41,8 km/h
W (6 Bft)
100,00 %
Durchschnitt _ 1,0 C 91 % 1017,0 hPa #1,4 l/m 14,8 km/h (3 Bft) W-SW - #0 min. #0,305 mm 0,5 UV-I 47 W/m -0,4 C -5,4 C 20,8 km/h (4 Bft) 98,52 %